Date StartTime U_cm/s V_cm/s W_cm/s Ustd_cm/s Vstd_cm/s Wstd_cm/s Uvar_(cm/s)^2 Vvar_(cm/s)^2 Wvar_(cm/s)^2 KE_(m/s)^2 TurbulentKE_(m/s)^2 HorizWindSpeed_cm/s FrictionSpeec_cm/s DragCoef SpeedOfSound_m/s SonicTemperature_C Pressure_mb 
12/24/2014  00:00:00      -92.150      -35.071       -9.616       16.441       20.795       12.856      270.298      432.426      165.285        0.534        0.043       98.598        6.141        0.004      333.700        3.186      864.808
12/24/2014  00:01:00      -63.165      -48.270       -0.781       58.320       17.272       17.049     3401.172      298.337      290.677        0.515        0.200       79.497       25.655        0.104      333.653        3.108      864.836
12/24/2014  00:02:00      -33.415      -17.428        4.973       27.554       20.616       18.435      759.249      424.999      339.857        0.148        0.076       37.687       16.389        0.189      333.756        3.278      864.839
12/24/2014  00:03:00        8.259       -5.736       10.507       12.534        7.874       12.433      157.095       62.007      154.573        0.029        0.019       10.056        8.338        0.688      333.804        3.360      864.836
12/24/2014  00:04:00      -13.764      -24.006       13.322       21.909       23.131       15.680      480.010      535.026      245.868        0.110        0.063       27.672       13.033        0.222      333.884        3.493      864.825
12/24/2014  00:05:00      -72.839        1.356       -3.575       32.094       34.941       18.477     1029.998     1220.847      341.387        0.396        0.130       72.851       15.198        0.044      333.978        3.648      864.818
12/24/2014  00:06:00      -41.217      -39.829       -6.472       20.112       19.404        9.548      404.496      376.502       91.157        0.210        0.044       57.316        6.652        0.013      333.917        3.547      864.800
12/24/2014  00:07:00      -71.777      -33.406       -9.287       17.897       20.081       15.561      320.287      403.261      242.155        0.366        0.048       79.170       14.295        0.033      333.884        3.492      864.784
12/24/2014  00:08:00      -74.009      -38.151      -12.455       20.350       24.354       12.944      414.126      593.119      167.535        0.413        0.059       83.263       10.714        0.017      333.834        3.410      864.802
12/24/2014  00:09:00      -87.780      -37.115       -3.827       29.027       27.433       19.718      842.586      752.575      388.781        0.554        0.099       95.304       17.406        0.033      333.802        3.356      864.822
12/24/2014  00:10:00      -76.298      -31.789        1.467       38.407       29.125       18.232     1475.112      848.267      332.395        0.474        0.133       82.656       18.363        0.049      333.820        3.386      864.835
12/24/2014  00:11:00      -56.851      -21.099      -13.530       29.938       18.597       19.748      896.270      345.842      389.978        0.275        0.082       60.640        6.210        0.010      333.853        3.440      864.840
12/24/2014  00:12:00      -10.783      -25.546        2.404       24.243       15.762       16.354      587.702      248.427      267.462        0.094        0.055       27.729       12.878        0.216      333.884        3.493      864.846
12/24/2014  00:13:00     -109.240      -15.798      -14.472       43.031       28.474       18.167     1851.656      810.782      330.040        0.769        0.150      110.376       19.822        0.032      333.880        3.485      864.833
12/24/2014  00:14:00      -86.482       -9.088       -3.084       44.700       34.000       24.363     1998.118     1155.970      593.541        0.566        0.187       86.958       22.612        0.068      333.963        3.623      864.780
12/24/2014  00:15:00      -25.754      -24.580       10.376       38.850       22.868       18.399     1509.312      522.923      338.513        0.187        0.119       35.601       23.665        0.442      333.956        3.612      864.705
12/24/2014  00:16:00       -3.226      -11.906       -1.351       17.996        7.467       10.665      323.859       55.762      113.752        0.032        0.025       12.335        8.378        0.461      333.974        3.641      864.653
12/24/2014  00:17:00      -22.602      -22.856        1.120       11.559       11.392        6.253      133.619      129.785       39.095        0.067        0.015       32.144        6.315        0.039      333.990        3.671      864.615
12/24/2014  00:18:00      -23.326      -20.426       -0.665       17.515        9.101       11.046      306.792       82.825      122.010        0.074        0.026       31.005        4.835        0.024      333.973        3.642      864.606
12/24/2014  00:19:00      -64.571      -30.929       -8.444       13.198       14.244        7.848      174.175      202.885       61.586        0.282        0.022       71.597        5.574        0.006      333.926        3.562      864.632
12/24/2014  00:20:00      -36.492      -22.959       -6.806       16.060       15.446        9.592      257.920      238.570       92.012        0.125        0.029       43.113        6.926        0.026      333.947        3.598      864.648
12/24/2014  00:21:00      -24.426       -9.646       -4.770       15.024       13.156        9.810      225.732      173.077       96.239        0.060        0.025       26.261        6.685        0.065      333.999        3.685      864.644
12/24/2014  00:22:00      -31.173       -9.276       -4.028        9.827        7.841        5.775       96.567       61.475       33.351        0.063        0.010       32.524        2.985        0.008      334.040        3.751      864.632
12/24/2014  00:23:00      -10.205       -9.500       -4.867        8.039        6.797        5.470       64.632       46.194       29.920        0.018        0.007       13.942        3.104        0.050      334.035        3.739      864.619
12/24/2014  00:24:00      -29.605      -22.228       -4.764        9.529        5.372        6.015       90.802       28.854       36.184        0.077        0.008       37.021        3.843        0.011      334.101        3.852      864.611
12/24/2014  00:25:00      -41.679      -18.060       -0.334       18.964       10.589       11.868      359.648      112.121      140.847        0.134        0.031       45.424        7.151        0.025      333.964        3.625      864.621
12/24/2014  00:26:00      -65.426       -0.503      -11.279       18.142       12.871       11.356      329.120      165.675      128.960        0.252        0.031       65.428        6.985        0.011      333.976        3.645      864.618
12/24/2014  00:27:00      -43.543      -18.237      -11.593       12.389       10.797        8.191      153.494      116.579       67.089        0.135        0.017       47.208        8.037        0.029      334.020        3.718      864.583
12/24/2014  00:28:00       -8.180      -12.000        4.335       10.968       11.646        8.197      120.299      135.627       67.192        0.028        0.016       14.523        7.495        0.266      334.095        3.841      864.508
12/24/2014  00:29:00       13.494       24.320       19.452       12.841       16.073       17.095      164.894      258.326      292.251        0.093        0.036       27.813       11.282        0.165      334.140        3.916      864.443
12/24/2014  00:30:00       26.364        8.300        5.569       16.325       11.897       11.509      266.490      141.539      132.452        0.067        0.027       27.639        7.274        0.069      333.988        3.664      864.422
12/24/2014  00:31:00        0.073      -29.076       -0.040       13.864       11.824       13.111      192.205      139.807      171.909        0.067        0.025       29.076       11.168        0.148      334.113        3.873      864.432
12/24/2014  00:32:00      -22.708      -14.049       -4.121       19.784       10.960        9.056      391.389      120.117       82.006        0.066        0.030       26.703        5.031        0.035      334.034        3.741      864.443
12/24/2014  00:33:00      -18.631       -7.844        1.438       13.763        7.952        8.843      189.433       63.239       78.197        0.037        0.017       20.215        6.796        0.113      333.867        3.464      864.430
12/24/2014  00:34:00      -31.790      -13.984       -2.653       19.622        7.283        6.367      385.012       53.045       40.542        0.085        0.024       34.730        7.208        0.043      333.921        3.555      864.396
12/24/2014  00:35:00      -60.883      -18.951       -6.102       12.187        8.068        5.220      148.528       65.096       27.245        0.217        0.012       63.764        3.574        0.003      334.002        3.690      864.349
12/24/2014  00:36:00      -31.884      -14.181       -2.239       11.460        4.962        4.049      131.330       24.620       16.396        0.070        0.009       34.896        2.486        0.005      334.033        3.738      864.319
12/24/2014  00:37:00      -40.202       -7.047       -4.980        8.398        4.885        5.198       70.519       23.864       27.017        0.091        0.006       40.815        3.306        0.007      334.063        3.790      864.305
12/24/2014  00:38:00      -61.281       -4.859       -8.732       15.722       10.205        9.566      247.166      104.148       91.503        0.215        0.022       61.473        7.639        0.015      333.957        3.614      864.298
12/24/2014  00:39:00      -78.485       -6.722      -11.185       11.329        9.692        8.909      128.350       93.943       79.371        0.332        0.015       78.773        4.572        0.003      333.962        3.624      864.301
12/24/2014  00:40:00      -87.068      -23.882       -7.226       14.924       17.912        9.251      222.715      320.823       85.575        0.442        0.031       90.284        6.263        0.005      333.932        3.572      864.301
12/24/2014  00:41:00      -85.931      -20.121       -9.484       16.450       13.853        9.433      270.616      191.905       88.984        0.422        0.028       88.255        9.251        0.011      333.895        3.511      864.299
12/24/2014  00:42:00     -118.636      -22.326       -9.978       22.149       12.925       12.408      490.585      167.049      153.954        0.774        0.041      120.718        9.735        0.007      333.792        3.339      864.307
12/24/2014  00:43:00     -140.097      -43.159       -3.954       23.696       23.777       15.852      561.500      565.324      251.270        1.144        0.069      146.594       13.164        0.008      333.700        3.186      864.354
12/24/2014  00:44:00     -127.423      -60.305        0.104       33.802       29.075       18.796     1142.593      845.355      353.271        1.111        0.117      140.973        7.594        0.003      333.639        3.085      864.418
12/24/2014  00:45:00      -87.613      -37.392       -0.222       39.428       31.436       18.249     1554.550      988.217      333.042        0.597        0.144       95.259       17.475        0.034      333.606        3.030      864.464
12/24/2014  00:46:00      -64.666      -32.321        7.394       23.226       21.001       14.097      539.456      441.032      198.716        0.323        0.059       72.293       11.975        0.027      333.646        3.097      864.449
12/24/2014  00:47:00      -77.532      -26.707       -3.497       23.758       22.119       17.265      564.465      489.244      298.093        0.404        0.068       82.003       14.499        0.031      333.685        3.161      864.406
12/24/2014  00:48:00     -108.717       -4.400       -9.420       34.249       23.798       19.345     1172.964      566.326      374.227        0.702        0.106      108.806       21.179        0.038      333.558        2.951      864.359
12/24/2014  00:49:00     -106.184      -35.486       -2.266       30.003       32.198       17.514      900.188     1036.737      306.743        0.739        0.112      111.957       18.294        0.027      333.495        2.846      864.337
12/24/2014  00:50:00      -73.458      -54.837       -6.618       29.660       34.456       16.823      879.714     1187.182      283.025        0.540        0.117       91.669       10.263        0.013      333.494        2.845      864.329
12/24/2014  00:51:00      -83.254      -47.794      -10.226       18.110       19.667       11.136      327.983      386.788      124.018        0.508        0.042       95.997        9.958        0.011      333.533        2.910      864.332
12/24/2014  00:52:00     -125.809      -50.952      -12.042       35.176       20.984       17.101     1237.363      440.341      292.456        1.027        0.099      135.735       14.268        0.011      333.471        2.808      864.366
12/24/2014  00:53:00     -126.354      -43.802       -8.902       28.376       26.421       15.712      805.222      698.076      246.870        0.986        0.088      133.731       14.263        0.011      333.437        2.751      864.409
12/24/2014  00:54:00     -115.352      -25.203      -15.528       26.405       26.202       15.610      697.222      686.538      243.682        0.790        0.081      118.073       13.630        0.013      333.558        2.951      864.426
12/24/2014  00:55:00     -127.033      -17.561      -10.885       32.888       24.556       19.499     1081.625      602.989      380.199        0.931        0.103      128.242       20.452        0.025      333.678        3.150      864.450
12/24/2014  00:56:00     -151.768       -2.298      -17.648       27.336       20.784       21.878      747.265      431.959      478.655        1.250        0.083      151.785       19.552        0.017      333.802        3.355      864.458
12/24/2014  00:57:00     -125.996       -0.500       -4.715       51.887       25.482       22.845     2692.272      649.347      521.872        0.988        0.193      125.997       25.157        0.040      333.749        3.268      864.467
12/24/2014  00:58:00      -96.478       -8.738       -3.689       37.945       31.658       18.259     1439.785     1002.202      333.388        0.609        0.139       96.873       21.260        0.048      333.681        3.156      864.457
12/24/2014  00:59:00      -59.500        4.058       -1.777       41.879       24.758       16.321     1753.881      612.946      266.391        0.310        0.132       59.638       23.207        0.151      333.679        3.152      864.423
12/24/2014  01:00:00      -31.181      -28.063       -3.098       26.612       24.561       11.064      708.194      603.222      122.401        0.160        0.072       41.950       11.361        0.073      333.761        3.285      864.406
12/24/2014  01:01:00        3.691      -17.413        0.341       17.308       16.788        9.281      299.555      281.832       86.142        0.049        0.033       17.800        5.609        0.099      333.723        3.223      864.389
12/24/2014  01:02:00       12.458       10.013       19.716       11.128       15.667       12.376      123.823      245.444      153.176        0.058        0.026       15.983       10.418        0.425      333.660        3.121      864.336
12/24/2014  01:03:00       19.934       12.187       13.290        9.271        7.069       10.434       85.950       49.972      108.861        0.048        0.012       23.365        5.425        0.054      333.716        3.213      864.305
12/24/2014  01:04:00       10.883       11.972        2.483        4.496        4.361        4.341       20.211       19.020       18.842        0.016        0.003       16.179        1.923        0.014      333.786        3.330      864.302
12/24/2014  01:05:00       11.912       17.560        1.354        4.499       10.942        6.693       20.239      119.719       44.797        0.032        0.009       21.219        5.986        0.080      333.760        3.287      864.263
12/24/2014  01:06:00        5.827       -9.063       -1.800        4.799       10.852        5.796       23.033      117.765       33.597        0.015        0.009       10.774        6.596        0.375      333.904        3.527      864.231
12/24/2014  01:07:00       -3.226      -27.724       -0.152        6.929        9.990        8.373       48.016       99.790       70.100        0.050        0.011       27.911        6.381        0.052      334.012        3.704      864.215
12/24/2014  01:08:00      -29.370      -20.607       -3.048       19.465        8.489       13.858      378.870       72.058      192.047        0.097        0.032       35.878       10.597        0.087      333.629        3.069      864.205
12/24/2014  01:09:00      -80.489      -19.088      -11.731       18.963        8.381        6.939      359.612       70.238       48.143        0.373        0.024       82.722        3.772        0.002      333.506        2.865      864.205
12/24/2014  01:10:00     -109.375      -29.384      -15.014        6.443        6.471        6.297       41.507       41.868       39.652        0.659        0.006      113.254        3.167        0.001      333.703        3.191      864.207
12/24/2014  01:11:00      -99.872      -30.475      -13.314       13.350       10.755        7.847      178.221      115.672       61.573        0.572        0.018      104.418        3.923        0.001      333.755        3.277      864.214
12/24/2014  01:12:00     -119.302      -17.113      -11.811       19.105       17.023       13.014      365.014      289.798      169.355        0.774        0.041      120.523       10.870        0.008      333.686        3.164      864.211
12/24/2014  01:13:00     -104.126      -19.567       -8.758       31.522       19.679       22.134      993.616      387.272      489.899        0.659        0.094      105.948       21.317        0.040      333.474        2.812      864.179
12/24/2014  01:14:00      -12.867       -6.445       12.058       25.943       17.588       16.637      673.033      309.332      276.776        0.081        0.063       14.391       13.749        0.913      333.613        3.042      864.136
12/24/2014  01:15:00      -78.366        1.967       -9.117       33.891       29.489       17.461     1148.577      869.629      304.874        0.428        0.116       78.391        9.088        0.013      333.999        3.682      864.122
12/24/2014  01:16:00      -73.590        2.129        0.078       50.261       37.301       28.017     2526.200     1391.367      784.975        0.506        0.235       73.620       30.236        0.169      333.812        3.372      864.118
12/24/2014  01:17:00      -77.372       11.372       -2.923       40.127       39.821       29.968     1610.212     1585.693      898.084        0.511        0.205       78.203       28.073        0.129      333.812        3.371      864.102
12/24/2014  01:18:00      -48.566      -13.105        3.698       36.981       33.533       21.996     1367.574     1124.475      483.827        0.276        0.149       50.303       21.519        0.183      333.629        3.069      864.069
12/24/2014  01:19:00      -48.742      -44.869        2.217       28.266       18.593       18.681      798.941      345.695      348.982        0.294        0.075       66.249       19.698        0.088      333.473        2.810      864.038
12/24/2014  01:20:00      -27.518      -37.362       -1.251       19.114       14.901       16.014      365.335      222.047      256.461        0.150        0.042       46.402        8.188        0.031      333.510        2.872      864.017
12/24/2014  01:21:00       -0.787      -16.407        7.584       12.375       16.028        7.613      153.150      256.883       57.950        0.040        0.023       16.426        7.870        0.230      333.510        2.871      863.997
12/24/2014  01:22:00      -28.312       -5.954       -6.542       12.226       11.085        6.367      149.463      122.869       40.537        0.060        0.016       28.931        4.358        0.023      333.783        3.326      863.989
12/24/2014  01:23:00      -45.757      -13.155       -5.632       17.206       11.362        6.806      296.063      129.089       46.327        0.138        0.024       47.611        7.152        0.023      333.722        3.223      864.000
12/24/2014  01:24:00      -62.511       -7.988      -13.607        9.694        8.272        7.276       93.975       68.427       52.938        0.219        0.011       63.019        3.162        0.003      333.502        2.858      864.009
12/24/2014  01:25:00      -49.963       -7.350       -6.035       12.583       11.868       10.547      158.343      140.860      111.246        0.150        0.021       50.501        8.971        0.032      333.520        2.889      864.004
12/24/2014  01:26:00      -29.410       -4.087       -2.459       10.415        8.720        5.462      108.479       76.044       29.838        0.055        0.011       29.693        4.930        0.028      333.600        3.022      863.979
12/24/2014  01:27:00      -18.236      -18.383      -10.640       12.588       14.018        6.856      158.450      196.512       47.008        0.059        0.020       25.894        5.781        0.050      333.687        3.165      863.961
12/24/2014  01:28:00       -7.638      -18.890       -2.555       10.612       11.460        6.798      112.609      131.329       46.207        0.036        0.015       20.376        5.951        0.085      333.719        3.219      863.934
12/24/2014  01:29:00      -17.217      -16.644      -10.095        9.019       12.402        7.935       81.334      153.811       62.961        0.049        0.015       23.947        5.129        0.046      333.747        3.264      863.914
12/24/2014  01:30:00      -12.406      -20.466        2.565        9.496        8.428        9.639       90.174       71.025       92.912        0.042        0.013       23.933        4.652        0.038      333.606        3.033      863.911
12/24/2014  01:31:00      -21.206      -23.726       -3.339       13.751       10.033        9.307      189.082      100.664       86.623        0.070        0.019       31.822        8.098        0.065      333.625        3.062      863.914
12/24/2014  01:32:00      -41.083      -22.750       -7.643        7.773        7.070        5.744       60.415       49.983       32.996        0.120        0.007       46.962        3.384        0.005      333.717        3.214      863.928
12/24/2014  01:33:00      -16.856      -13.058       -0.834        9.670        7.030        4.902       93.510       49.423       24.029        0.031        0.008       21.323        3.046        0.020      333.793        3.341      863.911
12/24/2014  01:34:00      -25.630      -10.067       -1.882       10.515        6.998        5.588      110.559       48.965       31.224        0.048        0.010       27.536        5.539        0.040      333.926        3.563      863.883
12/24/2014  01:35:00      -78.451       -8.538       -6.927       39.833       17.034       13.060     1586.664      290.143      170.553        0.416        0.102       78.914       16.706        0.045      333.821        3.386      863.856
12/24/2014  01:36:00     -115.646      -13.048      -18.540        9.638       11.797        9.854       92.895      139.181       97.107        0.711        0.016      116.380        5.321        0.002      333.373        2.643      863.838
12/24/2014  01:37:00     -100.944      -11.079      -16.870       18.177       11.533       10.280      330.409      133.002      105.671        0.558        0.028      101.550        3.058        0.001      333.426        2.733      863.800
12/24/2014  01:38:00      -55.989       -7.167       -7.373        8.110        9.521        6.318       65.774       90.656       39.918        0.172        0.010       56.446        3.863        0.005      333.557        2.950      863.757
12/24/2014  01:39:00      -19.345      -27.461        0.521       20.114        8.441        8.400      404.555       71.251       70.565        0.084        0.027       33.591       10.057        0.090      333.573        2.978      863.759
12/24/2014  01:40:00      -51.383      -34.610       -0.386       15.004       10.962       12.072      225.120      120.164      145.738        0.216        0.025       61.952        6.802        0.012      333.429        2.738      863.781
12/24/2014  01:41:00      -94.225      -22.604       -7.213       11.527       10.387        8.164      132.881      107.884       66.653        0.487        0.015       96.898        5.416        0.003      333.345        2.600      863.794
12/24/2014  01:42:00      -99.549       13.932      -14.332        7.441       14.408        6.354       55.365      207.580       40.374        0.531        0.015      100.519        4.132        0.002      333.387        2.668      863.773
12/24/2014  01:43:00      -78.761       25.391      -10.143       17.661       11.465        8.298      311.911      131.444       68.851        0.373        0.026       82.753        4.605        0.003      333.465        2.798      863.756
12/24/2014  01:44:00      -24.984        0.318       -7.947       12.918       15.785        8.191      166.884      249.182       67.086        0.059        0.024       24.986        6.166        0.061      333.499        2.852      863.755
12/24/2014  01:45:00      -21.455      -23.912        1.732       33.891       26.253       20.914     1148.597      689.211      437.415        0.165        0.114       32.127       15.290        0.227      333.466        2.799      863.790
12/24/2014  01:46:00      -80.866      -66.159        7.052       55.105       34.007       26.651     3036.566     1156.453      710.260        0.793        0.245      104.481       27.855        0.071      333.232        2.412      863.831
12/24/2014  01:47:00      -93.677      -20.479       -0.791       39.173       39.635       19.487     1534.525     1570.914      379.732        0.634        0.174       95.889       22.383        0.054      333.320        2.558      863.822
12/24/2014  01:48:00     -126.047        8.301      -10.700       12.648       26.082        9.782      159.977      680.293       95.684        0.850        0.047      126.320        7.578        0.004      333.365        2.633      863.824
12/24/2014  01:49:00     -104.524      -42.744       -5.908       17.859       22.805        9.703      318.947      520.085       94.145        0.686        0.047      112.926       10.167        0.008      333.232        2.412      863.871
12/24/2014  01:50:00      -82.669      -45.814        3.599       34.583       21.816       19.396     1195.950      475.953      376.188        0.550        0.102       94.515       19.988        0.045      333.251        2.443      863.916
12/24/2014  01:51:00     -112.697       -5.462      -10.169       35.316       23.219       13.396     1247.188      539.105      179.451        0.740        0.098      112.830       10.844        0.009      333.257        2.452      863.945
12/24/2014  01:52:00      -74.817        1.268       -5.355       43.456       17.003       19.812     1888.434      289.086      392.518        0.410        0.129       74.828       23.354        0.097      333.364        2.629      863.944
12/24/2014  01:53:00      -58.107       45.302      -11.543       24.799       28.493       18.737      614.987      811.842      351.073        0.367        0.089       73.680       14.283        0.038      333.681        3.155      863.905
12/24/2014  01:54:00     -107.704      -26.939      -12.517       39.476       47.475       20.445     1558.389     2253.831      418.015        0.836        0.212      111.021       15.372        0.019      333.562        2.958      863.923
12/24/2014  01:55:00      -96.882      -52.481      -12.477       63.665       42.402       22.627     4053.184     1797.913      511.997        0.933        0.318      110.183       27.094        0.060      333.237        2.421      863.954
12/24/2014  01:56:00      -46.254      -39.704       -3.529       34.571       26.460       16.042     1195.168      700.128      257.337        0.294        0.108       60.957       19.822        0.106      333.192        2.345      863.935
12/24/2014  01:57:00      -80.863      -26.106       -8.784       47.892       42.459       15.480     2293.677     1802.728      239.617        0.582        0.217       84.973        9.293        0.012      333.320        2.558      863.953
12/24/2014  01:58:00     -125.690      -40.907       -0.356       66.556       39.342       23.945     4429.646     1547.814      573.350        1.201        0.328      132.179       28.996        0.048      333.271        2.476      864.021
12/24/2014  01:59:00      -68.251      -24.813       -2.939       24.881       30.536       15.819      619.056      932.434      250.241        0.354        0.090       72.621        8.898        0.015      333.362        2.627      864.018
12/24/2014  02:00:00      -65.376      -15.123      -10.691       14.978       16.704       16.073      224.348      279.034      258.338        0.269        0.038       67.103       11.971        0.032      333.463        2.795      863.977
12/24/2014  02:01:00      -45.916      -27.790      -11.680       16.419       12.559       11.442      269.584      157.736      130.917        0.179        0.028       53.671        7.277        0.018      333.393        2.677      863.964
12/24/2014  02:02:00      -92.393      -44.211       -6.720       48.471       17.457       11.284     2349.453      304.732      127.334        0.666        0.139      102.426       10.715        0.011      333.411        2.708      864.002
12/24/2014  02:03:00     -130.646      -41.109       -8.107       46.531       22.842       17.891     2165.118      521.775      320.079        1.091        0.150      136.961       18.544        0.018      333.234        2.415      864.055
12/24/2014  02:04:00      -25.650        8.629       -0.505       35.544       20.383       18.452     1263.407      415.482      340.458        0.138        0.101       27.063       19.530        0.521      333.250        2.441      864.012
12/24/2014  02:05:00       -9.495       -2.383       -1.106       12.875       27.904       13.127      165.766      778.625      172.307        0.061        0.056        9.790        8.258        0.712      333.607        3.032      863.933
12/24/2014  02:06:00       -6.756      -17.933       -7.821       13.306       28.206        9.346      177.055      795.554       87.357        0.074        0.053       19.163        7.000        0.133      333.787        3.332      863.928
12/24/2014  02:07:00      -18.239      -18.454        5.473       27.662       24.809       24.874      765.193      615.502      618.709        0.135        0.100       25.946       17.631        0.462      333.492        2.842      863.939
12/24/2014  02:08:00       -7.174      -10.366        9.217       20.450       12.772       10.878      418.187      163.124      118.324        0.047        0.035       12.607       12.264        0.946      333.412        2.709      863.896
12/24/2014  02:09:00      -61.046        8.983       -7.675       27.753       12.267        6.712      770.226      150.489       45.050        0.242        0.048       61.703        7.691        0.016      333.530        2.905      863.848
12/24/2014  02:10:00     -116.276      -18.512      -14.143       21.193       16.631       14.192      449.152      276.606      201.419        0.749        0.046      117.740       12.355        0.011      333.379        2.655      863.847
12/24/2014  02:11:00      -87.945      -14.454        1.556       34.996       31.045       18.634     1224.718      963.788      347.243        0.524        0.127       89.124       22.201        0.062      333.331        2.576      863.831
12/24/2014  02:12:00      -31.887        0.386       -3.701       22.158       15.688       12.409      490.964      246.102      153.986        0.096        0.045       31.890       12.499        0.154      333.361        2.626      863.788
12/24/2014  02:13:00      -75.410        3.572      -11.536       27.175       19.851       12.196      738.504      394.082      148.742        0.356        0.064       75.494       13.912        0.034      333.399        2.686      863.755
12/24/2014  02:14:00      -92.226       -3.933      -18.153       16.104       10.642       10.274      259.331      113.242      105.557        0.466        0.024       92.310        7.500        0.007      333.259        2.456      863.711
12/24/2014  02:15:00      -85.001      -19.065      -20.229       13.192       16.154       10.772      174.023      260.947      116.030        0.427        0.028       87.113        9.204        0.011      333.193        2.347      863.678
12/24/2014  02:16:00      -42.567      -37.608      -17.955       31.273       18.521       15.210      977.992      343.038      231.346        0.255        0.078       56.801       13.973        0.061      333.198        2.355      863.657
12/24/2014  02:17:00        4.426      -24.206       -2.794       21.623       22.365       16.120      467.540      500.174      259.850        0.092        0.061       24.607       11.301        0.211      333.312        2.544      863.632
12/24/2014  02:18:00      -22.441      -32.237       -6.801       17.686       19.136       11.787      312.798      366.197      138.930        0.120        0.041       39.279        8.076        0.042      333.468        2.802      863.620
12/24/2014  02:19:00      -74.748      -25.224       -6.678       21.767       23.457       10.445      473.802      550.217      109.091        0.370        0.057       78.890       10.101        0.016      333.275        2.483      863.601
12/24/2014  02:20:00      -82.052      -26.025      -12.130       25.053       15.516        9.238      627.656      240.736       85.337        0.426        0.048       86.080        5.501        0.004      333.224        2.398      863.610
12/24/2014  02:21:00      -23.382      -31.866       -3.102       20.595       12.168       17.420      424.146      148.064      303.451        0.122        0.044       39.524       14.215        0.129      333.218        2.389      863.617
12/24/2014  02:22:00      -77.677      -64.762       -6.002       42.598       19.040       16.002     1814.615      362.518      256.051        0.635        0.122      101.133       17.509        0.030      333.202        2.362      863.628
12/24/2014  02:23:00     -113.305      -44.631       -7.496       24.171       38.314       15.067      584.239     1467.972      227.023        0.858        0.114      121.779       11.633        0.009      333.145        2.269      863.618
12/24/2014  02:24:00      -68.002       -5.509        0.596       38.910       19.136       19.692     1514.011      366.188      387.756        0.346        0.113       68.225       23.691        0.121      333.214        2.381      863.556
12/24/2014  02:25:00      -52.507       -6.131       -6.064       46.939       19.439       12.782     2203.302      377.859      163.378        0.279        0.137       52.863       18.290        0.120      333.416        2.715      863.491
12/24/2014  02:26:00      -97.840      -37.127      -16.328       20.017       21.839       13.785      400.678      476.960      190.029        0.614        0.053      104.647       10.924        0.011      333.349        2.605      863.483
12/24/2014  02:27:00     -106.269      -23.708       -8.345       26.098       24.284       16.464      681.095      589.721      271.079        0.673        0.077      108.882       13.288        0.015      333.221        2.393      863.462
12/24/2014  02:28:00      -97.414        6.087       -8.822       47.042       38.930       22.936     2212.906     1515.529      526.038        0.693        0.213       97.604       24.925        0.065      333.404        2.697      863.412
12/24/2014  02:29:00      -46.445       25.920       -2.735       54.535       29.394       18.654     2974.079      864.010      347.982        0.351        0.209       53.189       25.873        0.237      333.485        2.830      863.359
12/24/2014  02:30:00        5.441      -32.210       -8.508       15.553       19.379       11.392      241.898      375.558      129.767        0.094        0.037       32.666        7.387        0.051      333.490        2.839      863.329
12/24/2014  02:31:00      -52.529      -35.220       -9.946       20.285       16.221       10.686      411.487      263.131      114.194        0.244        0.039       63.244        5.840        0.009      333.445        2.762      863.339
12/24/2014  02:32:00      -55.965      -46.975       -7.353       11.841       14.449        7.697      140.215      208.763       59.246        0.290        0.020       73.066        8.034        0.012      333.266        2.467      863.346
12/24/2014  02:33:00      -63.441      -52.296       -3.174       38.854       32.302       16.932     1509.661     1043.389      286.700        0.480        0.142       82.217       14.415        0.031      333.286        2.501      863.361
12/24/2014  02:34:00     -144.180      -50.201      -11.065       24.843       25.732       17.439      617.190      662.149      304.127        1.251        0.079      152.670       14.153        0.009      333.115        2.219      863.376
12/24/2014  02:35:00      -14.404      -27.873       13.023       51.650       22.002       21.234     2667.727      484.109      450.879        0.238        0.180       31.375       30.080        0.919      333.131        2.243      863.313
12/24/2014  02:36:00       25.114       -6.277       11.835       12.788       11.060       12.439      163.528      122.319      154.717        0.063        0.022       25.886        5.557        0.046      333.078        2.157      863.217
12/24/2014  02:37:00      -20.992      -21.127       -1.722       20.870       13.639        9.292      435.549      186.010       86.341        0.080        0.035       29.783       10.228        0.118      333.330        2.574      863.198
12/24/2014  02:38:00      -57.062      -34.388       -4.108       43.547       18.029       16.134     1896.374      325.040      260.315        0.347        0.124       66.623       14.070        0.045      333.255        2.448      863.232
12/24/2014  02:39:00      -68.294      -33.015      -10.187       13.369       17.451       10.576      178.728      304.542      111.842        0.323        0.030       75.856        8.508        0.013      333.120        2.226      863.240
12/24/2014  02:40:00      -63.178       -2.463       -8.439       12.755        9.690        7.936      162.683       93.888       62.975        0.219        0.016       63.226        6.197        0.010      333.169        2.308      863.210
12/24/2014  02:41:00      -43.119      -21.900      -11.296       12.115       18.635       10.777      146.766      347.257      116.139        0.154        0.031       48.362        8.319        0.030      333.210        2.375      863.211
12/24/2014  02:42:00      -13.479      -29.610       -3.275       23.723       17.626       11.948      562.758      310.669      142.756        0.104        0.051       32.533       10.883        0.112      333.139        2.256      863.213
12/24/2014  02:43:00     -113.454      -11.439      -14.672       40.530       18.039       11.364     1642.651      325.401      129.129        0.766        0.105      114.029       10.764        0.009      333.073        2.149      863.212
12/24/2014  02:44:00     -175.416      -19.194      -14.200       42.678       29.690       23.118     1821.452      881.472      534.432        1.729        0.162      176.463       23.338        0.017      333.008        2.042      863.241
12/24/2014  02:45:00     -114.637      -60.760       -2.306       70.551       54.633       26.771     4977.480     2984.716      716.680        1.276        0.434      129.743       28.911        0.050      332.901        1.865      863.261
12/24/2014  02:46:00      -56.270      -22.368        5.502       29.177       23.234       16.113      851.298      539.832      259.623        0.267        0.083       60.553       17.588        0.084      332.972        1.980      863.232
12/24/2014  02:47:00      -85.343       -3.319       -6.570       31.459       32.091       16.032      989.682     1029.847      257.011        0.481        0.114       85.407       14.206        0.028      333.056        2.121      863.192
12/24/2014  02:48:00     -108.511       -1.857       -2.485       48.425       43.396       26.388     2344.972     1883.179      696.302        0.835        0.246      108.526       26.875        0.061      333.169        2.308      863.179
12/24/2014  02:49:00      -77.144       33.269       -4.890       40.903       36.536       22.278     1673.078     1334.854      496.306        0.529        0.175       84.012       18.139        0.047      333.250        2.440      863.137
12/24/2014  02:50:00      -25.869       17.636        0.804       24.040       25.428       15.569      577.918      646.563      242.387        0.122        0.073       31.309        7.108        0.052      333.241        2.427      863.080
12/24/2014  02:51:00        0.629      -37.739       -6.612       13.348       10.924       13.757      178.180      119.335      189.245        0.098        0.024       37.744        8.210        0.047      333.330        2.573      863.074
12/24/2014  02:52:00      -74.502      -41.778       -5.242       35.162       18.826       18.750     1236.368      354.414      351.555        0.463        0.097       85.416       14.270        0.028      333.128        2.239      863.097
12/24/2014  02:53:00      -95.663      -47.615      -11.422       26.969       29.503       14.415      727.312      870.432      207.801        0.668        0.090      106.857        9.237        0.007      332.965        1.970      863.070
12/24/2014  02:54:00     -103.749       -8.553       -8.090       44.697       28.434       26.284     1997.835      808.516      690.839        0.720        0.175      104.101       26.449        0.065      332.779        1.664      863.014
12/24/2014  02:55:00      -59.162       -3.663       -3.270       27.225       20.081       15.423      741.204      403.256      237.880        0.245        0.069       59.276        9.921        0.028      332.756        1.626      862.966
12/24/2014  02:56:00      -68.178      -14.094      -12.676       18.154       14.769       10.999      329.550      218.133      120.969        0.284        0.033       69.619        9.111        0.017      332.770        1.649      862.946
12/24/2014  02:57:00      -75.321      -26.594      -12.800       23.344       16.223       12.403      544.941      263.201      153.846        0.375        0.048       79.878        5.693        0.005      332.884        1.838      862.987
12/24/2014  02:58:00      -90.534      -21.291      -11.571       15.011       19.112       11.454      225.320      365.284      131.190        0.475        0.036       93.004        7.396        0.006      332.834        1.757      863.030
12/24/2014  02:59:00     -101.715      -27.627      -13.210       25.557       34.876       18.089      653.156     1216.366      327.205        0.674        0.110      105.400       13.504        0.016      332.833        1.755      863.037
12/24/2014  03:00:00      -93.086      -36.587      -13.083       26.198       28.462       16.911      686.353      810.111      285.975        0.598        0.089      100.018        9.709        0.009      332.733        1.588      863.017
12/24/2014  03:01:00      -73.938      -27.845       -9.464       22.870       26.554       14.435      523.038      705.117      208.378        0.388        0.072       79.007        8.055        0.010      332.705        1.542      862.998
12/24/2014  03:02:00      -36.468      -20.915       -3.653       16.726       17.317       13.266      279.749      299.862      175.990        0.127        0.038       42.040        7.800        0.034      332.742        1.600      862.983
12/24/2014  03:03:00      -67.118      -14.337       -9.958       12.043       10.173        9.614      145.033      103.486       92.420        0.258        0.017       68.632        5.332        0.006      332.986        2.007      862.949
12/24/2014  03:04:00      -77.423      -12.482      -15.012       12.934       14.014        9.233      167.292      196.388       85.246        0.341        0.022       78.422        5.258        0.004      332.923        1.901      862.940
12/24/2014  03:05:00      -64.508       -8.327       -9.383       20.818       17.128       13.909      433.404      293.356      193.448        0.262        0.046       65.043       11.796        0.033      332.826        1.741      862.930
12/24/2014  03:06:00       25.207        9.275       -1.662       29.209       11.898        9.953      853.154      141.572       99.072        0.091        0.055       26.859       11.158        0.173      333.420        2.722      862.899
12/24/2014  03:07:00       -9.980       -2.259        7.667       31.098       17.929       12.009      967.092      321.437      144.222        0.080        0.072       10.232       16.124        2.483      333.093        2.184      862.895
12/24/2014  03:08:00     -119.178      -54.719      -23.465       30.887       23.900       16.320      954.033      571.228      266.337        0.977        0.090      131.139       12.604        0.009      332.899        1.863      862.968
12/24/2014  03:09:00      -51.263      -39.239       -1.046       55.415       32.801       22.890     3070.823     1075.895      523.935        0.442        0.234       64.557       20.474        0.101      332.762        1.636      862.997
12/24/2014  03:10:00      -19.863      -20.921        3.242       35.641       20.444       10.549     1270.294      417.972      111.289        0.132        0.090       28.848       13.516        0.219      332.882        1.834      862.938
12/24/2014  03:11:00      -63.101       34.563      -12.638       42.150       18.011       15.215     1776.647      324.410      231.504        0.383        0.117       71.947        6.811        0.009      333.224        2.399      862.871
12/24/2014  03:12:00     -106.928       -1.124        0.135       38.613       51.567       24.725     1490.963     2659.178      611.311        0.810        0.238      106.934       22.981        0.046      332.956        1.958      862.872
12/24/2014  03:13:00      -41.099      -26.266       -7.424       42.214       34.186       19.951     1782.014     1168.697      398.053        0.289        0.167       48.775       20.098        0.170      332.874        1.823      862.848
12/24/2014  03:14:00      -30.244      -24.827       -6.976       17.556       13.271       15.490      308.209      176.120      239.927        0.115        0.036       39.129       10.296        0.069      333.008        2.041      862.847
12/24/2014  03:15:00      -70.201      -36.014      -11.649       25.003       19.838       13.342      625.144      393.528      178.019        0.378        0.060       78.900       14.301        0.033      332.983        2.001      862.854
12/24/2014  03:16:00      -80.100       -9.285       -8.219       22.681       19.597       14.345      514.448      384.041      205.774        0.384        0.055       80.636       13.022        0.026      332.885        1.838      862.823
12/24/2014  03:17:00      -53.495       -0.530       -7.559       23.425       13.359        9.970      548.747      178.459       99.410        0.187        0.041       53.498        5.938        0.012      333.012        2.048      862.766
12/24/2014  03:18:00      -89.274      -22.742      -14.585       29.203       21.088        9.600      852.805      444.684       92.151        0.504        0.069       92.125        8.555        0.009      332.945        1.939      862.758
12/24/2014  03:19:00     -143.861      -60.182      -12.138       34.020       34.843       25.627     1157.333     1214.010      656.730        1.375        0.151      155.942       17.479        0.013      332.746        1.610      862.793
12/24/2014  03:20:00      -69.942      -42.841       -9.293       50.433       29.403       16.133     2543.506      864.515      260.274        0.524        0.183       82.020       14.478        0.031      332.793        1.686      862.789
12/24/2014  03:21:00      -22.900      -21.432       -7.786       21.723        8.526        5.571      471.870       72.685       31.040        0.081        0.029       31.365        6.480        0.043      333.043        2.101      862.739
12/24/2014  03:22:00      -95.744      -25.929      -12.598       29.460       17.534       13.268      867.869      307.456      176.035        0.567        0.068       99.193       14.262        0.021      332.984        2.001      862.718
12/24/2014  03:23:00     -106.390      -11.032      -19.813       28.832       17.499       15.701      831.313      306.218      246.528        0.661        0.069      106.960       15.741        0.022      332.816        1.726      862.687
12/24/2014  03:24:00      -69.994       -9.060      -12.191       32.962       15.903       12.585     1086.518      252.890      158.391        0.331        0.075       70.578       10.857        0.024      332.790        1.682      862.658
12/24/2014  03:25:00      -22.687      -23.125      -10.071       15.925       14.595        9.293      253.606      213.003       86.354        0.085        0.028       32.396        5.976        0.034      332.970        1.979      862.615
12/24/2014  03:26:00      -63.747      -37.814       -8.364       48.953       24.417       11.442     2396.378      596.190      130.922        0.434        0.156       74.119       15.407        0.043      333.007        2.040      862.595
12/24/2014  03:27:00     -169.453      -82.043       -6.292       50.000       54.764       32.212     2499.962     2999.095     1037.638        2.101        0.327      188.269       29.209        0.024      332.763        1.635      862.643
12/24/2014  03:28:00     -184.617       36.333      -16.183       38.200       43.975       22.835     1459.239     1933.799      521.442        1.979        0.196      188.158       20.778        0.012      332.816        1.724      862.661
12/24/2014  03:29:00      -71.481        9.353       -4.073       71.184       19.332       19.811     5067.127      373.724      392.487        0.552        0.292       72.090       31.852        0.195      332.827        1.745      862.575
12/24/2014  03:30:00        7.683       39.725       59.613       22.445       49.010       42.416      503.782     2402.019     1799.123        0.495        0.235       40.461       44.004        1.183      332.955        1.954      862.444
12/24/2014  03:31:00       -1.818       33.851       61.357       34.095       50.016       36.421     1162.439     2501.569     1326.490        0.495        0.250       33.900       39.388        1.350      333.074        2.151      862.405
12/24/2014  03:32:00     -173.878      -57.035      -11.074       75.895       50.980       27.942     5760.117     2598.976      780.759        2.137        0.457      182.993       24.281        0.018      333.138        2.255      862.533
12/24/2014  03:33:00     -186.585      -78.097        2.366       67.198       64.315       34.631     4515.535     4136.369     1199.275        2.538        0.493      202.270       30.141        0.022      332.853        1.784      862.604
12/24/2014  03:34:00      -44.766      -17.152        0.793       48.576       25.597       13.479     2359.663      655.222      181.687        0.275        0.160       47.939       13.219        0.076      332.836        1.760      862.535
12/24/2014  03:35:00      -41.068      -56.830       -7.323       38.346       26.751       17.290     1470.410      715.605      298.950        0.373        0.124       70.116        5.793        0.007      333.017        2.056      862.479
12/24/2014  03:36:00     -153.276     -104.845       -0.892       63.222       42.439       31.162     3996.982     1801.080      971.039        2.063        0.338      185.704       19.048        0.011      333.058        2.123      862.534
12/24/2014  03:37:00     -166.857      -70.070       -2.307       57.918       45.836       29.241     3354.453     2100.908      855.058        1.953        0.316      180.973       24.892        0.019      332.872        1.817      862.594
12/24/2014  03:38:00      -34.795       -6.628        4.575       49.291       33.410       18.443     2429.594     1116.202      340.132        0.258        0.194       35.421       14.609        0.170      332.868        1.811      862.576
12/24/2014  03:39:00        7.621       83.316       74.366       25.530       49.968       33.679      651.804     2496.822     1134.304        0.841        0.214       83.664       20.734        0.061      332.907        1.876      862.416
12/24/2014  03:40:00       -8.798       39.333       47.751       30.424       36.610       32.837      925.607     1340.294     1078.285        0.362        0.167       40.305       21.633        0.288      332.913        1.888      862.304
12/24/2014  03:41:00     -161.633      -10.314      -14.960       64.729       37.218       23.075     4189.814     1385.144      532.473        1.628        0.305      161.961       28.719        0.031      332.960        1.963      862.383
12/24/2014  03:42:00     -174.617      -90.484        3.447      114.497       55.625       35.919    13109.586     3094.140     1290.163        2.809        0.875      196.669       43.202        0.048      332.797        1.690      862.494
12/24/2014  03:43:00     -103.189     -103.074        4.115       61.847       40.772       30.117     3825.050     1662.323      907.020        1.384        0.320      145.850       29.389        0.041      332.813        1.721      862.513
12/24/2014  03:44:00      -17.675     -120.907        0.697       23.130       53.233       15.529      534.996     2833.714      241.156        0.927        0.180      122.192       13.742        0.013      332.939        1.928      862.431
12/24/2014  03:45:00       15.041       32.406       10.847       30.239       25.126       30.904      914.377      631.297      955.039        0.195        0.125       35.727       20.816        0.339      332.882        1.834      862.329
12/24/2014  03:46:00        3.709       -6.714       -1.971       30.279       24.169       12.354      916.827      584.132      152.614        0.086        0.083        7.670        6.865        0.801      332.829        1.748      862.327
12/24/2014  03:47:00     -111.181      -33.683       -8.752       35.186       20.470       12.517     1238.068      419.039      156.680        0.769        0.091      116.171        5.315        0.002      332.953        1.953      862.363
12/24/2014  03:48:00      -77.996      -17.248       -6.202       50.232       16.095       17.964     2523.283      259.048      322.695        0.476        0.155       79.881       22.147        0.077      332.905        1.873      862.342
12/24/2014  03:49:00       -4.825       -8.551        2.156       11.497        7.559       10.895      132.190       57.145      118.710        0.020        0.015        9.818        5.629        0.329      332.912        1.883      862.318
12/24/2014  03:50:00       -9.633      -73.388      -14.016       37.629       27.105       16.545     1415.937      734.674      273.737        0.405        0.121       74.018       13.351        0.033      333.037        2.091      862.358
12/24/2014  03:51:00      -56.897        5.608       -2.793       25.733       17.647       17.594      662.193      311.407      309.535        0.228        0.064       57.173       15.276        0.071      333.001        2.031      862.382
12/24/2014  03:52:00     -107.978       29.545       -8.527       33.817       30.309       21.260     1143.569      918.659      451.990        0.756        0.126      111.947       19.617        0.031      333.072        2.147      862.355
12/24/2014  03:53:00      -89.786        5.280      -15.202       26.591       22.125       14.551      707.104      489.523      211.738        0.486        0.070       89.942       13.118        0.021      332.916        1.890      862.317
12/24/2014  03:54:00      -33.142      -19.470       -3.158       11.774       13.877        5.395      138.620      192.572       29.104        0.092        0.018       38.438        3.780        0.010      332.840        1.765      862.285
12/24/2014  03:55:00      -50.615      -27.449      -10.252       19.476        7.195        6.398      379.323       51.768       40.934        0.195        0.024       57.579        6.478        0.013      332.953        1.951      862.300
12/24/2014  03:56:00     -128.385      -27.776      -12.350       26.958       17.768       13.985      726.746      315.707      195.586        0.932        0.062      131.355        7.357        0.003      332.956        1.956      862.372
12/24/2014  03:57:00      -84.845      -40.799        0.183       43.203       21.834       15.549     1866.460      476.733      241.776        0.572        0.129       94.145       20.327        0.047      332.879        1.829      862.415
12/24/2014  03:58:00       20.845       12.899       16.131       28.220       41.062       28.598      796.347     1686.099      817.847        0.208        0.165       24.513       28.955        1.395      332.923        1.902      862.338
12/24/2014  03:59:00       48.908       25.503        4.070       45.301       20.921       26.943     2052.216      437.691      725.916        0.314        0.161       55.158       21.218        0.148      332.926        1.907      862.234
12/24/2014  04:00:00     -127.629      -14.923      -15.536       51.042       35.788       20.886     2605.273     1280.756      436.233        1.054        0.216      128.498       15.699        0.015      332.886        1.841      862.294
12/24/2014  04:01:00     -178.626      -92.798      -13.544       58.357       34.138       25.289     3405.505     1165.413      639.531        2.296        0.261      201.292       14.105        0.005      332.756        1.623      862.399
12/24/2014  04:02:00      -34.495      -28.498        5.988       52.884       33.764       25.249     2796.742     1140.010      637.487        0.331        0.229       44.744       27.681        0.383      332.797        1.694      862.395
12/24/2014  04:03:00       48.911       38.696       11.827       34.621       18.102       21.427     1198.593      327.693      459.120        0.301        0.099       62.368       15.683        0.063      332.860        1.798      862.290
12/24/2014  04:04:00      109.744       73.344       14.426       19.344       20.453       18.741      374.176      418.330      351.224        0.939        0.057      131.996       15.381        0.014      332.879        1.829      862.191
12/24/2014  04:05:00       88.435       53.794       -4.979       35.589       24.336       20.522     1266.545      592.223      421.143        0.651        0.114      103.511        4.651        0.002      332.889        1.846      862.160
12/24/2014  04:06:00       13.214       20.842       -2.070       34.542       11.362       13.281     1193.149      129.085      176.380        0.106        0.075       24.678       13.712        0.309      332.937        1.924      862.187
12/24/2014  04:07:00      -38.202       13.856       -4.560       16.483       18.885       14.294      271.693      356.639      204.310        0.125        0.042       40.638        8.554        0.044      332.812        1.717      862.153
12/24/2014  04:08:00        2.742      -14.261        2.735       11.289       17.355       13.372      127.448      301.196      178.814        0.041        0.030       14.522       10.505        0.523      332.849        1.782      862.051
12/24/2014  04:09:00       -1.061       25.006       35.774        9.922       25.682       17.969       98.446      659.560      322.894        0.149        0.054       25.028       13.559        0.293      332.918        1.893      861.971
12/24/2014  04:10:00        8.677       43.596       -0.872       27.027       13.165       19.507      730.444      173.311      380.537        0.163        0.064       44.452       18.054        0.165      332.898        1.860      861.967
12/24/2014  04:11:00      -61.477       27.176       -6.715       19.073       11.741       10.361      363.775      137.852      107.357        0.259        0.030       67.216        7.324        0.012      332.947        1.942      861.974
12/24/2014  04:12:00       23.767       48.393       12.151       42.541       32.356       21.715     1809.742     1046.896      471.525        0.319        0.166       53.914       15.799        0.086      332.952        1.949      861.905
12/24/2014  04:13:00       51.839       67.401      -10.064       34.274       44.421       22.997     1174.703     1973.190      528.879        0.550        0.184       85.031       20.259        0.057      332.916        1.891      861.796
12/24/2014  04:14:00        5.871       19.636       -8.139       30.810       37.165       16.732      949.275     1381.256      279.947        0.155        0.131       20.495       17.390        0.720      332.917        1.891      861.819
12/24/2014  04:15:00      -61.555        0.376       -2.941       42.664       48.592       17.889     1820.181     2361.163      320.018        0.415        0.225       61.556       13.739        0.050      332.946        1.941      861.892
12/24/2014  04:16:00      -82.188      -36.271       -5.368       32.455       21.098       13.689     1053.299      445.140      187.387        0.489        0.084       89.836       15.714        0.031      332.867        1.810      861.899
12/24/2014  04:17:00       71.743       44.485       17.842       63.695       35.607       13.082     4056.993     1267.855      171.139        0.647        0.275       84.415       22.296        0.070      332.937        1.926      861.792
12/24/2014  04:18:00       82.647       48.973       29.440       72.548       38.092       35.362     5263.198     1450.994     1250.487        0.903        0.398       96.067       26.974        0.079      333.012        2.048      861.686
12/24/2014  04:19:00      -81.687      -34.649       -4.333       66.228       29.727       25.270     4386.102      883.685      638.570        0.690        0.295       88.731       16.660        0.035      333.097        2.189      861.777
12/24/2014  04:20:00     -171.694      -52.177       -8.941       52.846       62.988       30.002     2792.651     3967.435      900.110        1.997        0.383      179.447       26.210        0.021      333.008        2.040      861.865
12/24/2014  04:21:00     -121.718      -14.865       -8.536       53.534       47.379       28.304     2865.867     2244.744      801.097        1.051        0.296      122.622       20.965        0.029      332.910        1.880      861.865
12/24/2014  04:22:00      -32.780       -4.705       -3.059       18.553       15.078       13.578      344.204      227.335      184.352        0.093        0.038       33.116       10.208        0.095      332.944        1.934      861.810
12/24/2014  04:23:00       -4.293       21.148        1.686       14.524       14.600       13.802      210.946      213.163      190.503        0.054        0.031       21.579       10.242        0.225      333.084        2.165      861.780
12/24/2014  04:24:00       40.180       49.594       29.727       18.578       14.483       15.605      345.124      209.754      243.507        0.288        0.040       63.828       10.143        0.025      333.088        2.174      861.742
12/24/2014  04:25:00       26.015       52.108       -7.857       28.982       16.725       12.314      839.952      279.739      151.626        0.236        0.064       58.241       13.874        0.057      333.124        2.233      861.699
12/24/2014  04:26:00      -42.828       17.142      -10.329       54.367       58.447       17.728     2955.796     3416.088      314.268        0.446        0.334       46.131       16.747        0.132      333.126        2.235      861.721
12/24/2014  04:27:00     -173.852      -84.804      -13.204       55.769       45.802       29.020     3110.154     2097.791      842.159        2.182        0.303      193.433       14.223        0.005      332.936        1.921      861.811
12/24/2014  04:28:00     -116.461      -43.294       -8.189       47.407       34.863       20.574     2247.380     1215.461      423.303        0.969        0.194      124.248       19.469        0.025      332.936        1.923      861.866
12/24/2014  04:29:00       -6.572       23.705       16.461       30.124       23.216       18.581      907.460      538.976      345.249        0.133        0.090       24.599       18.256        0.551      332.896        1.859      861.773
12/24/2014  04:30:00      -47.811       21.173      -12.494       52.965       51.572       18.603     2805.304     2659.644      346.081        0.435        0.291       52.289       20.236        0.150      333.086        2.170      861.733
12/24/2014  04:31:00     -120.742      -63.970       -3.197       75.375       28.464       25.711     5681.405      810.196      661.073        1.292        0.358      136.641       36.603        0.072      332.984        2.003      861.796
12/24/2014  04:32:00       24.198        3.354       25.520       34.899       36.125       26.470     1217.936     1305.018      700.655        0.224        0.161       24.429       16.245        0.442      333.062        2.132      861.795
12/24/2014  04:33:00       53.937       71.940       49.533       68.429       49.168       46.679     4682.539     2417.538     2178.909        0.991        0.464       89.914       38.056        0.179      333.094        2.183      861.686
12/24/2014  04:34:00       11.461       29.509       -0.949       55.393       13.015       12.095     3068.367      169.377      146.294        0.219        0.169       31.657       18.753        0.351      333.159        2.292      861.647
12/24/2014  04:35:00     -141.106      -34.587      -18.536       53.490       34.187       14.114     2861.133     1168.765      199.201        1.284        0.211      145.283       14.615        0.010      333.120        2.226      861.719
12/24/2014  04:36:00      -61.487      -53.619       -0.250       75.928       58.887       28.037     5764.987     3467.718      786.058        0.834        0.501       81.582       26.780        0.108      333.139        2.258      861.811
12/24/2014  04:37:00        4.211        0.158        8.155       19.600       22.121       16.120      384.178      489.343      259.857        0.061        0.057        4.214       16.234       14.841      333.160        2.292      861.771
12/24/2014  04:38:00       -3.073       17.472       -5.890       18.166       14.628       10.627      330.009      213.979      112.927        0.050        0.033       17.740        6.997        0.156      333.144        2.267      861.665
12/24/2014  04:39:00     -102.010      -24.957      -11.999       31.664       23.188        8.865     1002.594      537.703       78.586        0.640        0.081      105.019        5.370        0.003      333.149        2.275      861.663
12/24/2014  04:40:00      -70.877      -37.568        1.402       50.096       24.663       19.128     2509.634      608.245      365.894        0.496        0.174       80.218       17.344        0.047      333.054        2.120      861.710
12/24/2014  04:41:00      -84.195      -41.928       -1.411       46.129       31.411       21.931     2127.853      986.673      480.981        0.622        0.180       94.057       22.201        0.056      333.083        2.167      861.707
12/24/2014  04:42:00     -111.628      -59.869       -1.875       48.973       35.311       22.197     2398.374     1246.863      492.726        1.009        0.207      126.669       16.528        0.017      333.065        2.137      861.700
12/24/2014  04:43:00      -11.526      -27.262        8.747       26.002       27.108       18.752      676.114      734.836      351.628        0.136        0.088       29.598       12.200        0.170      333.244        2.431      861.640
12/24/2014  04:44:00        8.033       19.963       32.095       23.708       29.607       29.439      562.077      876.570      866.682        0.190        0.115       21.519       25.532        1.408      333.228        2.405      861.553
12/24/2014  04:45:00       -0.673      -59.115       -3.709       31.886       33.829       23.289     1016.688     1144.418      542.364        0.311        0.135       59.119       13.947        0.056      333.476        2.816      861.598
12/24/2014  04:46:00      -48.880      -59.177        5.139       34.093       43.742       32.123     1162.353     1913.332     1031.857        0.501        0.205       76.753       29.056        0.143      333.422        2.724      861.666
12/24/2014  04:47:00        1.535       42.421        2.648       40.755       36.899       20.046     1660.936     1361.548      401.845        0.262        0.171       42.449       26.011        0.375      333.403        2.694      861.629
12/24/2014  04:48:00       49.132       22.775       -0.966       30.693       34.269       22.516      942.062     1174.352      506.959        0.278        0.131       54.154       16.858        0.097      333.311        2.543      861.560
12/24/2014  04:49:00       16.880      -38.896       20.351       35.185       41.035       28.177     1237.999     1683.867      793.935        0.296        0.186       42.401       17.762        0.175      333.456        2.782      861.588
12/24/2014  04:50:00        9.374      -12.559       14.656       30.506       31.483       24.114      930.607      991.196      581.485        0.148        0.125       15.671       18.032        1.324      333.517        2.883      861.665
12/24/2014  04:51:00       31.673       44.455       16.545       16.893       29.202       27.692      285.381      852.769      766.855        0.258        0.095       54.585       13.265        0.059      333.380        2.658      861.599
12/24/2014  04:52:00       43.629       36.958       18.779       19.108       15.972       19.952      365.097      255.093      398.069        0.232        0.051       57.178        7.475        0.017      333.318        2.555      861.529
12/24/2014  04:53:00      -49.219       25.442       -8.652       51.964       13.520       13.875     2700.241      182.799      192.525        0.311        0.154       55.406       10.062        0.033      333.392        2.676      861.555
12/24/2014  04:54:00     -151.254       13.312      -14.943       31.886       20.650       16.748     1016.747      426.439      280.503        1.250        0.086      151.839       13.920        0.008      333.225        2.399      861.588
12/24/2014  04:55:00       -3.452       16.408       11.736       41.634       25.959       21.092     1733.422      673.848      444.862        0.163        0.143       16.767       15.996        0.910      333.190        2.342      861.527
12/24/2014  04:56:00       43.126       27.145       -2.886       18.259       24.322       17.814      333.389      591.581      317.325        0.192        0.062       50.958        9.992        0.038      333.203        2.364      861.484
12/24/2014  04:57:00      -47.141       -0.306      -14.495       48.524       36.235       12.890     2354.607     1312.967      166.147        0.313        0.192       47.142       19.644        0.174      333.216        2.385      861.559
12/24/2014  04:58:00      -15.940       14.628       10.503       32.965       18.760       19.432     1086.717      351.934      377.589        0.120        0.091       21.635       21.033        0.945      333.146        2.269      861.581
12/24/2014  04:59:00       27.488       33.587       -2.128       18.158       15.252       12.455      329.716      232.633      155.136        0.130        0.036       43.401        7.878        0.033      333.195        2.350      861.508
12/24/2014  05:00:00      -34.373       43.785       -8.459       24.881       26.991       12.340      619.053      728.541      152.275        0.233        0.075       55.665       12.830        0.053      333.199        2.357      861.491
12/24/2014  05:01:00      -92.173      -23.264      -13.102       19.777       27.188       14.156      391.142      739.213      200.390        0.527        0.067       95.064        9.267        0.010      333.093        2.182      861.487
12/24/2014  05:02:00      -70.928      -40.743       -0.813       58.972       36.256       15.483     3477.730     1314.485      239.718        0.586        0.252       81.798       23.570        0.083      333.135        2.250      861.510
12/24/2014  05:03:00      -53.272      -38.413        3.098       43.246       26.725       18.424     1870.258      714.220      339.438        0.362        0.146       65.677       19.060        0.084      333.211        2.376      861.524
12/24/2014  05:04:00       31.158       19.172        2.854       13.847       26.014       17.002      191.734      676.737      289.063        0.125        0.058       36.584       12.443        0.116      333.232        2.411      861.416
12/24/2014  05:05:00       22.660       22.407       25.935       23.031       18.981       13.130      530.449      360.289      172.397        0.138        0.053       31.868       10.228        0.103      333.287        2.501      861.310
12/24/2014  05:06:00        8.266       18.872        3.366       14.860       10.863       13.127      220.819      117.995      172.311        0.047        0.026       20.603       10.264        0.248      333.371        2.642      861.338
12/24/2014  05:07:00      -72.737       16.413      -11.927       26.455       16.864       11.008      699.848      284.399      121.174        0.340        0.055       74.565        7.477        0.010      333.341        2.591      861.406
12/24/2014  05:08:00     -114.853      -31.605      -13.052       24.696       27.612       14.431      609.872      762.419      208.246        0.797        0.079      119.122       10.158        0.007      333.159        2.291      861.401
12/24/2014  05:09:00     -122.303       28.360       -9.195       40.978       25.464       20.176     1679.233      648.402      407.087        0.929        0.137      125.548       20.557        0.027      333.200        2.358      861.322
12/24/2014  05:10:00      -43.498       55.282      -10.502       17.292       18.027       11.505      299.029      324.985      132.373        0.291        0.038       70.343        7.761        0.012      333.404        2.696      861.231
12/24/2014  05:11:00      -37.387       59.936      -11.356       32.384       31.144       14.048     1048.747      969.965      197.338        0.367        0.111       70.641        8.789        0.015      333.528        2.901      861.222
12/24/2014  05:12:00      -23.954       -3.893      -12.835       14.770       16.151        7.465      218.150      260.842       55.724        0.064        0.027       24.269        6.517        0.072      333.410        2.707      861.251
12/24/2014  05:13:00        3.425      -30.474       -2.094       16.157       15.486       10.277      261.062      239.812      105.607        0.078        0.030       30.666        7.512        0.060      333.437        2.752      861.277
12/24/2014  05:14:00       -5.345      -22.717       25.971       18.092       49.551       27.983      327.332     2455.279      783.070        0.239        0.178       23.337       27.543        1.393      333.384        2.663      861.278
12/24/2014  05:15:00      -18.034      -39.499      -19.592       44.310       49.781       15.710     1963.333     2478.160      246.811        0.348        0.234       43.421       20.252        0.218      333.444        2.762      861.253
12/24/2014  05:16:00     -102.490       15.414       -5.312       52.122       31.689       21.346     2716.657     1004.194      455.653        0.747        0.209      103.643       20.183        0.038      333.264        2.464      861.221
12/24/2014  05:17:00      -55.185      -13.724       -0.573       55.543       22.201       20.069     3085.013      492.864      402.746        0.361        0.199       56.866       25.353        0.199      333.057        2.122      861.184
12/24/2014  05:18:00       44.718       92.610       81.387       52.933       57.532       51.457     2801.866     3309.977     2647.862        1.298        0.438      102.841       47.202        0.211      333.252        2.445      861.049
12/24/2014  05:19:00       -7.171       78.832      113.283       44.185       56.191       37.462     1952.357     3157.467     1403.415        1.280        0.326       79.157       35.467        0.201      333.422        2.725      860.943
12/24/2014  05:20:00      -58.014       39.475        1.584       68.931       39.729       36.987     4751.504     1578.400     1368.013        0.631        0.385       70.171       45.891        0.428      333.332        2.578      860.969
12/24/2014  05:21:00      -85.177       11.142      -13.740       56.379       32.022       24.208     3178.630     1025.401      586.008        0.618        0.240       85.903       27.408        0.102      333.175        2.317      861.037
12/24/2014  05:22:00       46.684       40.746       27.185       26.769       24.926       35.843      716.582      621.311     1284.724        0.360        0.131       61.965       12.216        0.039      333.174        2.317      861.058
12/24/2014  05:23:00       -7.772      -33.398        2.308       49.148       57.559       43.405     2415.511     3313.002     1884.011        0.440        0.381       34.291       41.902        1.493      333.298        2.520      861.144
12/24/2014  05:24:00      -80.539       -8.541        7.131       42.611       36.934       22.572     1815.682     1364.137      509.513        0.515        0.184       80.991        9.640        0.014      333.336        2.585      861.195
12/24/2014  05:25:00      -52.822       21.837       -0.817       30.607       39.755       23.836      936.802     1580.485      568.159        0.318        0.154       57.158       14.866        0.068      333.243        2.428      861.113
12/24/2014  05:26:00       48.301       67.481       -0.976       45.006       26.335       21.048     2025.556      693.546      443.012        0.502        0.158       82.986       19.500        0.055      333.342        2.593      860.968
12/24/2014  05:27:00      125.112       52.054        4.510       45.469       33.645       26.758     2067.460     1131.965      715.994        1.115        0.196      135.508       16.194        0.014      333.246        2.433      860.861
12/24/2014  05:28:00       25.044       23.906       -2.023       37.884       17.190       17.475     1435.234      295.490      305.370        0.162        0.102       34.622       20.470        0.350      333.179        2.323      860.897
12/24/2014  05:29:00      -22.480       17.055        2.561       23.396       12.283       13.626      547.390      150.871      185.657        0.084        0.044       28.217       14.776        0.274      333.200        2.358      860.996
12/24/2014  05:30:00       75.728       57.891       29.918       34.503       34.895       33.775     1190.448     1217.630     1140.739        0.676        0.177       95.321       25.678        0.073      333.203        2.363      860.991
12/24/2014  05:31:00       13.479       76.180       75.587       43.219       37.998       28.199     1867.877     1443.831      795.202        0.790        0.205       77.364       21.680        0.079      333.159        2.292      860.934
12/24/2014  05:32:00        2.639       14.304       19.707       13.497       19.371       18.183      182.167      375.230      330.626        0.074        0.044       14.545       14.275        0.963      333.085        2.169      860.956
12/24/2014  05:33:00      -76.129       55.253      -12.590       23.777       30.066       17.214      565.333      903.947      296.311        0.539        0.088       94.067        8.760        0.009      333.192        2.345      861.030
12/24/2014  05:34:00        7.450       58.439        0.312       61.371       23.511       22.473     3766.427      552.768      505.042        0.415        0.241       58.912       22.945        0.152      333.163        2.299      861.012
12/24/2014  05:35:00      100.509       86.073       26.699       40.798       32.700       41.369     1664.470     1069.264     1711.369        1.133        0.222      132.327       34.987        0.070      333.083        2.166      860.951
12/24/2014  05:36:00       15.638       46.033       54.321       31.726       54.586       38.195     1006.510     2979.672     1458.847        0.538        0.272       48.616       41.821        0.740      333.112        2.213      860.958
12/24/2014  05:37:00     -173.214      -35.024      -14.117       72.660       91.587       27.884     5279.457     8388.146      777.539        2.293        0.722      176.719       10.256        0.003      333.131        2.245      861.072
12/24/2014  05:38:00     -166.393     -116.174       10.626      129.446       86.163       41.645    16756.262     7424.101     1734.313        3.360        1.296      202.936       56.126        0.076      333.135        2.249      861.215
12/24/2014  05:39:00       96.600       34.632       21.415      135.055      122.984       39.803    18239.973    15125.174     1584.246        2.296        1.747      102.621       53.124        0.268      333.330        2.570      861.034
12/24/2014  05:40:00      113.513      155.228      124.477      107.505       89.932       82.046    11557.279     8087.781     6731.591        3.942        1.319      192.304       81.993        0.182      333.328        2.569      860.671
12/24/2014  05:41:00     -142.448       21.457        1.787      156.428       73.313       66.143    24469.797     5374.733     4374.860        2.748        1.711      144.055       78.788        0.299      333.296        2.518      860.755
12/24/2014  05:42:00     -156.969       90.501      -18.573       73.653      111.856       52.628     5424.768    12511.776     2769.669        2.694        1.035      181.190       48.421        0.071      333.241        2.423      860.843
12/24/2014  05:43:00      132.630      108.551       37.806      109.547       96.058       76.640    12000.530     9227.153     5873.764        2.895        1.355      171.388       69.234        0.163      333.339        2.586      860.771
12/24/2014  05:44:00      320.938      141.781       99.572       95.551       78.642       62.789     9130.069     6184.548     3942.415        7.613        0.963      350.860       44.271        0.016      333.513        2.873      860.562
12/24/2014  05:45:00       22.973       21.986       13.953      144.165       87.667       32.560    20783.502     7685.422     1060.131        1.536        1.476       31.798       30.202        0.902      333.657        3.114      860.592
12/24/2014  05:46:00     -170.277      -28.316      -15.857       82.557       68.615       40.122     6815.598     4707.980     1609.794        2.159        0.657      172.616       39.724        0.053      333.507        2.866      860.727
12/24/2014  05:47:00     -132.305       -1.962      -22.775       75.700       78.727       31.065     5730.504     6197.866      965.042        1.546        0.645      132.320       24.627        0.035      333.319        2.554      860.724
12/24/2014  05:48:00      -43.231      100.596      -22.825       46.806       41.648       23.370     2190.827     1734.577      546.136        0.849        0.224      109.492       24.167        0.049      333.531        2.906      860.565
12/24/2014  05:49:00      -62.253       66.221      -14.090       36.958       65.886       19.559     1365.885     4340.980      382.544        0.727        0.304       90.888       15.301        0.028      333.572        2.974      860.553
12/24/2014  05:50:00     -133.153      -20.777      -14.890       29.342       30.632       18.337      860.928      938.336      336.252        1.026        0.107      134.765       14.031        0.011      333.472        2.807      860.671
12/24/2014  05:51:00     -159.187        2.232      -21.704       24.121       27.363       17.267      581.811      748.754      298.138        1.372        0.081      159.203       12.873        0.007      333.375        2.649      860.729
12/24/2014  05:52:00     -101.049        4.652       -7.595       42.898       40.707       25.070     1840.221     1657.084      628.484        0.721        0.206      101.156       21.100        0.044      333.365        2.631      860.666
12/24/2014  05:53:00      -75.504       26.563      -10.190       60.437       36.764       25.600     3652.626     1351.592      655.354        0.608        0.283       80.040       27.033        0.114      333.264        2.463      860.633
12/24/2014  05:54:00      -19.284       59.394       -6.703       24.396       42.752       22.287      595.166     1827.709      496.719        0.343        0.146       62.446       10.102        0.026      333.287        2.502      860.613
12/24/2014  05:55:00      -68.469       33.616      -11.267       25.343       37.193       17.401      642.284     1383.320      302.793        0.414        0.116       76.276       15.765        0.043      333.391        2.674      860.577
12/24/2014  05:56:00      -77.449      -36.311      -13.104       44.635       26.042       14.817     1992.254      678.181      219.552        0.519        0.144       85.538       16.329        0.036      333.327        2.570      860.596
12/24/2014  05:57:00      -24.959       54.971      -10.006       26.778       19.396       12.604      717.040      376.201      158.857        0.250        0.063       60.372       12.035        0.040      333.452        2.775      860.505
12/24/2014  05:58:00       11.993        2.810       -3.720       19.395       12.885        9.859      376.160      166.024       97.195        0.040        0.032       12.318        5.769        0.219      333.448        2.767      860.466
12/24/2014  05:59:00      -26.866       28.223       -1.376       23.205       36.932       15.711      538.468     1363.980      246.840        0.183        0.107       38.966       12.549        0.104      333.509        2.869      860.483
12/24/2014  06:00:00       69.680       59.375       13.828       39.923       26.040       24.853     1593.884      678.082      617.693        0.573        0.144       91.546       14.940        0.027      333.658        3.116      860.443
12/24/2014  06:01:00       81.809       29.972        8.184       45.661       33.085       22.900     2084.965     1094.631      524.424        0.568        0.185       87.126       25.648        0.087      333.463        2.792      860.440
12/24/2014  06:02:00        7.400      -19.848        2.214       20.626       28.336       16.557      425.419      802.956      274.149        0.098        0.075       21.182       11.824        0.312      333.547        2.934      860.507
12/24/2014  06:03:00        8.654      -12.972        0.967       15.601       16.693       13.993      243.406      278.641      195.817        0.048        0.036       15.594        4.275        0.075      333.631        3.073      860.498
12/24/2014  06:04:00      -14.035      -41.428       -1.666       39.891       42.464       32.279     1591.280     1803.187     1041.965        0.318        0.222       43.741       11.073        0.064      333.609        3.037      860.565
12/24/2014  06:05:00      -89.111     -153.072        7.438       90.801       96.532       48.545     8244.803     9318.335     2356.590        2.567        0.996      177.121       39.781        0.050      333.498        2.848      860.619
12/24/2014  06:06:00       87.363       31.937       50.751      102.334      115.917       51.310    10472.326    13436.816     2632.688        1.888        1.327       93.018       58.419        0.394      333.505        2.862      860.453
12/24/2014  06:07:00       18.209       58.674       -7.705       91.393       75.814       42.499     8352.713     5747.829     1806.180        0.987        0.795       61.435       26.799        0.190      333.514        2.877      860.287
12/24/2014  06:08:00     -141.225      -35.973      -15.775       65.121       55.140       29.514     4240.803     3040.458      871.067        1.482        0.408      145.735       20.155        0.019      333.440        2.755      860.415
12/24/2014  06:09:00      -13.423        6.542       -1.239       37.087       31.922       17.424     1375.453     1019.016      303.582        0.146        0.135       14.932       12.935        0.750      333.338        2.587      860.406
12/24/2014  06:10:00       24.845       68.407        0.611       24.950       17.082       23.367      622.484      291.800      546.002        0.338        0.073       72.779       15.672        0.046      333.416        2.714      860.379
12/24/2014  06:11:00      -59.093       28.988      -15.414       30.871       51.628       13.979      952.994     2665.488      195.414        0.419        0.191       65.820       17.780        0.073      333.504        2.862      860.405
12/24/2014  06:12:00      -68.575      -49.496       -0.088       78.756       28.130       20.906     6202.473      791.272      437.051        0.729        0.372       84.572       30.543        0.130      333.364        2.630      860.409
12/24/2014  06:13:00      -18.445      -39.601        3.206       20.820       22.595       16.481      433.460      510.512      271.607        0.157        0.061       43.686        9.712        0.049      333.524        2.896      860.358
12/24/2014  06:14:00      -22.186       -3.309        7.087       24.992       20.670       13.137      624.617      427.242      172.584        0.089        0.061       22.431       15.158        0.457      333.509        2.871      860.334
12/24/2014  06:15:00     -136.712       41.123       -9.908       74.144       36.337       25.678     5497.283     1320.378      659.373        1.398        0.374      142.763       31.165        0.048      333.675        3.143      860.272
12/24/2014  06:16:00      -74.188      -35.558      -14.971       57.390       42.167       23.747     3293.564     1778.033      563.929        0.631        0.282       82.269       20.258        0.061      333.341        2.590      860.282
12/24/2014  06:17:00     -115.908     -102.157      -10.595       84.587       49.482       30.465     7154.918     2448.448      928.130        1.726        0.527      154.501       29.465        0.036      333.459        2.786      860.381
12/24/2014  06:18:00     -150.911      -24.910       -9.128       52.602       48.927       25.052     2766.973     2393.870      627.591        1.463        0.289      152.953       25.741        0.028      333.421        2.723      860.311
12/24/2014  06:19:00     -114.774      -38.612      -14.460       34.398       28.449       17.941     1183.209      809.342      321.881        0.859        0.116      121.094       18.165        0.023      333.373        2.646      860.265
12/24/2014  06:20:00        1.089      -34.198       14.065       21.212       29.687       10.228      449.943      881.302      104.615        0.140        0.072       34.216        6.425        0.035      333.616        3.048      860.281
12/24/2014  06:21:00      -53.098       17.712        2.568       34.818       12.744       12.520     1212.275      162.417      156.756        0.234        0.077       55.974       15.923        0.081      333.571        2.972      860.249
12/24/2014  06:22:00     -105.866      -18.641       -2.437       45.530       39.301       22.172     2072.963     1544.534      491.597        0.783        0.205      107.495       25.016        0.054      333.409        2.705      860.220
12/24/2014  06:23:00      -34.939      -29.917       11.301       37.700       27.812       23.633     1421.277      773.491      558.504        0.250        0.138       45.997       21.811        0.225      333.331        2.576      860.244
12/24/2014  06:24:00      -62.149      -53.040        6.011       38.471       25.522       21.767     1480.002      651.356      473.822        0.466        0.130       81.705       15.747        0.037      333.318        2.554      860.271
12/24/2014  06:25:00       12.838       32.128       -0.970       25.429       34.837       21.197      646.612     1213.587      449.294        0.175        0.115       34.598       11.033        0.102      333.392        2.675      860.203
12/24/2014  06:26:00      -55.407       -3.758       -7.405       42.150       25.966       17.504     1776.617      674.217      306.377        0.295        0.138       55.535       13.052        0.055      333.466        2.801      860.209
12/24/2014  06:27:00      -69.463       -4.984       -7.020       46.450       19.105       17.774     2157.618      365.020      315.926        0.387        0.142       69.641       20.356        0.085      333.275        2.482      860.156
12/24/2014  06:28:00     -121.245      -48.135      -14.263       50.558       21.214       12.031     2556.121      450.035      144.745        1.019        0.158      130.451       15.954        0.015      333.299        2.522      860.129
12/24/2014  06:29:00      -51.261      -45.337       -3.368       97.783       29.376       18.995     9561.418      862.942      360.808        0.774        0.539       68.433        4.131        0.004      333.346        2.601      860.137
12/24/2014  06:30:00      -24.699        0.127       10.081       19.067       26.601       18.374      363.550      707.594      337.607        0.106        0.070       24.699        9.704        0.154      333.361        2.625      860.110
12/24/2014  06:31:00      -38.751        8.905       -5.553       29.542       15.900        9.455      872.751      252.803       89.392        0.141        0.061       39.761        5.889        0.022      333.394        2.679      860.155
12/24/2014  06:32:00      -28.880       -8.614        2.459       18.539       17.406        6.220      343.681      302.980       38.685        0.080        0.034       30.137        8.783        0.085      333.388        2.669      860.117
12/24/2014  06:33:00      -85.510      -37.716       -4.512       27.577       21.977       13.121      760.475      482.990      172.166        0.508        0.071       93.458        7.986        0.007      333.327        2.569      860.098
12/24/2014  06:34:00      -35.871       27.398        5.358       44.129       28.898       18.833     1947.378      835.116      354.688        0.260        0.157       45.138       24.975        0.306      333.250        2.439      860.069
12/24/2014  06:35:00      -39.741       38.352       -0.281       63.120       28.511       23.947     3984.116      812.854      573.457        0.421        0.269       55.229       29.709        0.289      333.297        2.520      860.044
12/24/2014  06:36:00     -104.207       -7.484       -9.977       41.903       29.052       22.230     1755.862      843.995      494.188        0.705        0.155      104.475       20.004        0.037      333.158        2.288      860.056
12/24/2014  06:37:00      -62.563       31.153      -11.200       19.869       16.182       13.109      394.757      261.856      171.851        0.292        0.041       69.890       11.248        0.026      333.142        2.263      860.015
12/24/2014  06:38:00      -15.610        1.139       -9.564       20.120       32.733        7.189      404.797     1071.451       51.679        0.093        0.076       15.651       11.151        0.508      333.459        2.787      859.982
12/24/2014  06:39:00      -53.082      -48.970        6.427       62.910       38.543       23.988     3957.665     1485.565      575.433        0.564        0.301       72.220       23.831        0.109      333.192        2.346      860.021
12/24/2014  06:40:00      -77.748      -36.880       -8.113       23.268       21.263       14.134      541.390      452.104      199.778        0.433        0.060       86.052        9.132        0.011      333.113        2.215      860.012
12/24/2014  06:41:00     -158.639      -43.133      -11.027       41.858       25.649       21.015     1752.055      657.858      441.641        1.500        0.143      164.398       22.859        0.019      333.118        2.222      860.004
12/24/2014  06:42:00      -19.672       -0.735        5.603       46.305       17.126       11.149     2144.149      293.307      124.291        0.149        0.128       19.686       16.463        0.699      333.076        2.154      859.960
12/24/2014  06:43:00      -89.579       38.493       -5.489       50.305       25.616       21.259     2530.544      656.180      451.939        0.659        0.182       97.499       21.405        0.048      333.348        2.604      859.913
12/24/2014  06:44:00      -91.268       22.162      -12.396       36.570       23.832       15.909     1337.333      567.946      253.106        0.557        0.108       93.921       11.006        0.014      333.350        2.607      859.930
12/24/2014  06:45:00      -21.561       12.526      -14.530       18.132       34.383       11.426      328.762     1182.164      130.563        0.124        0.082       24.936       13.449        0.291      333.567        2.967      859.906
12/24/2014  06:46:00     -105.828      -43.698      -12.416       24.695       22.343       12.329      609.867      499.189      152.005        0.726        0.063      114.495        7.996        0.005      333.231        2.409      859.907
12/24/2014  06:47:00      -45.478      -12.648       -5.399       28.430       17.700       17.809      808.286      313.292      317.154        0.185        0.072       47.204       18.678        0.157      333.235        2.415      859.899
12/24/2014  06:48:00      -84.364      -42.729       -3.265       43.633       21.062       14.114     1903.881      443.609      199.200        0.575        0.127       94.567       15.167        0.026      333.049        2.110      859.925
12/24/2014  06:49:00     -151.422      -59.414       -8.110       33.389       24.741       19.287     1114.857      612.141      371.999        1.431        0.105      162.661       13.607        0.007      333.035        2.087      859.974
12/24/2014  06:50:00      -34.698      -16.610       13.098       54.025       21.863       16.813     2918.752      477.983      282.665        0.266        0.184       38.469       18.183        0.223      333.033        2.083      859.931
12/24/2014  06:51:00      -37.711      -18.000        1.070       22.592       12.086       14.208      510.388      146.066      201.853        0.130        0.043       41.787       14.629        0.123      333.039        2.093      859.834
12/24/2014  06:52:00      -49.655      -18.556       -5.959       10.201       13.230        9.351      104.061      175.039       87.449        0.161        0.018       53.009        8.064        0.023      333.077        2.156      859.777
12/24/2014  06:53:00      -17.474       -7.994        1.072       18.109       10.659        5.873      327.932      113.625       34.488        0.042        0.024       19.216        5.501        0.082      333.097        2.190      859.753
12/24/2014  06:54:00      -99.370       37.474       -5.034       27.289       27.790       18.070      744.670      772.289      326.516        0.657        0.092      106.201       14.768        0.019      333.438        2.753      859.759
12/24/2014  06:55:00      -43.747        8.978        2.327       43.930       49.364       27.396     1929.882     2436.840      750.565        0.356        0.256       44.659       23.999        0.289      333.171        2.311      859.773
12/24/2014  06:56:00       11.574       21.889       26.545       24.909       29.190       36.538      620.452      852.054     1334.989        0.206        0.140       24.761       27.064        1.195      333.342        2.595      859.741
12/24/2014  06:57:00       -1.519      -47.964       11.699       28.490       65.903       51.676      811.668     4343.235     2670.398        0.513        0.391       47.988       53.741        1.254      333.349        2.604      859.792
12/24/2014  06:58:00      -11.108       22.741       -5.033       26.703       44.863       14.239      713.054     2012.692      202.742        0.180        0.146       25.309       13.963        0.304      333.483        2.826      859.750
12/24/2014  06:59:00        5.126       79.255      -10.239       16.189       32.289       17.087      262.076     1042.596      291.975        0.400        0.080       79.421       20.438        0.066      333.375        2.647      859.611
12/24/2014  07:00:00        7.272       37.041      -10.108        7.919       29.297        7.872       62.710      858.341       61.961        0.125        0.049       37.748       12.544        0.110      333.281        2.495      859.598
12/24/2014  07:01:00        4.687      -37.705      -14.693       22.811       40.721       17.299      520.358     1658.191      299.259        0.207        0.124       37.996       14.467        0.145      333.385        2.665      859.670
12/24/2014  07:02:00      -55.596      -18.335       -7.995       22.838       13.782        9.323      521.572      189.950       86.918        0.214        0.040       58.541        6.832        0.014      333.301        2.524      859.734
12/24/2014  07:03:00      -59.608       -3.427       -3.794       14.295       13.987       11.234      204.342      195.636      126.200        0.205        0.026       59.707        6.136        0.011      333.302        2.527      859.699
12/24/2014  07:04:00      -71.173      -14.770       -9.632       26.785       19.932       11.919      717.416      397.291      142.073        0.332        0.063       72.689       12.574        0.030      333.244        2.431      859.658
12/24/2014  07:05:00      -84.493      -11.199       -8.293       26.903       19.144       13.221      723.775      366.507      174.798        0.430        0.063       85.232       11.419        0.018      333.264        2.463      859.612
12/24/2014  07:06:00        2.980        5.205       19.202       27.281       36.020       28.546      744.231     1297.405      814.894        0.163        0.143        5.997       28.784       23.034      333.307        2.535      859.547
12/24/2014  07:07:00       12.032       98.878       99.531       43.927       36.542       27.204     1929.602     1335.303      740.055        1.192        0.200       99.608       25.453        0.065      333.349        2.607      859.420
12/24/2014  07:08:00       56.551       46.756       78.444       69.674       44.021       32.123     4854.510     1937.872     1031.890        0.968        0.391       73.377       39.075        0.284      333.070        2.145      859.443
12/24/2014  07:09:00       46.657       28.085       58.524       58.915       92.011       54.650     3470.926     8466.004     2986.586        1.065        0.746       54.458       62.254        1.307      332.820        1.732      859.487
12/24/2014  07:10:00       50.240       79.317       59.701       47.900       30.765       36.630     2294.366      946.463     1341.735        0.848        0.229       93.889       35.980        0.147      332.860        1.798      859.478
12/24/2014  07:11:00       37.247       66.931       -9.485       28.738       29.733       20.291      825.873      884.057      411.745        0.404        0.106       76.597       14.293        0.035      332.899        1.863      859.333
12/24/2014  07:12:00       41.924       80.474       -8.307       28.940       41.753       26.467      837.516     1743.328      700.521        0.579        0.164       90.740       28.490        0.099      332.822        1.735      859.210
12/24/2014  07:13:00       10.220       23.268       -5.657       33.772       27.031       20.228     1140.546      730.684      409.186        0.148        0.114       25.414       14.199        0.312      332.854        1.789      859.195
12/24/2014  07:14:00       42.771       52.362       33.565       29.238       21.612       35.959      854.856      467.095     1293.041        0.416        0.131       67.610       28.981        0.184      332.966        1.973      859.218
12/24/2014  07:15:00       14.417       -6.296       51.205       35.857       57.955       37.922     1285.725     3358.737     1438.098        0.447        0.304       15.732       34.414        4.785      333.012        2.047      859.242
12/24/2014  07:16:00       25.475       38.269      102.762       53.019       77.301       49.179     2810.981     5975.433     2418.618        1.194        0.560       45.972       48.361        1.107      333.002        2.031      859.210
12/24/2014  07:17:00       33.866       -4.915       25.235       42.152       41.844       39.199     1776.759     1750.937     1536.589        0.344        0.253       34.221       15.929        0.217      333.019        2.060      859.172
12/24/2014  07:18:00       45.832       59.141        4.315       32.849       38.220       37.098     1079.074     1460.800     1376.247        0.477        0.196       74.822       27.539        0.135      332.973        1.984      859.092
12/24/2014  07:19:00       12.359       56.784       91.365       29.711       51.679       22.793      882.717     2670.705      519.506        0.790        0.204       58.113       28.529        0.241      333.021        2.064      859.088
12/24/2014  07:20:00      115.576     -140.606      -22.128       52.445       64.655       32.742     2750.500     4180.234     1072.023        2.081        0.400      182.011       33.715        0.034      333.036        2.085      859.145
12/24/2014  07:21:00      107.931     -130.581       -3.031       59.242       65.360       31.714     3509.580     4271.921     1005.803        1.875        0.439      169.412       40.711        0.058      333.104        2.200      859.221
12/24/2014  07:22:00       35.910      -16.315       47.591       51.748      100.413       56.359     2677.892    10082.759     3176.311        0.988        0.797       39.443       73.606        3.483      333.132        2.247      859.153
12/24/2014  07:23:00      105.736     -130.940      -32.863       45.675       51.514       31.464     2086.241     2653.712      989.970        1.757        0.286      168.302       13.754        0.007      333.195        2.348      859.152
12/24/2014  07:24:00       61.807      -73.236       -5.890       50.681       83.268       43.582     2568.592     6933.592     1899.358        1.031        0.570       95.831       55.503        0.335      333.240        2.424      859.137
12/24/2014  07:25:00       33.943       45.898       65.557       33.036       32.673       19.998     1091.396     1067.545      399.920        0.506        0.128       57.086       20.274        0.126      333.198        2.354      859.005
12/24/2014  07:26:00       30.098       23.049       31.821       35.374       17.901       23.837     1251.296      320.456      568.195        0.229        0.107       37.910       18.168        0.230      333.209        2.374      858.909
12/24/2014  07:27:00       71.230       -4.132       -1.597       23.590       29.574       17.447      556.506      874.627      304.397        0.341        0.087       71.350       13.788        0.037      333.279        2.489      858.902
12/24/2014  07:28:00       50.956      -58.657       -7.492       38.487       45.692       25.928     1481.238     2087.745      672.261        0.517        0.212       77.699       32.959        0.180      333.312        2.544      858.940
12/24/2014  07:29:00       49.707      -33.388       -1.778       37.536       59.320       36.039     1408.989     3518.832     1298.832        0.491        0.311       59.879       33.600        0.315      333.224        2.398      858.949
12/24/2014  07:30:00       57.726       38.887       52.524       33.666       18.565       20.015     1133.412      344.654      400.588        0.474        0.094       69.603       11.397        0.027      333.237        2.422      858.885
12/24/2014  07:31:00       50.981       -8.419       -3.506       35.438       28.208       16.325     1255.883      795.682      266.509        0.250        0.116       51.672       12.742        0.061      333.366        2.633      858.809
12/24/2014  07:32:00       -6.700        6.111       30.712        9.626       23.539       13.610       92.658      554.076      185.234        0.093        0.042        9.068       13.487        2.212      333.283        2.494      858.863
12/24/2014  07:33:00       -1.941      -76.754      -17.768       31.640       40.453       26.041     1001.081     1636.415      678.156        0.476        0.166       76.779       28.860        0.141      333.387        2.668      858.950
12/24/2014  07:34:00       20.974       42.511       51.411       34.142       35.861       22.398     1165.652     1286.009      501.686        0.392        0.148       47.403       24.751        0.273      333.277        2.485      858.852
12/24/2014  07:35:00        3.189      -31.771       14.038       22.403       41.143       22.948      501.894     1692.735      526.628        0.197        0.136       31.931       24.406        0.584      333.278        2.487      858.888
12/24/2014  07:36:00       19.925       63.593       12.497       25.138       21.678       25.519      631.935      469.931      651.215        0.317        0.088       66.641       18.067        0.074      333.294        2.513      858.833
12/24/2014  07:37:00       28.924       81.498       -2.976       25.247       24.370       20.942      637.436      593.879      438.580        0.458        0.083       86.479       16.827        0.038      333.100        2.193      858.743
12/24/2014  07:38:00       81.608       68.200       33.220       44.986       28.736       33.033     2023.777      825.779     1091.175        0.818        0.197      106.354       26.046        0.060      333.050        2.112      858.664
12/24/2014  07:39:00       14.902       44.905       56.580       25.358       24.253       17.337      643.025      588.193      300.567        0.349        0.077       47.313       17.191        0.132      333.119        2.226      858.659
12/24/2014  07:40:00       33.479      -31.182       15.079       30.661       52.535       27.435      940.094     2759.974      752.664        0.339        0.223       45.751       19.404        0.180      333.228        2.404      858.641
12/24/2014  07:41:00       -7.305       26.211       79.735       28.941       61.923       29.319      837.602     3834.417      859.583        0.631        0.277       27.209       16.336        0.360      333.185        2.334      858.615
12/24/2014  07:42:00       16.512       35.811       55.745       27.908       31.588       18.251      778.865      997.793      333.111        0.339        0.105       39.434       17.334        0.193      333.128        2.240      858.577
12/24/2014  07:43:00       85.998       59.722       -3.617       35.778       32.928       22.398     1280.095     1084.263      501.666        0.692        0.143      104.701       10.006        0.009      333.046        2.105      858.502
12/24/2014  07:44:00      145.931       72.098        6.957       34.075       32.242       28.114     1161.133     1039.573      790.380        1.477        0.150      162.769       16.439        0.010      332.990        2.012      858.438
12/24/2014  07:45:00       39.970       30.225       -1.232       37.847       48.370       23.611     1432.368     2339.671      557.485        0.342        0.216       50.111        6.977        0.019      332.857        1.793      858.453
12/24/2014  07:46:00       99.780       56.922       11.868       26.062       21.642       22.089      679.242      468.367      487.931        0.749        0.082      114.874        9.360        0.007      332.793        1.687      858.470
12/24/2014  07:47:00      110.152       73.451       15.625       53.922       30.685       27.502     2907.559      941.593      756.382        1.119        0.230      132.395       23.659        0.032      332.779        1.665      858.447
12/24/2014  07:48:00      -79.929       29.559      -13.327       34.591       53.337       24.079     1196.538     2844.864      579.796        0.603        0.231       85.220       28.426        0.111      332.893        1.852      858.394
12/24/2014  07:49:00      -29.605       -4.628       -7.285       23.482       21.648       16.649      551.422      468.625      277.203        0.112        0.065       29.965       12.052        0.162      332.867        1.809      858.556
12/24/2014  07:50:00       64.564       65.500       39.840       47.047       26.303       27.274     2213.450      691.838      743.867        0.685        0.182       91.972       18.362        0.040      332.891        1.849      858.529
12/24/2014  07:51:00       54.761       39.976        0.487       44.223       22.773       24.498     1955.660      518.613      600.145        0.384        0.154       67.800        8.329        0.015      332.861        1.802      858.442
12/24/2014  07:52:00     -112.549       -5.704      -17.896       48.554       31.957       15.134     2357.463     1021.243      229.043        0.831        0.180      112.694        7.596        0.005      332.976        1.990      858.558
12/24/2014  07:53:00      -30.317      -31.851       -1.757       52.076       35.442       23.950     2711.868     1256.101      573.611        0.324        0.227       43.972       28.646        0.424      333.075        2.153      858.658
12/24/2014  07:54:00        6.939       42.098       18.970       20.905       37.625       26.546      437.021     1415.611      704.700        0.237        0.128       42.666       22.334        0.274      333.037        2.088      858.587
12/24/2014  07:55:00       23.885       91.559      -12.623       28.953       23.582       19.010      838.303      556.117      361.386        0.543        0.088       94.623       16.811        0.032      333.064        2.133      858.437
12/24/2014  07:56:00       29.859       64.140       54.846       39.223       35.431       42.994     1538.411     1255.338     1848.476        0.633        0.232       70.750       29.761        0.177      333.089        2.176      858.461
12/24/2014  07:57:00       13.580       23.766       39.222       20.435       42.797       36.362      417.600     1831.556     1322.205        0.293        0.179       27.372       37.138        1.841      333.109        2.209      858.563
12/24/2014  07:58:00       55.721       55.294       25.330       22.225       33.847       32.288      493.963     1145.611     1042.543        0.474        0.134       78.500       14.089        0.032      333.074        2.152      858.625
12/24/2014  07:59:00       14.721      144.924      -28.034       38.521       30.599       22.129     1483.882      936.310      489.711        1.246        0.145      145.670       16.693        0.013      332.981        1.999      858.492
12/24/2014  08:00:00      -71.587       38.850      -18.891       42.135       33.687       14.334     1775.351     1134.783      205.454        0.505        0.156       81.449        4.908        0.004      333.123        2.231      858.556
12/24/2014  08:01:00       16.628       28.638        1.466       36.459       18.592       18.317     1329.244      345.672      335.514        0.155        0.101       33.115       16.219        0.240      333.011        2.049      858.527
12/24/2014  08:02:00       41.413       80.493       -7.710       14.659       17.272       19.137      214.881      298.322      366.238        0.457        0.044       90.522       16.477        0.033      333.068        2.142      858.426
12/24/2014  08:03:00       -5.136       54.305      -19.532       31.138       51.575        8.736      969.553     2659.999       76.320        0.353        0.185       54.547       13.609        0.062      333.031        2.081      858.387
12/24/2014  08:04:00     -138.516      -49.452      -10.502       37.429       32.666       18.193     1400.960     1067.052      330.990        1.227        0.140      147.079       10.408        0.005      333.168        2.306      858.529
12/24/2014  08:05:00      -10.140       -1.552       10.513       23.322       11.563       13.043      543.923      133.693      170.116        0.053        0.042       10.258        6.445        0.395      333.200        2.356      858.521
12/24/2014  08:06:00       -1.327       22.499       15.489       18.348       17.614       14.015      336.635      310.268      196.432        0.080        0.042       22.538       12.663        0.316      333.220        2.390      858.528
12/24/2014  08:07:00      -49.043       36.404       -7.937       58.490       19.311       16.129     3421.123      372.900      260.153        0.392        0.203       61.077       21.983        0.130      333.255        2.449      858.469
12/24/2014  08:08:00     -162.744      -21.102      -15.013       41.241       29.960       21.889     1700.782      897.586      479.119        1.512        0.154      164.107       19.716        0.014      333.225        2.400      858.473
12/24/2014  08:09:00     -143.294       73.129      -24.051       64.879       46.262       25.977     4209.285     2140.211      674.806        1.674        0.351      160.876       29.317        0.033      333.209        2.373      858.386
12/24/2014  08:10:00       56.142      -49.941      -14.424       46.825      110.754       40.587     2192.614    12266.556     1647.276        1.098        0.805       75.140       42.436        0.319      333.405        2.696      858.310
12/24/2014  08:11:00       75.571     -171.157      -21.053      116.081      118.114       45.780    13474.687    13951.029     2095.835        3.248        1.476      187.098       64.675        0.119      333.574        2.977      858.455
12/24/2014  08:12:00      -39.739        4.885       11.493       72.649       25.419       23.891     5277.811      646.144      570.769        0.411        0.325       40.039       33.942        0.719      333.539        2.920      858.402
12/24/2014  08:13:00      128.255       81.353       14.506       42.938       35.633       37.446     1843.639     1269.690     1402.198        1.390        0.226      151.880       23.024        0.023      333.601        3.023      858.186
12/24/2014  08:14:00       17.510       45.385       46.768       47.887       41.602       36.344     2293.185     1730.730     1320.884        0.495        0.267       48.645       30.078        0.382      333.630        3.071      858.107
12/24/2014  08:15:00     -138.632       19.449      -19.591       68.198       45.700       29.280     4650.996     2088.500      857.310        1.379        0.380      139.989       31.801        0.052      333.583        2.992      858.178
12/24/2014  08:16:00     -150.036        0.983      -27.760       48.410       54.102       18.891     2343.519     2926.999      356.856        1.445        0.281      150.039       13.418        0.008      333.600        3.019      858.138
12/24/2014  08:17:00     -104.546      -44.393      -10.766       82.604       41.630       20.730     6823.488     1733.056      429.745        1.100        0.449      113.581       25.894        0.052      333.573        2.974      858.228
12/24/2014  08:18:00     -205.595      -42.656      -28.159       93.135       80.799       31.414     8674.080     6528.546      986.863        3.053        0.809      209.974       28.555        0.018      333.573        2.974      858.321
12/24/2014  08:19:00       50.416      137.176      -17.002       52.241       56.650       37.069     2729.111     3209.277     1374.095        1.448        0.366      146.147       25.383        0.030      334.715        4.870      858.157
12/24/2014  08:20:00        9.650      175.778      -26.470       51.177       73.249       38.528     2619.129     5365.439     1484.419        2.058        0.473      176.043       35.883        0.042      335.328        5.887      857.914
12/24/2014  08:21:00      -12.795      -19.868       -4.660       95.830       79.228       44.211     9183.424     6277.139     1954.650        0.899        0.871       23.631       19.789        0.701      334.901        5.178      858.005
12/24/2014  08:22:00      -46.354      -22.699       12.458      121.139      132.970       41.502    14674.624    17680.999     1722.392        1.844        1.704       51.613       63.682        1.522      334.389        4.328      858.108
12/24/2014  08:23:00      -77.111      -35.613        0.475      264.888      191.579       57.276    70165.789    36702.592     3280.563        5.866        5.507       84.938       66.423        0.612      334.613        4.699      857.939
12/24/2014  08:24:00      -91.001     -133.844       -8.353       57.478       57.589       37.049     3303.677     3316.443     1372.622        1.713        0.400      161.850       28.496        0.031      334.468        4.458      858.100
12/24/2014  08:25:00      -10.269       16.601        2.948       36.047       75.875       12.399     1299.422     5756.985      153.726        0.380        0.361       19.521       12.544        0.413      334.984        5.318      858.043
12/24/2014  08:26:00      -37.299       28.857       -9.822       42.536       55.317       13.567     1809.303     3059.948      184.077        0.369        0.253       47.159       13.599        0.083      334.989        5.325      858.006
12/24/2014  08:27:00      -38.772       10.066       -6.746       38.435       36.933       19.197     1477.277     1364.058      368.529        0.243        0.160       40.057       14.927        0.139      335.131        5.562      857.971
12/24/2014  08:28:00      -50.009      -42.018       11.052       55.283       35.204       34.238     3056.203     1239.350     1172.231        0.493        0.273       65.318       38.092        0.340      334.633        4.734      858.048
12/24/2014  08:29:00      -31.883      -22.258       -0.496       39.360       31.677       18.919     1549.237     1003.446      357.932        0.221        0.146       38.884       19.443        0.250      334.500        4.512      858.105
12/24/2014  08:30:00      -51.570       42.948       -6.302       35.726       21.003       13.404     1276.371      441.121      179.673        0.322        0.095       67.112       14.934        0.050      334.771        4.963      858.056
12/24/2014  08:31:00     -122.022       -1.488      -18.810       22.577       37.023       15.751      509.730     1370.717      248.102        0.869        0.106      122.031       11.941        0.010      334.776        4.973      858.095
12/24/2014  08:32:00        6.193      -24.113      -10.763       54.312       38.358       10.485     2949.744     1471.314      109.928        0.263        0.227       24.896        7.086        0.081      334.682        4.817      858.102
12/24/2014  08:33:00       14.648      -59.962       -7.084       26.469       16.976       12.903      700.602      288.200      166.489        0.251        0.058       61.725       12.871        0.043      334.887        5.157      858.096
12/24/2014  08:34:00      -66.245       -4.213       -9.062       22.620       20.788        7.925      511.685      432.150       62.813        0.275        0.050       66.379        5.868        0.008      334.561        4.614      858.032
12/24/2014  08:35:00     -107.053       30.049      -22.975       58.736       39.796       18.426     3449.916     1583.716      339.506        0.913        0.269      111.190       29.193        0.069      334.610        4.697      857.871
12/24/2014  08:36:00     -123.150     -104.593        2.233      102.482       81.751       53.046    10502.462     6683.200     2813.922        2.305        1.000      161.572       54.553        0.114      334.358        4.276      857.957
12/24/2014  08:37:00      -44.146      -88.890       18.400       61.491       78.222       27.647     3781.102     6118.754      764.359        1.042        0.533       99.248       46.201        0.217      334.880        5.144      858.056
12/24/2014  08:38:00       48.367       51.913       13.680       31.915       21.214       23.759     1018.583      450.042      564.492        0.363        0.102       70.953        5.989        0.007      334.725        4.886      858.059
12/24/2014  08:39:00     -137.351       21.195      -22.673       96.838       53.625       19.094     9377.629     2875.658      364.570        1.622        0.631      138.976       26.360        0.036      334.866        5.119      858.119
12/24/2014  08:40:00     -293.660     -106.850      -13.205      111.585       91.243       46.228    12451.170     8325.299     2137.002        6.037        1.146      312.495       48.674        0.024      334.257        4.107      858.270
12/24/2014  08:41:00     -133.739      -37.658        1.421      114.806       56.553       33.530    13180.401     3198.296     1124.286        1.840        0.875      138.939       38.941        0.079      334.551        4.597      858.243
12/24/2014  08:42:00       -5.377       38.596        5.691       39.977       34.301       14.010     1598.195     1176.531      196.267        0.226        0.149       38.969       16.275        0.174      334.815        5.036      858.069
12/24/2014  08:43:00       79.929       56.683       34.230       51.912       37.817       39.508     2694.833     1430.114     1560.851        0.823        0.284       97.988       35.549        0.132      334.685        4.819      857.924
12/24/2014  08:44:00       -1.133        7.135       10.509       45.551       41.791       22.779     2074.900     1746.514      518.895        0.225        0.217        7.224       16.973        5.521      334.858        5.109      858.033
12/24/2014  08:45:00     -148.056      -39.248      -14.156       42.098       42.680       22.183     1772.205     1821.613      492.074        1.387        0.204      153.170       13.256        0.007      334.864        5.117      858.122
12/24/2014  08:46:00     -106.928        2.011       -6.264       38.511       30.973       22.049     1483.097      959.317      486.137        0.720        0.146      106.946       17.880        0.028      334.820        5.045      858.095
12/24/2014  08:47:00     -135.467      -20.204      -22.807       37.016       24.027       21.093     1370.176      577.297      444.907        1.084        0.120      136.966       21.155        0.024      334.781        4.979      858.007
12/24/2014  08:48:00      -68.604      -46.938       -6.546       62.143       21.489       15.725     3861.752      461.773      247.275        0.576        0.229       83.124       23.656        0.081      334.788        4.993      858.048
12/24/2014  08:49:00       42.971       17.013       12.585       47.955       33.541       13.902     2299.640     1124.977      193.277        0.296        0.181       46.217       14.877        0.104      334.954        5.268      857.979
12/24/2014  08:50:00       38.866       -5.323       15.963       57.340       38.330       29.016     3287.860     1469.200      841.956        0.370        0.280       39.229       25.975        0.438      334.991        5.330      857.863
12/24/2014  08:51:00     -121.118      -52.836        3.981      103.719       40.013       37.857    10757.568     1601.046     1433.171        1.563        0.690      132.141       44.897        0.115      335.166        5.619      857.992
12/24/2014  08:52:00      -83.181      -63.270       26.010       90.130      134.959       52.785     8123.496    18213.906     2786.290        2.036        1.456      104.509       57.550        0.303      335.071        5.464      858.053
12/24/2014  08:53:00       29.933       48.630       49.645       41.487       30.011       32.618     1721.140      900.642     1063.915        0.470        0.184       57.104       29.481        0.267      335.274        5.800      857.910
12/24/2014  08:54:00       22.398       12.579       -2.658       17.906       48.071       18.635      320.624     2310.829      347.268        0.182        0.149       25.689       13.147        0.262      335.294        5.832      857.797
12/24/2014  08:55:00       62.805       56.994       49.172       69.544       45.591       40.210     4836.305     2078.531     1616.874        0.907        0.427       84.810       39.574        0.218      335.340        5.909      857.729
12/24/2014  08:56:00      -61.790      -27.151      -12.367       59.213       31.731       22.566     3506.198     1006.861      509.219        0.486        0.251       67.492       12.297        0.033      335.371        5.960      857.716
12/24/2014  08:57:00      -92.716      -19.251      -11.175       41.634       31.485       22.176     1733.380      991.277      491.768        0.615        0.161       94.693       17.152        0.033      335.090        5.494      857.822
12/24/2014  08:58:00      -46.494       23.314       -6.202       39.188       24.466       17.789     1535.721      598.605      316.462        0.260        0.123       52.012       18.717        0.129      335.371        5.959      857.775
12/24/2014  08:59:00      -18.752      -27.410       -0.726       37.614       31.484       16.020     1414.845      991.217      256.633        0.188        0.133       33.211       24.071        0.525      335.229        5.723      857.708
12/24/2014  09:00:00      -93.652       -4.166       -8.058       17.446       20.185       22.970      304.361      407.438      527.630        0.505        0.062       93.745       11.161        0.014      335.177        5.637      857.695
12/24/2014  09:01:00     -139.202      -30.280      -11.953       58.537       42.061       20.537     3426.568     1769.123      421.778        1.303        0.281      142.457       20.901        0.022      335.320        5.874      857.749
12/24/2014  09:02:00     -291.218      -72.915      -28.512       46.371       59.620       32.670     2150.305     3554.588     1067.331        4.885        0.339      300.207       24.882        0.007      334.992        5.325      857.859
12/24/2014  09:03:00     -248.177       32.243      -20.272       98.285       39.751       33.100     9659.940     1580.161     1095.590        3.769        0.617      250.263       42.635        0.029      335.062        5.445      857.847
12/24/2014  09:04:00      -66.807       37.119       -9.911       46.049       37.328       26.473     2120.498     1393.385      700.797        0.508        0.211       76.426       14.625        0.037      335.286        5.819      857.821
12/24/2014  09:05:00     -134.210       11.822      -20.388       63.094       40.322       23.907     3980.859     1625.851      571.558        1.237        0.309      134.730       27.828        0.043      335.655        6.433      857.798
12/24/2014  09:06:00     -155.498       11.884      -16.942       59.308       40.200       27.406     3517.408     1616.018      751.082        1.524        0.294      155.951       25.453        0.027      335.393        5.996      857.891
12/24/2014  09:07:00      -35.055       -2.075       14.715       56.507       43.059       29.517     3193.027     1854.099      871.251        0.368        0.296       35.116       22.261        0.402      335.740        6.575      857.845
12/24/2014  09:08:00       37.589      -26.566       -6.308       21.280       27.772       22.719      452.853      771.267      516.133        0.195        0.087       46.029       12.191        0.070      335.536        6.234      857.753
12/24/2014  09:09:00       26.383        2.176       17.408       17.291       30.708       20.556      298.989      943.005      422.543        0.133        0.083       26.473       17.459        0.435      335.636        6.400      857.734
12/24/2014  09:10:00      -51.047      -23.089      -12.584       49.512       32.673        8.047     2451.391     1067.519       64.759        0.344        0.179       56.025        8.899        0.025      336.120        7.209      857.701
12/24/2014  09:11:00     -128.420       11.064      -10.425       82.928       58.466       29.738     6877.025     3418.245      884.340        1.395        0.559      128.896       29.678        0.053      335.898        6.836      857.688
12/24/2014  09:12:00     -184.750     -108.459      -17.242       80.128       53.954       33.181     6420.515     2911.085     1101.000        2.831        0.522      214.234       36.431        0.029      335.501        6.176      857.711
12/24/2014  09:13:00      -74.712      -35.141       -0.327       52.159       31.984       20.591     2720.544     1022.957      423.991        0.549        0.208       82.564       17.778        0.046      335.653        6.430      857.642
12/24/2014  09:14:00      -97.708      -13.417       -1.060       58.643       35.681       20.091     3438.956     1273.139      403.655        0.742        0.256       98.625       25.510        0.067      335.910        6.857      857.553
12/24/2014  09:15:00        5.364       32.230        4.490       48.646       18.817       22.612     2366.430      354.094      511.304        0.216        0.162       32.673       26.984        0.682      336.167        7.287      857.441
12/24/2014  09:16:00      -42.557      -70.139      -12.378       93.772       52.912       26.829     8793.132     2799.677      719.771        0.960        0.616       82.040       26.908        0.108      336.127        7.221      857.502
12/24/2014  09:17:00        9.372     -131.353      -18.489       56.163       76.462       28.739     3154.279     5846.411      825.942        1.375        0.491      131.687       20.993        0.025      336.406        7.685      857.554
12/24/2014  09:18:00      -36.446     -109.096        3.204       23.193       38.355       20.032      537.899     1471.098      401.285        0.782        0.121      115.023       12.774        0.012      337.305        9.189      857.412
12/24/2014  09:19:00      -16.092        2.523        3.154       32.045       20.600       16.160     1026.860      424.362      261.157        0.099        0.086       16.289       15.321        0.885      336.727        8.222      857.372
12/24/2014  09:20:00      -60.947       25.844       -0.753       30.503       21.221       15.361      930.433      450.321      235.949        0.300        0.081       66.200       14.851        0.050      336.680        8.145      857.382
12/24/2014  09:21:00     -100.518       16.470       -9.191       15.488       20.659       12.516      239.876      426.806      156.661        0.564        0.041      101.858        8.720        0.007      336.582        7.979      857.362
12/24/2014  09:22:00      -63.083      -57.156       -4.045       20.714       15.603       12.466      429.086      243.445      155.401        0.405        0.041       85.125        8.132        0.009      336.923        8.550      857.386
12/24/2014  09:23:00      -41.614      -32.580        9.827       30.600       22.969       19.032      936.376      527.577      362.216        0.236        0.091       52.851       19.171        0.132      336.667        8.123      857.403
12/24/2014  09:24:00      -80.900      -73.503       -1.315       42.863       38.785       17.919     1837.207     1504.288      321.088        0.781        0.183      109.305       14.448        0.017      336.553        7.933      857.435
12/24/2014  09:25:00      -21.875      -38.903       18.062       28.655       52.390       26.006      821.132     2744.720      676.301        0.328        0.212       44.631       26.969        0.365      336.872        8.466      857.426
12/24/2014  09:26:00       28.734       -0.628       17.369       41.157       40.349       25.357     1693.907     1628.072      642.979        0.255        0.198       28.741       24.482        0.726      336.448        7.757      857.400
12/24/2014  09:27:00      -69.278       18.021        1.535       74.300       38.592       29.910     5520.491     1489.379      894.616        0.651        0.395       71.584       34.413        0.231      336.919        8.543      857.411
12/24/2014  09:28:00      -96.435      -43.692       -4.686       30.260       41.346       23.572      915.668     1709.526      555.645        0.721        0.159      105.871       13.612        0.017      336.894        8.502      857.451
12/24/2014  09:29:00     -174.949      -26.628       -9.399       47.558       27.054       25.057     2261.729      731.941      627.866        1.751        0.181      176.964       27.068        0.023      337.086        8.821      857.448
12/24/2014  09:30:00     -168.833      -13.037       -0.574       62.190       50.625       35.973     3867.558     2562.855     1294.049        1.820        0.386      169.335       33.487        0.039      338.541       11.265      857.428
12/24/2014  09:31:00     -186.048      -92.190        5.908       86.251       65.071       36.022     7439.229     4234.279     1297.600        2.806        0.649      207.637       44.442        0.046      338.669       11.476      857.421
12/24/2014  09:32:00     -162.695      -32.045        1.733       82.041       43.903       35.553     6730.735     1927.442     1264.037        1.871        0.496      165.821       42.180        0.065      338.236       10.749      857.427
12/24/2014  09:33:00     -262.866      -73.819       -3.699      106.458       80.409       42.168    11333.396     6465.606     1778.168        4.707        0.979      273.034       42.590        0.024      338.628       11.405      857.478
12/24/2014  09:34:00     -194.619      -98.371        6.544      111.559       82.096       50.071    12445.406     6739.777     2507.074        3.464        1.085      218.068       61.996        0.081      338.428       11.070      857.555
12/24/2014  09:35:00     -339.981     -271.862      -17.592      130.544      129.328       79.868    17041.853    16725.695     6378.949       11.497        2.007      435.311       82.130        0.036      338.968       11.977      857.526
12/24/2014  09:36:00     -175.879     -196.097        8.444      142.973      104.953       70.715    20441.304    11015.144     5000.640        5.295        1.823      263.415       78.726        0.089      338.459       11.123      857.590
12/24/2014  09:37:00     -264.076     -153.638       12.436      133.550       98.489       69.643    17835.547     9700.153     4850.146        6.293        1.619      305.518       67.357        0.049      338.567       11.304      857.596
12/24/2014  09:38:00     -126.566     -266.339       -5.197      115.267      119.399       54.106    13286.455    14256.086     2927.440        5.872        1.523      294.882       44.601        0.023      338.553       11.280      857.511
12/24/2014  09:39:00     -131.523     -183.326        8.353      113.332      104.643       68.355    12844.246    10950.190     4672.415        3.972        1.423      225.625       67.995        0.091      338.663       11.465      857.433
12/24/2014  09:40:00     -181.285     -131.552        5.227      137.819       90.613       63.085    18993.952     8210.641     3979.668        4.068        1.559      223.987       65.276        0.085      338.840       11.763      857.366
12/24/2014  09:41:00     -165.578     -183.031        2.707      119.117       90.170       57.785    14188.875     8130.616     3339.131        4.329        1.283      246.812       51.411        0.043      338.796       11.689      857.376
12/24/2014  09:42:00     -172.648     -111.825       -7.586       86.266       68.099       43.406     7441.844     4637.467     1884.117        2.816        0.698      205.699       38.968        0.036      338.775       11.654      857.405
12/24/2014  09:43:00     -267.115     -130.349       -6.062      110.066       94.774       64.310    12114.417     8982.091     4135.821        5.680        1.262      297.222       60.684        0.042      338.986       12.006      857.398
12/24/2014  09:44:00     -148.771      -85.810        3.377      108.152       76.254       50.023    11696.962     5814.706     2502.275        2.476        1.001      171.745       54.230        0.100      338.882       11.833      857.446
12/24/2014  09:45:00     -172.239      -99.036      -11.207      116.487       81.297       41.274    13569.310     6609.237     1703.532        3.074        1.094      198.682       48.779        0.060      338.731       11.580      857.481
12/24/2014  09:46:00     -269.848     -223.363       -4.575      179.293      162.726       73.170    32145.895    26479.797     5353.808        9.334        3.199      350.298       80.117        0.052      339.066       12.142      857.454
12/24/2014  09:47:00     -268.943     -216.435       11.601      211.057      169.357       98.290    44545.011    28681.788     9660.899       10.108        4.144      345.216      113.053        0.107      339.168       12.314      857.452
12/24/2014  09:48:00     -277.139     -138.009        2.013      191.858      115.174       71.015    36809.592    13265.086     5043.158        7.548        2.756      309.601       85.636        0.077      339.248       12.449      857.469
12/24/2014  09:49:00     -396.523     -202.084      -16.639      150.561      128.463       77.746    22668.719    16502.645     6044.470       12.177        2.261      445.048       62.887        0.020      339.251       12.453      857.449
12/24/2014  09:50:00     -422.297     -265.924       -9.923      230.456      198.862       94.844    53109.919    39546.159     8995.397       17.538        5.083      499.050      107.203        0.046      339.336       12.596      857.444
12/24/2014  09:51:00     -282.066     -193.296       -7.053      179.870      144.606       79.692    32353.062    20911.031     6350.877        8.828        2.981      341.942       92.755        0.074      339.293       12.524      857.468
12/24/2014  09:52:00     -422.035     -320.869        5.819      356.220      227.127      128.078   126892.880    51586.513    16404.023       23.795        9.744      530.161      165.045        0.097      339.305       12.543      857.443
12/24/2014  09:53:00     -467.482     -279.363      -40.814      201.802      145.323       91.089    40723.917    21118.836     8297.144       18.418        3.507      544.594       75.295        0.019      339.316       12.562      857.439
12/24/2014  09:54:00     -243.820     -164.849        1.917      171.589      151.198       84.373    29442.618    22860.944     7118.868        7.301        2.971      294.319       76.846        0.068      339.291       12.521      857.419
12/24/2014  09:55:00     -428.221     -147.996        6.851      305.167      222.988       99.959    93127.102    49723.807     9991.729       17.905        7.642      453.074      138.654        0.094      339.311       12.554      857.390
12/24/2014  09:56:00     -425.751     -294.412      -29.710      200.674      191.403      109.370    40269.916    36635.143    11961.733       17.883        4.443      517.631       91.821        0.031      339.294       12.524      857.390
12/24/2014  09:57:00     -372.682     -149.495       10.844      315.770      174.609      104.831    99710.760    30488.399    10989.470       15.125        7.059      401.548      149.375        0.138      339.259       12.467      857.310
12/24/2014  09:58:00     -313.746     -212.778       -4.246      260.632      203.812      118.349    67928.928    41539.360    14006.438       13.358        6.174      379.093      139.721        0.136      339.274       12.491      857.314
12/24/2014  09:59:00     -400.473     -191.418      -26.741      171.340      143.469       68.483    29357.313    20583.273     4689.877       12.617        2.732      443.869       71.200        0.026      339.261       12.469      857.351
12/24/2014  10:00:00     -431.250     -255.294       -6.089      269.261      233.170      113.181    72501.321    54368.127    12809.973       19.541        6.984      501.150      128.411        0.066      339.276       12.494      857.331
12/24/2014  10:01:00     -624.066     -187.049      -28.569      239.047      221.232      116.478    57143.682    48943.427    13567.207       27.243        5.983      651.495      132.079        0.041      339.270       12.485      857.331
12/24/2014  10:02:00     -485.324     -250.549      -10.405      330.965      208.879      129.201   109537.884    43630.308    16692.801       23.411        8.493      546.181      170.735        0.098      339.297       12.529      857.342
12/24/2014  10:03:00     -565.622     -290.137       -8.849      330.526      210.688      120.152   109247.289    44389.461    14436.477       28.610        8.404      635.695      148.490        0.055      339.337       12.597      857.336
12/24/2014  10:04:00     -404.108     -178.391      -37.815      220.009      228.580      104.753    48404.156    52248.753    10973.295       15.407        5.581      441.731      106.877        0.059      339.319       12.567      857.386
12/24/2014  10:05:00     -440.821      -64.422        5.716      248.281      226.763      109.724    61643.578    51421.253    12039.311       16.178        6.255      445.503      118.901        0.071      339.366       12.646      857.397
12/24/2014  10:06:00     -407.141     -175.466       -1.845      239.632      180.261       98.793    57423.289    32494.158     9759.968       14.810        4.984      443.342      113.310        0.065      339.300       12.534      857.408
12/24/2014  10:07:00     -243.879     -193.104        9.663      229.428      175.634       98.341    52637.281    30847.373     9670.964        9.499        4.658      311.072      114.542        0.136      339.295       12.527      857.413
12/24/2014  10:08:00     -558.244     -325.528      -28.953      332.200      267.726      114.515   110356.937    71676.989    13113.641       30.676        9.757      646.224      131.739        0.042      339.323       12.574      857.368
12/24/2014  10:09:00     -433.029     -313.718       -4.013      302.279      257.160      119.766    91372.689    66131.294    14343.864       22.886        8.592      534.727      130.205        0.059      339.297       12.531      857.299
12/24/2014  10:10:00     -528.215     -323.901      -28.033      270.534      175.141      125.104    73188.546    30674.402    15650.890       25.209        5.976      619.615      151.351        0.060      339.321       12.572      857.329
12/24/2014  10:11:00     -578.563     -293.100       -1.404      352.578      243.055      138.999   124311.159    59075.964    19320.772       31.164       10.135      648.569      149.281        0.053      339.322       12.573      857.297
12/24/2014  10:12:00     -504.011     -367.088      -22.655      271.489      212.026      119.158    73706.430    44955.094    14198.559       26.105        6.643      623.523      118.484        0.036      339.336       12.596      857.226
12/24/2014  10:13:00     -501.233     -228.824      -15.941      264.928      225.058      105.286    70186.968    50651.247    11085.195       21.786        6.596      550.995      116.703        0.045      339.303       12.539      857.212
12/24/2014  10:14:00     -462.334     -282.899        3.401      351.012      235.666      143.552   123209.584    55538.446    20607.116       24.654        9.968      542.019      182.793        0.114      339.300       12.536      857.165
12/24/2014  10:15:00     -401.723     -168.149      -14.541      281.397      168.977      106.487    79184.296    28553.193    11339.487       15.445        5.954      435.495      107.268        0.061      339.306       12.546      857.100
12/24/2014  10:16:00     -440.715     -162.375      -15.982      393.074      205.575      130.610   154507.434    42261.127    17059.022       21.730       10.691      469.676      172.181        0.134      339.329       12.584      857.097
12/24/2014  10:17:00     -623.975     -279.252      -38.842      357.978      249.514      145.269   128148.545    62257.212    21103.089       34.013       10.575      683.613      185.992        0.074      339.349       12.616      857.081
12/24/2014  10:18:00     -508.238      -82.433       -5.115      276.143      213.418      121.175    76254.878    45547.065    14683.497       20.078        6.824      514.880      133.144        0.067      339.382       12.674      857.054
12/24/2014  10:19:00     -437.268     -304.693      -21.350      241.116      179.025      118.384    58137.020    32049.897    14014.776       19.433        5.210      532.955      118.435        0.049      339.359       12.635      856.984
12/24/2014  10:20:00     -440.850     -241.518      -25.507      262.818      212.350       94.093    69073.352    45092.510     8853.432       18.815        6.151      502.672      109.998        0.048      339.328       12.581      856.929
12/24/2014  10:21:00     -605.769     -284.937      -49.630      297.786      264.389      122.483    88676.216    69901.359    15002.050       31.206        8.679      669.437      143.338        0.046      339.347       12.614      856.888
12/24/2014  10:22:00     -569.439     -218.105       -3.751      318.709      264.749      125.207   101575.584    70091.935    15676.761       27.956        9.367      609.779      159.897        0.069      339.371       12.654      856.831
12/24/2014  10:23:00     -438.074     -260.425       -9.717      243.086      244.985      115.440    59090.950    60017.455    13326.427       19.610        6.622      509.637      122.728        0.058      339.359       12.635      856.802
12/24/2014  10:24:00     -305.891     -326.889       29.838      364.403      218.217      161.607   132789.182    47618.794    26116.905       20.388       10.326      447.689      196.737        0.193      339.389       12.686      856.742
12/24/2014  10:25:00     -696.159     -241.871      -27.900      343.333      244.237      140.716   117877.428    59651.918    19801.082       37.058        9.867      736.979      165.269        0.050      339.483       12.845      856.711
12/24/2014  10:26:00     -589.901     -120.550      -22.928      321.186      261.196      132.312   103160.341    68223.601    17506.426       27.593        9.445      602.093      153.687        0.065      339.442       12.776      856.736
12/24/2014  10:27:00     -527.130     -176.780       -2.822      295.095      290.370      132.769    87080.785    84314.598    17627.674       24.904        9.451      555.983      158.927        0.082      339.395       12.696      856.757
12/24/2014  10:28:00     -381.200     -216.622       -4.183      257.913      200.137      118.759    66519.270    40054.795    14103.651       15.644        6.034      438.450      144.171        0.108      339.337       12.598      856.747
12/24/2014  10:29:00     -414.919     -161.236       20.459      320.096      229.916      125.813   102461.280    52861.263    15829.021       18.483        8.558      445.146      151.925        0.116      339.357       12.631      856.749
12/24/2014  10:30:00     -587.267     -324.641       -5.272      333.543      205.575      128.156   111250.830    42261.193    16424.065       31.008        8.497      671.025      153.267        0.052      339.369       12.651      856.739
12/24/2014  10:31:00     -538.150     -382.312        0.323      477.483      377.979      179.229   227989.816   142868.327    32123.077       41.929       20.149      660.127      259.425        0.154      339.442       12.775      856.638
12/24/2014  10:32:00     -459.506     -208.185        0.788      284.714      294.011      118.324    81062.137    86442.493    14000.686       21.796        9.075      504.467      138.690        0.076      339.456       12.799      856.699
12/24/2014  10:33:00     -529.746     -362.646      -17.202      325.776      215.892      146.479   106129.735    46609.224    21455.959       29.328        8.710      641.984      163.636        0.065      339.425       12.746      856.673
12/24/2014  10:34:00     -550.332     -442.760      -22.376      328.073      236.499      161.922   107631.991    55931.596    26218.575       34.455        9.489      706.330      170.640        0.058      339.447       12.784      856.570
12/24/2014  10:35:00     -520.340     -320.703      -26.871      319.104      241.038      132.670   101827.556    58099.121    17601.434       27.589        8.876      611.231      163.631        0.072      339.452       12.793      856.555
12/24/2014  10:36:00     -420.673     -233.994       -7.040      249.875      174.961      112.926    62437.282    30611.516    12752.203       16.876        5.290      481.372      135.637        0.079      339.443       12.777      856.522
12/24/2014  10:37:00     -521.247     -330.674      -10.136      256.455      203.672      117.042    65769.183    41482.275    13698.907       25.102        6.048      617.287      126.838        0.042      339.458       12.801      856.429
12/24/2014  10:38:00     -393.714     -227.267       -3.363      270.310      225.775      132.055    73067.373    50974.376    17438.639       17.405        7.074      454.600      159.030        0.122      339.502       12.877      856.401
12/24/2014  10:39:00     -414.707     -226.418        8.324      251.719      187.895      114.748    63362.331    35304.578    13167.045       16.755        5.592      472.490      125.214        0.070      339.533       12.929      856.344
12/24/2014  10:40:00     -467.273     -143.707       -8.100      262.763      181.448      109.092    69044.481    32923.471    11901.111       17.644        5.693      488.872      134.707        0.076      339.639       13.107      856.340
12/24/2014  10:41:00     -417.098     -271.372        0.140      323.478      244.539      128.532   104637.870    59799.086    16520.436       21.425        9.048      497.608      165.161        0.110      339.644       13.116      856.321
12/24/2014  10:42:00     -580.007     -424.913      -30.784      275.147      264.426      120.515    75705.644    69921.078    14523.847       33.900        8.008      718.999      121.435        0.029      339.651       13.128      856.298
12/24/2014  10:43:00     -304.190     -274.252        1.201      223.006      183.956      103.660    49731.860    33839.750    10745.460       13.101        4.716      409.568      119.192        0.085      339.747       13.290      856.322
12/24/2014  10:44:00     -552.097     -413.726      -23.765      310.203      245.678      128.912    96226.159    60357.583    16618.335       32.484        8.660      689.913      156.644        0.052      339.716       13.235      856.240
12/24/2014  10:45:00     -441.121     -157.406       -5.524      224.038      211.430      106.963    50193.119    44702.568    11441.133       16.284        5.317      468.364      107.305        0.052      339.797       13.373      856.218
12/24/2014  10:46:00     -807.907     -368.232      -21.881      300.511      248.588      115.334    90306.767    61795.830    13301.878       47.706        8.270      887.867      136.100        0.023      339.769       13.326      856.102
12/24/2014  10:47:00     -515.555     -263.900       -2.841      290.034      220.718      110.177    84119.768    48716.600    12138.976       24.018        7.249      579.172      116.057        0.040      339.778       13.342      856.129
12/24/2014  10:48:00     -439.087     -350.394      -13.516      253.483      225.497      114.085    64253.843    50849.037    13015.490       22.191        6.406      561.759      129.432        0.053      339.798       13.375      856.147
12/24/2014  10:49:00     -583.891     -419.232       -7.831      318.751      292.555      142.351   101601.983    85588.310    20263.933       36.206       10.373      718.808      182.244        0.064      339.788       13.358      856.125
12/24/2014  10:50:00     -554.403     -378.727      -13.963      330.182      228.301      148.720   109020.248    52121.225    22117.658       31.709        9.163      671.415      178.456        0.071      339.874       13.503      856.131
12/24/2014  10:51:00     -567.777     -421.155        0.634      384.470      261.088      151.901   147817.527    68167.027    23073.870       36.935       11.953      706.924      197.459        0.078      339.901       13.547      856.099
12/24/2014  10:52:00     -585.279     -245.527        9.736      312.367      203.932      118.910    97573.328    41588.073    14139.645       27.808        7.665      634.693      148.726        0.055      339.910       13.565      856.077
12/24/2014  10:53:00     -484.646     -329.213      -10.285      287.053      219.875      118.183    82399.353    48345.052    13967.171       24.401        7.236      585.886      141.561        0.058      339.899       13.544      856.071
12/24/2014  10:54:00     -377.244     -268.964       -0.509      288.155      220.681      131.393    83033.140    48700.296    17264.119       18.180        7.450      463.308      150.940        0.106      339.960       13.647      856.077
12/24/2014  10:55:00     -615.957     -341.976       -7.983      425.265      324.405      140.652   180850.272   105238.409    19782.959       40.108       15.294      704.521      165.370        0.055      339.903       13.551      856.042
12/24/2014  10:56:00     -656.989     -499.844       -6.528      468.030      351.910      167.730   219052.407   123840.955    28133.448       52.620       18.551      825.517      206.092        0.062      339.815       13.403      855.935
12/24/2014  10:57:00     -544.251     -224.712       -9.738      276.769      211.514      110.555    76601.039    44737.976    12222.427       24.015        6.678      588.816      130.073        0.049      339.878       13.509      856.020
12/24/2014  10:58:00     -502.983     -352.244       -8.770      330.874      279.760      137.354   109477.459    78265.929    18866.136       29.184       10.330      614.059      170.058        0.077      339.895       13.539      855.953
12/24/2014  10:59:00     -375.372     -189.329       28.469      302.628      194.116      100.774    91583.699    37680.902    10155.485       15.846        6.971      420.416      111.912        0.071      339.961       13.649      855.930
12/24/2014  11:00:00     -554.551     -175.139       -4.668      372.244      259.661      140.091   138565.658    67423.998    19625.569       28.187       11.281      581.550      169.458        0.085      339.887       13.525      855.912
12/24/2014  11:01:00     -609.979     -202.540      -20.646      276.897      233.628      115.330    76672.041    54581.994    13300.940       27.901        7.228      642.726      120.034        0.035      339.808       13.392      855.903
12/24/2014  11:02:00     -531.772     -264.964       -9.047      269.473      267.197      127.216    72615.812    71394.191    16183.955       25.660        8.010      594.127      130.666        0.048      339.880       13.512      855.904
12/24/2014  11:03:00     -379.984     -174.946        1.201      230.369      197.155      102.974    53070.033    38870.086    10603.658       13.875        5.127      418.323      111.339        0.071      339.897       13.541      855.930
12/24/2014  11:04:00     -582.743     -166.666      -12.288      249.100      269.488      126.785    62050.897    72623.959    16074.516       25.910        7.537      606.108      140.869        0.054      339.910       13.564      855.907
12/24/2014  11:05:00     -455.302     -188.780       -9.810      233.922      210.511      113.799    54719.609    44314.834    12950.279       17.749        5.599      492.887      122.059        0.061      339.913       13.570      855.917
12/24/2014  11:06:00     -585.842     -398.215      -25.905      356.857      262.390      134.352   127347.182    68848.524    18050.326       35.831       10.712      708.369      174.251        0.061      339.806       13.390      855.860
12/24/2014  11:07:00     -673.244     -405.475      -20.426      412.716      258.649      137.160   170334.888    66899.356    18812.911       43.701       12.802      785.918      162.156        0.043      339.742       13.281      855.792
12/24/2014  11:08:00     -593.321     -310.485       -8.335      376.932      263.329      141.954   142077.885    69342.359    20150.813       33.999       11.579      669.649      189.054        0.080      339.808       13.393      855.785
12/24/2014  11:09:00     -474.769     -177.902        6.204      266.495      208.477      121.224    71019.440    43462.852    14695.213       19.311        6.459      507.006      149.070        0.086      339.923       13.585      855.814
12/24/2014  11:10:00     -691.490     -346.918      -14.194      362.647      317.142      167.842   131513.030   100579.267    28170.867       42.944       13.013      773.634      189.326        0.060      339.764       13.317      855.752
12/24/2014  11:11:00     -663.443     -397.502      -15.947      400.650      317.928      141.524   160520.499   101077.920    20028.905       43.997       14.081      773.410      162.797        0.044      339.743       13.282      855.735
12/24/2014  11:12:00     -715.134     -393.948      -23.491      298.223      280.892      148.895    88937.120    78900.044    22169.859       42.855        9.500      816.463      158.265        0.038      339.692       13.198      855.699
12/24/2014  11:13:00     -810.342     -585.831      -10.509      376.160      320.359      172.181   141496.212   102629.793    29646.130       63.681       13.689      999.926      187.796        0.035      339.527       12.919      855.646
12/24/2014  11:14:00     -545.268     -400.393      -11.329      305.449      263.874      142.524    93299.000    69629.298    20313.228       32.046        9.162      676.485      163.681        0.059      339.651       13.127      855.705
12/24/2014  11:15:00     -401.691     -264.580        7.809      239.612      203.203      101.826    57414.146    41291.362    10368.496       17.022        5.454      480.997      127.771        0.071      339.765       13.320      855.723
12/24/2014  11:16:00     -433.062     -302.100      -13.308      181.205      194.201       99.954    32835.329    37714.119     9990.822       17.975        4.027      528.022       98.599        0.035      339.780       13.345      855.676
12/24/2014  11:17:00     -601.052     -481.822        0.712      344.146      249.919      139.516   118436.774    62459.635    19464.600       39.685       10.018      770.335      154.920        0.040      339.669       13.158      855.613
12/24/2014  11:18:00     -592.881     -339.088      -25.373      284.081      214.158      109.930    80701.818    45863.642    12084.574       30.286        6.933      682.999      125.432        0.034      339.688       13.189      855.586
12/24/2014  11:19:00     -587.409     -305.188      -38.029      232.607      205.352      115.552    54106.239    42169.640    13352.152       27.461        5.481      661.958      117.948        0.032      339.711       13.229      855.590
12/24/2014  11:20:00     -728.251     -439.184      -25.195      318.282      239.536      140.533   101303.215    57377.275    19749.448       45.111        8.921      850.431      160.362        0.036      339.638       13.105      855.538
12/24/2014  11:21:00     -491.139     -168.335        4.191      301.186      247.556      132.798    90712.775    61283.790    17635.393       21.957        8.482      519.186      159.410        0.094      339.726       13.255      855.517
12/24/2014  11:22:00     -391.418     -167.773        8.601      267.344      185.813       92.864    71473.011    34526.432     8623.642       14.800        5.731      425.859      100.106        0.055      339.794       13.369      855.542
12/24/2014  11:23:00     -671.900     -211.869      -36.232      276.940      232.435      119.584    76695.634    54025.799    14300.440       32.131        7.251      704.513      130.381        0.034      339.704       13.215      855.490
12/24/2014  11:24:00     -588.339     -267.620        7.404      337.796      281.261      152.236   114106.461    79107.927    23175.870       31.706       10.820      646.347      179.449        0.077      339.607       13.053      855.457
12/24/2014  11:25:00     -523.763     -343.276      -25.211      333.815      243.897      129.887   111432.636    59485.712    16870.654       29.026        9.389      626.232      154.756        0.061      339.631       13.094      855.438
12/24/2014  11:26:00     -674.296     -430.223      -23.170      253.007      238.113      131.852    64012.486    56697.620    17384.884       38.917        6.905      799.854      142.155        0.032      339.639       13.104      855.432
12/24/2014  11:27:00     -543.815     -349.807      -11.355      291.866      232.341      133.067    85185.950    53982.462    17706.895       28.752        7.844      646.606      147.396        0.052      339.699       13.208      855.435
12/24/2014  11:28:00     -454.381     -307.194       -5.196      296.407      241.276      134.913    87857.332    58214.283    18201.599       23.253        8.214      548.480      151.192        0.076      339.712       13.231      855.439
12/24/2014  11:29:00     -456.151     -331.577      -11.410      218.326      177.670      107.138    47666.071    31566.681    11478.620       20.441        4.536      563.930      112.507        0.040      339.702       13.213      855.429
12/24/2014  11:30:00     -763.461     -460.353        1.835      389.419      263.726      155.071   151647.081    69551.524    24047.150       51.997       12.262      891.514      182.019        0.042      339.563       12.979      855.218
12/24/2014  11:31:00     -747.540     -355.292      -28.541      312.157      289.935      142.166    97442.190    84062.441    20211.165       44.375       10.086      827.677      154.685        0.035      339.568       12.988      855.246
12/24/2014  11:32:00     -581.049     -381.267      -26.963      280.325      247.614      126.757    78581.833    61312.882    16067.257       31.980        7.798      694.970      141.296        0.041      339.632       13.096      855.288
12/24/2014  11:33:00     -536.484     -419.298      -16.575      266.154      236.051      122.332    70837.817    55720.237    14965.097       30.268        7.076      680.901      126.700        0.035      339.590       13.026      855.254
12/24/2014  11:34:00     -692.851     -489.614      -10.343      282.423      270.095      137.118    79762.602    72951.213    18801.324       44.566        8.576      848.389      142.426        0.028      339.560       12.974      855.214
12/24/2014  11:35:00     -648.914     -208.002      -34.874      353.869      264.526      131.139   125223.063    69973.910    17197.546       33.894       10.620      681.435      159.368        0.055      339.575       13.000      855.236
12/24/2014  11:36:00     -553.519     -230.938       -5.381      312.379      244.710      127.304    97580.603    59882.871    16206.430       26.667        8.683      599.762      138.897        0.054      339.531       12.923      855.227
12/24/2014  11:37:00     -560.392     -334.837       -8.641      345.488      247.243      152.549   119361.989    61129.274    23271.203       31.496       10.188      652.806      178.475        0.075      339.531       12.926      855.228
12/24/2014  11:38:00     -508.117     -247.850      -15.717      270.206      185.740      112.295    73011.460    34499.330    12610.122       21.997        6.006      565.343      127.003        0.050      339.555       12.966      855.205
12/24/2014  11:39:00     -753.049     -450.324      -38.054      436.656      312.377      156.742   190668.149    97579.669    24568.013       54.201       15.641      877.425      199.427        0.052      339.384       12.678      855.128
12/24/2014  11:40:00     -767.481     -496.861      -28.117      409.936      304.348      168.831   168047.712    92627.699    28503.739       56.288       14.459      914.275      197.624        0.047      339.348       12.615      855.029
12/24/2014  11:41:00     -680.920     -394.964      -17.787      323.706      226.091      144.132   104785.497    51117.220    20774.172       39.829        8.834      787.178      163.398        0.043      339.397       12.698      855.069
12/24/2014  11:42:00     -570.953     -280.037      -19.076      278.348      239.602      124.060    77477.678    57409.110    15390.771       27.749        7.514      635.931      139.198        0.048      339.280       12.502      854.987
12/24/2014  11:43:00     -393.875     -297.848      -24.023      206.646      214.067      106.162    42702.567    45824.602    11270.311       17.209        4.990      493.813      114.803        0.054      339.275       12.492      854.968
12/24/2014  11:44:00     -563.709     -389.002      -34.998      251.799      225.059      130.815    63402.608    50651.525    17112.630       30.071        6.558      684.902      137.357        0.040      339.284       12.508      854.957
12/24/2014  11:45:00     -533.280     -246.839        6.499      329.884      281.501      135.576   108823.161    79242.981    18380.736       27.586       10.322      587.637      172.220        0.086      339.295       12.527      854.975
12/24/2014  11:46:00     -504.158     -256.007        0.695      285.708      249.527      137.069    81628.963    62263.707    18788.009       24.117        8.134      565.434      163.967        0.084      339.289       12.516      854.943
12/24/2014  11:47:00     -422.489     -321.032       -1.143      288.849      239.891      120.396    83433.839    57547.472    14495.078       21.849        7.774      530.621      143.667        0.073      339.306       12.544      854.931
12/24/2014  11:48:00     -528.038     -436.613        6.780      295.750      239.779      134.343    87467.925    57493.759    18048.033       31.622        8.150      685.168      165.211        0.058      339.247       12.446      854.901
12/24/2014  11:49:00     -412.588     -357.241      -12.056      232.364      213.221      125.814    53993.022    45463.060    15829.068       20.662        5.764      545.756      137.879        0.064      339.278       12.498      854.892
12/24/2014  11:50:00     -632.035     -350.611      -15.109      249.979      196.062      119.541    62489.358    38440.473    14289.988       31.890        5.761      722.770      115.550        0.026      339.197       12.361      854.824
12/24/2014  11:51:00     -638.638     -307.149      -12.096      273.468      241.184      123.097    74784.769    58169.718    15152.903       32.520        7.405      708.660      126.235        0.032      339.102       12.203      854.774
12/24/2014  11:52:00     -509.958     -244.555      -16.219      291.732      216.279      118.636    85107.351    46776.705    14074.544       23.301        7.298      565.566      142.718        0.064      339.073       12.153      854.807
12/24/2014  11:53:00     -403.489     -276.478        2.910      203.417      228.980      112.166    41378.566    52431.944    12581.108       17.280        5.320      489.125      119.644        0.060      339.061       12.134      854.829
12/24/2014  11:54:00     -521.345     -195.582       -5.701      226.416      210.296       99.606    51264.410    44224.261     9921.358       20.773        5.271      556.824      107.667        0.037      339.056       12.125      854.768
12/24/2014  11:55:00     -549.624     -309.130      -11.197      281.102      229.891      128.017    79018.184    52850.054    16388.346       27.298        7.413      630.594      136.631        0.047      338.980       11.997      854.767
12/24/2014  11:56:00     -526.572     -327.341      -17.516      266.666      184.199      129.208    71110.965    33929.190    16694.823       25.321        6.087      620.025      136.986        0.049      338.954       11.953      854.735
12/24/2014  11:57:00     -296.453     -203.425       -0.129      226.032      173.994      101.277    51090.281    30273.826    10257.120       11.043        4.581      359.536      125.718        0.122      339.006       12.042      854.681
12/24/2014  11:58:00     -424.817     -107.088      -11.613      229.336      198.883      105.836    52595.001    39554.429    11201.195       14.769        5.168      438.107      104.881        0.057      338.985       12.006      854.713
12/24/2014  11:59:00     -613.874     -295.040      -27.855      227.171      191.664      111.864    51606.656    36735.015    12513.583       28.274        5.043      681.094       97.966        0.021      338.871       11.813      854.640
12/24/2014  12:00:00     -544.934     -476.302      -40.414      230.125      210.070      116.871    52957.571    44129.579    13658.782       31.808        5.537      723.752      121.444        0.028      338.865       11.804      854.664
12/24/2014  12:01:00     -470.101     -341.476      -15.331      222.265      206.439      101.455    49401.602    42616.984    10293.206       22.005        5.116      581.035      110.654        0.036      338.898       11.859      854.670
12/24/2014  12:02:00     -395.994     -195.107       12.146      198.448      155.509       85.870    39381.532    24183.087     7373.680       13.297        3.547      441.450       94.935        0.046      338.939       11.929      854.681
12/24/2014  12:03:00     -392.752     -185.618      -15.215      254.031      177.267      104.001    64531.934    31423.640    10816.125       14.783        5.339      434.405      117.469        0.073      338.918       11.892      854.645
12/24/2014  12:04:00     -423.708     -341.798       -5.573      238.139      174.667      118.959    56710.238    30508.387    14151.244       19.886        5.068      544.384      135.770        0.062      338.881       11.831      854.624
12/24/2014  12:05:00     -455.110      -60.855       -8.890      255.174      140.874      101.382    65113.803    19845.349    10278.281       15.305        4.762      459.160      117.560        0.066      338.927       11.908      854.667
12/24/2014  12:06:00     -344.868     -164.129       19.386      237.221      213.366      111.464    56273.777    45524.966    12424.114       13.021        5.711      381.932      128.445        0.113      338.909       11.878      854.638
12/24/2014  12:07:00     -576.440     -330.446       -5.521      360.460      250.946      138.756   129931.175    62973.967    19253.140       32.679       10.608      664.437      166.537        0.063      338.772       11.647      854.573
12/24/2014  12:08:00     -477.242     -303.836      -25.770      287.307      219.134      100.460    82545.478    48019.922    10092.138       23.067        7.033      565.753      115.371        0.042      338.753       11.616      854.606
12/24/2014  12:09:00     -400.348     -333.200       -6.499      197.131      191.295      111.345    38860.805    36593.706    12397.645       17.958        4.393      520.866      112.257        0.046      338.787       11.674      854.641
12/24/2014  12:10:00     -542.413     -321.583      -18.467      283.435      284.563      129.770    80335.571    80976.284    16840.331       28.802        8.908      630.577      146.328        0.054      338.693       11.514      854.592
12/24/2014  12:11:00     -304.102     -139.405        2.044      182.499      179.533       92.671    33305.772    32231.939     8587.933        9.301        3.706      334.532       80.796        0.058      338.731       11.576      854.616
12/24/2014  12:12:00     -332.802     -177.652      -15.791      166.039      116.416       77.954    27568.929    13552.715     6076.855        9.487        2.360      377.250       57.105        0.023      338.674       11.483      854.604
12/24/2014  12:13:00     -270.687     -173.569       19.619      249.722      233.352      110.233    62360.842    54453.108    12151.216       11.635        6.448      321.555      131.454        0.167      338.610       11.376      854.553
12/24/2014  12:14:00     -350.405     -294.646      -14.615      217.855      201.083       88.331    47460.746    40434.530     7802.419       15.274        4.785      457.821      109.850        0.058      338.474       11.146      854.496
12/24/2014  12:15:00     -407.888     -351.776      -25.660      237.967      183.556      114.202    56628.217    33692.656    13042.091       19.705        5.168      538.627      139.512        0.067      338.343       10.926      854.439
12/24/2014  12:16:00     -607.996     -355.713      -13.389      314.922      224.045      127.436    99175.687    50195.954    16239.968       33.096        8.281      704.408      134.250        0.036      338.232       10.740      854.409
12/24/2014  12:17:00     -495.928     -230.753      -15.404      265.764      193.341      117.556    70630.374    37380.738    13819.442       21.061        6.092      546.984      140.820        0.066      338.148       10.599      854.333
12/24/2014  12:18:00     -420.374     -232.220       -6.281      254.739      185.272       93.424    64892.172    34325.636     8728.051       16.929        5.397      480.250      101.609        0.045      338.156       10.612      854.310
12/24/2014  12:19:00     -497.017     -275.788      -26.049      216.275      245.496      110.665    46774.819    60268.466    12246.638       22.150        5.964      568.406      117.209        0.043      338.116       10.546      854.347
12/24/2014  12:20:00     -413.845     -346.058       -1.727      270.398      209.415      122.667    73115.302    43854.441    15047.129       21.150        6.601      539.466      158.518        0.086      338.059       10.451      854.239
12/24/2014  12:21:00     -495.698     -332.196      -12.622      188.720      169.954       90.391    35615.197    28884.220     8170.605       21.444        3.634      596.717       91.592        0.024      338.038       10.417      854.132
12/24/2014  12:22:00     -418.049     -329.720      -15.665      229.808      199.013      113.873    52811.857    39605.999    12967.149       19.453        5.269      532.428      136.415        0.066      338.033       10.406      854.114
12/24/2014  12:23:00     -427.770     -232.866      -31.972      274.889      201.209      107.127    75564.084    40485.056    11476.293       18.285        6.376      487.045       90.749        0.035      338.010       10.369      854.054
12/24/2014  12:24:00     -442.402     -238.658        0.939      253.762      172.349       98.039    64395.165    29704.135     9611.562       17.817        5.186      502.670      108.394        0.046      337.998       10.349      854.038
12/24/2014  12:25:00     -466.872     -261.227      -14.504      294.980      224.074      114.932    87013.057    50209.276    13209.285       21.840        7.522      534.985      144.162        0.073      337.961       10.286      853.986
12/24/2014  12:26:00     -567.657     -259.939      -20.936      316.657      209.716      123.328   100271.841    43980.932    15209.877       27.482        7.973      624.342      138.938        0.050      337.928       10.229      853.944
12/24/2014  12:27:00     -521.622     -263.962      -41.807      265.244      205.200      115.027    70354.377    42107.084    13231.223       23.458        6.285      584.607      145.550        0.062      337.928       10.229      853.912
12/24/2014  12:28:00     -616.425     -465.409      -21.947      290.043      199.803      141.105    84124.745    39921.252    19910.618       37.048        7.198      772.390      157.210        0.041      337.980       10.319      853.875
12/24/2014  12:29:00     -550.218     -305.570       -2.990      240.105      231.218      122.949    57650.180    53461.835    15116.438       26.115        6.311      629.375      117.037        0.035      338.008       10.365      853.901
12/24/2014  12:30:00     -413.857     -190.155        9.973      271.334      197.452      119.857    73622.251    38987.443    14365.597       16.723        6.349      455.452      150.966        0.110      338.023       10.390      853.906
12/24/2014  12:31:00     -278.542     -234.628      -10.963      233.914      214.205      108.786    54715.830    45883.595    11834.353       12.257        5.622      364.192      126.532        0.121      338.010       10.369      853.883
12/24/2014  12:32:00     -370.184     -310.149        1.329      271.140      196.127      119.820    73516.730    38465.683    14356.914       17.976        6.317      482.938      148.237        0.094      337.993       10.339      853.795
12/24/2014  12:33:00     -339.288     -133.818       10.629      194.233      129.465       76.007    37726.511    16761.210     5777.130        9.669        3.013      364.724       94.210        0.067      337.996       10.346      853.789
12/24/2014  12:34:00     -435.816     -213.214      -48.818      207.167      194.294       91.005    42918.024    37750.080     8281.927       16.335        4.448      485.176       86.787        0.032      337.895       10.174      853.720
12/24/2014  12:35:00     -368.220     -315.961      -19.952      201.638      159.618       97.169    40657.864    25478.034     9441.764       15.568        3.779      485.198       90.042        0.034      337.866       10.126      853.679
12/24/2014  12:36:00     -422.924     -335.884      -12.929      217.681      178.520      112.335    47385.045    31869.429    12619.143       19.184        4.594      540.077      116.670        0.047      337.859       10.113      853.666
12/24/2014  12:37:00     -358.242     -254.848        6.105      190.190      155.024       85.861    36172.395    24032.539     7372.142       13.044        3.379      439.642       92.932        0.045      337.906       10.192      853.675
12/24/2014  12:38:00     -288.497     -260.626        9.110      223.889      179.674       93.697    50126.311    32282.729     8779.183       12.120        4.559      388.788      112.297        0.083      337.905       10.191      853.610
12/24/2014  12:39:00     -398.613     -244.054      -23.043      173.276      154.393       82.153    30024.439    23837.129     6749.183       13.979        3.031      467.392       84.786        0.033      337.881       10.151      853.545
12/24/2014  12:40:00     -412.459     -254.800      -13.634      203.496      203.961       93.786    41410.627    41600.064     8795.731       16.350        4.590      484.815      102.821        0.045      337.820       10.049      853.454
12/24/2014  12:41:00     -282.967     -150.955        2.922      194.109      135.614       76.411    37678.338    18391.263     5838.708        8.237        3.095      320.714      106.796        0.111      337.843       10.086      853.423
12/24/2014  12:42:00     -327.354     -229.658      -17.419      137.431      110.068       75.028    18887.228    12115.047     5629.275        9.841        1.832      399.879       67.691        0.029      337.845       10.089      853.367
12/24/2014  12:43:00     -318.086     -190.588       -0.343      186.046      155.247       83.686    34612.968    24101.726     7003.335       10.160        3.286      370.813      100.198        0.073      337.852       10.103      853.302
12/24/2014  12:44:00     -249.837     -235.383       -6.602      160.125      144.793       82.766    25640.175    20965.095     6850.219        8.565        2.673      343.254       94.165        0.075      337.898       10.178      853.312
12/24/2014  12:45:00     -537.478     -279.358      -19.663      228.529      219.449      101.210    52225.726    48157.723    10243.420       23.895        5.531      605.742      118.107        0.038      337.844       10.089      853.278
12/24/2014  12:46:00     -332.262     -250.590       -9.055      198.901      184.359       90.732    39561.534    33988.167     8232.383       12.751        4.089      416.166       95.632        0.053      337.829       10.064      853.166
12/24/2014  12:47:00     -278.076     -181.821       -0.029      149.409      129.489       67.041    22323.193    16767.385     4494.461        7.698        2.179      332.243       67.530        0.041      337.858       10.113      853.165
12/24/2014  12:48:00     -342.497     -231.894       -4.298      209.153      137.221       85.077    43744.944    18829.495     7238.090       12.044        3.491      413.617       85.337        0.043      337.862       10.118      853.090
12/24/2014  12:49:00     -344.470     -274.343      -17.661      204.068      166.802       76.329    41643.832    27822.788     5826.070       13.475        3.765      440.368       92.000        0.044      337.854       10.106      853.013
12/24/2014  12:50:00     -393.337     -250.960      -10.903      211.657      146.731       87.046    44798.695    21530.069     7577.063       14.585        3.695      466.578       88.190        0.036      337.868       10.129      852.861
12/24/2014  12:51:00     -346.329     -290.574       -2.600      203.716      186.840      104.421    41500.210    34909.140    10903.773       14.583        4.366      452.081      126.016        0.078      337.908       10.197      852.767
12/24/2014  12:52:00     -377.709     -266.565      -14.437      176.693      168.971       76.205    31220.534    28551.273     5807.195       13.974        3.279      462.300       72.830        0.025      337.922       10.221      852.711
12/24/2014  12:53:00     -105.548     -172.373       11.813      133.351      115.771       75.758    17782.523    13402.856     5739.216        3.895        1.846      202.121       74.271        0.135      337.967       10.295      852.593
12/24/2014  12:54:00     -295.916     -161.129        4.117      200.917      103.912       61.047    40367.464    10797.771     3726.792        8.421        2.745      336.941       64.332        0.036      337.955       10.277      852.532
12/24/2014  12:55:00     -321.491     -191.147       -4.060      140.983      124.137       75.553    19876.242    15409.934     5708.274        9.044        2.050      374.024       78.928        0.045      337.949       10.265      852.467
12/24/2014  12:56:00     -265.116     -152.479      -24.530      147.404      117.105       62.487    21727.913    13713.611     3904.685        6.673        1.967      305.837       74.309        0.059      337.991       10.336      852.371
12/24/2014  12:57:00     -238.612     -106.568       -5.438       96.569      101.263       49.757     9325.591    10254.254     2475.721        4.518        1.103      261.328       26.520        0.010      338.037       10.412      852.343
12/24/2014  12:58:00     -124.292     -118.495        0.273      112.315       83.110       43.937    12614.656     6907.315     1930.423        2.547        1.073      171.725       50.877        0.088      338.100       10.518      852.244
12/24/2014  12:59:00     -173.733     -146.937        5.464      107.507       83.190       54.236    11557.755     6920.562     2941.583        3.661        1.071      227.538       46.955        0.043      338.102       10.522      852.120
12/24/2014  13:00:00     -225.152     -182.993      -11.393      133.723      113.008       71.567    17881.934    12770.831     5121.816        6.003        1.789      290.137       69.814        0.058      338.063       10.457      852.063
12/24/2014  13:01:00     -436.528     -181.835      -23.384       92.123      105.929       60.344     8486.585    11221.036     3641.406       12.375        1.167      472.885       52.380        0.012      338.038       10.414      852.076
12/24/2014  13:02:00     -347.871     -166.861        1.054      186.292      177.280       92.741    34704.872    31428.130     8600.911       11.178        3.737      385.820       98.949        0.066      338.062       10.455      852.174
12/24/2014  13:03:00     -311.979     -231.048       -3.738      208.486      154.971      102.931    43466.308    24015.960    10594.729       11.439        3.904      388.219      111.530        0.083      338.077       10.480      852.271
12/24/2014  13:04:00     -339.625     -254.489      -11.492      159.776      116.868       78.777    25528.509    13658.133     6205.850       11.281        2.270      424.393       72.922        0.030      338.105       10.528      852.359
12/24/2014  13:05:00     -409.361     -260.678      -14.419      212.516      177.759       87.313    45162.934    31598.144     7623.530       16.004        4.219      485.314       92.882        0.037      338.115       10.543      852.350
12/24/2014  13:06:00     -374.666     -248.174      -37.057      162.132      146.223       72.082    26286.687    21381.297     5195.838       12.809        2.643      449.405       69.736        0.024      338.121       10.555      852.231
12/24/2014  13:07:00     -322.465     -186.369      -16.067      115.385       97.918       51.380    13313.748     9587.916     2639.905        8.225        1.277      372.447       46.419        0.016      338.092       10.506      852.112
12/24/2014  13:08:00     -315.863     -261.477        0.309      184.065      161.451      100.407    33879.852    26066.330    10081.536       11.907        3.501      410.048      104.027        0.064      338.139       10.583      852.110
12/24/2014  13:09:00     -317.167     -239.464        6.902      208.268      158.975       87.035    43375.755    25273.067     7575.079       11.709        3.811      397.415       98.099        0.061      338.125       10.560      852.030
12/24/2014  13:10:00     -320.899     -158.262      -19.022      148.999      154.786       76.731    22200.619    23958.839     5887.626        9.021        2.602      357.803       71.159        0.040      338.156       10.613      852.010
12/24/2014  13:11:00     -341.125     -274.186       11.252      239.240      263.685      115.900    57235.871    69529.741    13432.749       16.591        7.010      437.658       95.132        0.047      338.252       10.774      851.972
12/24/2014  13:12:00     -429.905     -267.052       -3.263      241.548      246.458      111.692    58345.216    60741.378    12475.211       19.383        6.578      506.098      126.455        0.062      338.288       10.833      851.970
12/24/2014  13:13:00     -325.075     -212.942       -1.187      175.641      151.937       83.207    30849.932    23084.721     6923.420       10.593        3.043      388.610       94.889        0.060      338.339       10.920      851.960
12/24/2014  13:14:00     -502.594     -362.209      -13.686      257.527      162.716      107.225    66319.993    26476.501    11497.268       24.412        5.215      619.513      119.284        0.037      338.232       10.741      851.922
12/24/2014  13:15:00     -586.244     -382.658      -36.830      213.188      192.179      106.322    45449.269    36932.874    11304.423       29.256        4.684      700.078      108.472        0.024      338.258       10.784      851.906
12/24/2014  13:16:00     -365.465     -177.093       -0.200      222.778      165.382      107.272    49630.241    27351.236    11507.365       12.669        4.424      406.112      115.108        0.080      338.299       10.853      851.900
12/24/2014  13:17:00     -317.828     -148.448        0.278      195.565      173.909       88.022    38245.750    30244.402     7747.903        9.963        3.812      350.787      103.329        0.087      338.347       10.933      851.962
12/24/2014  13:18:00     -319.874     -158.333        8.783      160.428      170.530       75.369    25737.283    29080.542     5680.436        9.397        3.025      356.915       89.769        0.063      338.304       10.860      852.007
12/24/2014  13:19:00     -360.089     -185.614      -17.046      188.412      182.206       84.209    35499.133    33199.118     7091.212       12.008        3.789      405.114       94.824        0.055      338.289       10.837      852.029
12/24/2014  13:20:00     -302.105     -197.599      -15.346      183.137      154.954       82.839    33539.332    24010.724     6862.281        9.747        3.221      360.989       91.791        0.065      338.286       10.830      852.029
12/24/2014  13:21:00     -384.998     -230.432      -21.661      186.312      174.468       67.348    34712.120    30439.151     4535.819       13.573        3.484      448.689       48.884        0.012      338.235       10.744      851.924
12/24/2014  13:22:00     -232.977     -183.586       -0.036      190.573      211.083       90.335    36318.162    44556.210     8160.437        8.849        4.452      296.618      104.556        0.124      338.302       10.859      851.888
12/24/2014  13:23:00     -402.289     -303.427      -20.078      193.234      192.190       87.149    37339.546    36937.068     7594.969       16.807        4.094      503.889       86.697        0.030      338.264       10.795      851.794
12/24/2014  13:24:00     -290.388     -228.962       -2.354      182.736      134.689       80.033    33392.379    18141.021     6405.203        9.733        2.897      369.796       93.598        0.064      338.280       10.823      851.752
12/24/2014  13:25:00     -359.129     -273.406      -12.953      251.123      155.366       88.822    63062.784    24138.578     7889.421       14.947        4.755      451.358      102.708        0.052      338.271       10.806      851.774
12/24/2014  13:26:00     -255.039     -264.537      -16.334      129.909      132.281       70.024    16876.256    17498.342     4903.375        8.728        1.964      367.457       73.957        0.041      338.276       10.816      851.779
12/24/2014  13:27:00     -265.967     -158.098        6.679      186.972      143.234       84.431    34958.644    20516.101     7128.622        7.918        3.130      309.408       83.439        0.073      338.270       10.804      851.759
12/24/2014  13:28:00     -289.857     -153.585       -1.527      146.638      142.824       82.377    21502.707    20398.658     6785.910        7.814        2.434      328.033       82.543        0.063      338.261       10.789      851.766
12/24/2014  13:29:00     -315.941     -244.405      -13.884      140.759       91.083       69.642    19813.046     8296.106     4849.957        9.635        1.648      399.441       65.753        0.027      338.241       10.756      851.773
12/24/2014  13:30:00     -245.034     -125.928      -13.521      124.070      108.843       56.354    15393.449    11846.742     3175.719        5.324        1.521      275.498       60.563        0.048      338.286       10.830      851.748
12/24/2014  13:31:00     -167.767      -64.705        8.483      154.277      124.618       69.215    23801.362    15529.569     4790.655        3.825        2.206      179.813       79.466        0.195      338.341       10.925      851.750
12/24/2014  13:32:00     -200.845     -127.972       -7.404      112.580      102.359       53.947    12674.173    10477.386     2910.239        4.141        1.303      238.150       53.462        0.050      338.271       10.806      851.770
12/24/2014  13:33:00     -305.835     -136.828      -22.241      109.004       92.554       53.882    11881.770     8566.150     2903.307        6.805        1.168      335.048       53.810        0.026      338.249       10.770      851.841
12/24/2014  13:34:00     -215.169     -125.458       -0.181      150.725      150.832       72.629    22718.036    22750.291     5274.930        5.638        2.537      249.073       86.142        0.120      338.292       10.842      851.891
12/24/2014  13:35:00     -302.301     -171.170       -8.916      166.444      136.291       81.132    27703.629    18575.282     6582.427        8.680        2.643      347.397       78.217        0.051      338.263       10.794      851.947
12/24/2014  13:36:00     -383.669     -155.200      -41.502      156.906      160.690       74.053    24619.639    25821.423     5483.824       11.446        2.796      413.871       58.721        0.020      338.156       10.613      851.621
12/24/2014  13:37:00     -272.941     -191.483        2.743      191.029      103.021       71.821    36492.020    10613.227     5158.213        8.171        2.613      333.411       77.637        0.054      338.252       10.774      851.843
12/24/2014  13:38:00     -156.963     -194.722      -22.154      128.534      103.213       77.506    16521.076    10652.853     6007.257        4.811        1.659      250.108       53.548        0.046      338.239       10.752      851.818
12/24/2014  13:39:00     -260.731     -138.312      -31.015       97.502       70.216       56.015     9506.599     4930.219     3137.663        5.282        0.879      295.146       55.373        0.035      338.235       10.744      851.666
12/24/2014  13:40:00     -169.428      -58.842       19.740      163.974      120.118       55.739    26887.391    14428.325     3106.849        3.848        2.221      179.355       79.484        0.196      338.236       10.749      851.755
12/24/2014  13:41:00     -130.099     -147.620        8.211      146.798      162.394       63.766    21549.591    26371.948     4066.147        4.538        2.599      196.768       41.866        0.045      338.161       10.623      851.793
12/24/2014  13:42:00     -132.556     -422.982       -5.233      231.092      226.769      110.948    53403.463    51424.308    12309.374       15.680        5.857      443.267      113.224        0.065      337.894       10.175      851.798
12/24/2014  13:43:00     -129.709     -516.357      -15.658      264.961      203.433      133.826    70204.315    41384.887    17909.417       20.657        6.475      532.399       82.532        0.024      337.663        9.786      851.759
12/24/2014  13:44:00     -264.769     -255.708       -1.975      212.760      187.915      104.310    45266.851    35312.140    10880.568       11.346        4.573      368.089       90.320        0.060      337.479        9.477      851.827
12/24/2014  13:45:00     -222.380     -285.326      -27.561      209.363      167.217       92.373    43832.845    27961.485     8532.779       10.596        4.016      361.751       71.396        0.039      337.415        9.372      851.888
12/24/2014  13:46:00     -207.112     -207.660       -9.297      186.035      118.670       80.631    34609.058    14082.552     6501.358        7.064        2.760      293.289       61.766        0.044      337.336        9.239      851.806
12/24/2014  13:47:00     -164.328     -280.922        4.882      224.757      189.581       88.341    50515.820    35941.123     7804.192       10.008        4.713      325.455       94.318        0.084      337.242        9.081      851.706
12/24/2014  13:48:00     -209.152     -273.584      -11.014      215.293      192.442      100.164    46350.966    37033.940    10032.756       10.605        4.671      344.373      120.470        0.122      337.188        8.991      851.720
12/24/2014  13:49:00     -200.235     -404.572      -20.323      246.550      226.903      107.844    60786.840    51484.902    11630.221       16.402        6.195      451.412      115.196        0.065      337.103        8.848      851.621
12/24/2014  13:50:00     -157.138     -510.055       -1.185      229.683      284.541      105.394    52754.423    80963.463    11107.980       21.481        7.241      533.711       87.874        0.027      337.044        8.750      851.570
12/24/2014  13:51:00     -170.006     -301.674      -10.156      150.955      175.608       74.323    22787.511    30838.015     5523.930        8.957        2.957      346.279       67.405        0.038      336.953        8.597      851.599
12/24/2014  13:52:00     -141.312     -306.019       -7.372      144.726      186.564       73.597    20945.728    34806.277     5416.524        8.741        3.058      337.070       77.195        0.052      336.877        8.470      851.565
12/24/2014  13:53:00      -68.292     -264.920       -6.428      154.405      118.800       72.581    23840.797    14113.367     5268.007        5.905        2.161      273.581       51.832        0.036      336.903        8.513      851.509
12/24/2014  13:54:00      -52.485     -250.481        6.807      215.901      156.788      101.311    46613.090    24582.332    10263.844        7.348        4.073      255.921       82.799        0.105      336.809        8.357      851.494
12/24/2014  13:55:00     -236.109     -386.403      -19.256      186.380      251.774       96.129    34737.494    63390.316     9240.730       15.638        5.368      452.829       89.179        0.039      336.684        8.149      851.461
12/24/2014  13:56:00     -241.690     -332.613        6.899      229.660      228.731      104.668    52743.573    52318.090    10955.427       14.253        5.801      411.152      111.421        0.073      336.596        8.002      851.395
12/24/2014  13:57:00     -282.516     -419.181      -23.561      165.990      203.650       85.897    27552.568    41473.465     7378.264       16.623        3.820      505.497       63.544        0.016      336.546        7.917      851.349
12/24/2014  13:58:00     -196.114     -268.232      -10.067      171.670      122.892       65.085    29470.691    15102.519     4236.050        7.965        2.440      332.279       68.144        0.042      336.502        7.843      851.335
12/24/2014  13:59:00     -101.499     -219.702       27.418      140.665      149.149       69.670    19786.565    22245.281     4853.942        5.309        2.344      242.014       71.142        0.086      336.481        7.809      851.351
12/24/2014  14:00:00     -200.116     -241.068      -23.305      161.012      171.666       62.654    25924.801    29469.176     3925.516        7.900        2.966      313.305       52.952        0.029      336.502        7.844      851.293
12/24/2014  14:01:00     -217.147     -188.487      -16.807      150.410      112.642       68.225    22623.317    12688.248     4654.584        6.146        1.998      287.541       55.613        0.037      336.493        7.829      851.235
12/24/2014  14:02:00     -132.366     -224.053       -5.434      123.464      136.826       66.595    15243.341    18721.345     4434.836        5.307        1.920      260.231       64.690        0.062      336.519        7.872      851.175
12/24/2014  14:03:00     -141.119     -205.825       -3.937      144.925      144.991       64.583    21003.328    21022.412     4170.966        5.424        2.310      249.556       56.354        0.051      336.488        7.819      851.068
12/24/2014  14:04:00     -146.434     -243.140        7.213      172.482      157.593       80.084    29750.154    24835.686     6413.461        7.079        3.050      283.831       84.135        0.088      336.463        7.778      851.038
12/24/2014  14:05:00     -169.989     -307.528       -5.384      113.835      140.310       61.680    12958.486    19686.810     3804.404        7.997        1.822      351.383       57.089        0.026      336.434        7.729      850.984
12/24/2014  14:06:00     -200.603     -178.615       23.601      171.405      139.133       73.188    29379.595    19358.111     5356.473        6.339        2.705      268.598       60.371        0.051      336.415        7.697      850.949
12/24/2014  14:07:00     -196.641     -201.652       13.833      155.838      119.667       66.555    24285.602    14320.273     4429.569        6.127        2.152      281.658       79.449        0.080      336.459        7.771      850.907
12/24/2014  14:08:00     -204.979     -234.848      -19.128      111.108      135.514       62.287    12345.067    18364.095     3879.694        6.606        1.729      311.721       61.497        0.039      336.440        7.738      850.843
12/24/2014  14:09:00     -164.016     -207.692       -6.102      111.882       80.337       49.318    12517.592     6453.991     2432.279        4.573        1.070      264.645       49.868        0.036      336.439        7.737      850.834
12/24/2014  14:10:00      -71.576      -77.275       28.619      101.006       92.322       53.416    10202.127     8523.383     2853.276        1.674        1.079      105.331       58.671        0.310      336.447        7.754      850.790
12/24/2014  14:11:00     -111.267     -178.374        8.053       90.741       97.359       46.214     8234.002     9478.726     2135.700        3.205        0.992      210.232       39.457        0.035      336.410        7.690      850.782
12/24/2014  14:12:00     -188.246     -177.124      -12.293       99.424      120.208       52.928     9885.187    14449.860     2801.397        4.704        1.357      258.475       57.947        0.050      336.402        7.677      850.706
12/24/2014  14:13:00     -153.696     -133.147       14.718      140.611      111.088       51.780    19771.516    12340.459     2681.202        3.817        1.740      203.348       59.286        0.085      336.403        7.678      850.647
12/24/2014  14:14:00     -104.199     -140.565        0.583      121.670      136.844       54.120    14803.644    18726.382     2928.950        3.353        1.823      174.974       65.101        0.138      336.483        7.812      850.563
12/24/2014  14:15:00     -120.278     -175.279       15.244      155.408       94.784       54.481    24151.743     8984.059     2968.181        4.076        1.805      212.578       41.416        0.038      336.399        7.670      850.533
12/24/2014  14:16:00      -72.788     -112.110       11.316       72.838       78.027       44.257     5305.318     6088.154     1958.654        1.567        0.668      133.666       42.456        0.101      336.410        7.690      850.476
12/24/2014  14:17:00      -93.126      -94.236       -6.309       97.734       56.132       37.518     9551.863     3150.751     1407.615        1.585        0.706      132.487       28.525        0.046      336.381        7.643      850.414
12/24/2014  14:18:00     -193.870     -202.662      -15.115      102.949       97.475       57.054    10598.467     9501.447     3255.208        5.112        1.168      280.459       57.819        0.043      336.357        7.599      850.405
12/24/2014  14:19:00     -139.504     -110.984        3.474      146.497       90.830       59.296    21461.364     8250.152     3516.067        3.250        1.661      178.266       65.282        0.134      336.466        7.782      850.397
12/24/2014  14:20:00     -104.740     -220.068       13.475      122.581      149.863       67.850    15026.080    22458.905     4603.585        5.083        2.104      243.722       64.821        0.071      336.468        7.785      850.467
12/24/2014  14:21:00     -145.625     -109.961       -0.526       75.023       69.387       42.618     5628.501     4814.547     1816.273        2.278        0.613      182.478       41.967        0.053      336.409        7.687      850.498
12/24/2014  14:22:00     -202.327     -162.182      -12.677      122.614       90.755       60.331    15034.192     8236.525     3639.771        4.715        1.346      259.305       57.154        0.049      336.401        7.674      850.424
12/24/2014  14:23:00     -186.332     -163.180       -5.298       94.733       94.938       58.800     8974.302     9013.160     3457.448        4.141        1.072      247.684       66.343        0.072      336.389        7.653      850.455
12/24/2014  14:24:00      -86.681      -69.623       20.579      119.102      106.532       64.455    14185.254    11348.965     4154.411        2.123        1.484      111.179       74.991        0.455      336.393        7.663      850.461
12/24/2014  14:25:00     -116.540      -38.611       14.252       77.363       62.898       41.502     5985.040     3956.172     1722.446        1.347        0.583      122.770       40.667        0.110      336.453        7.764      850.401
12/24/2014  14:26:00     -190.984      -80.592       -6.054       72.123       58.628       33.196     5201.697     3437.289     1101.952        2.637        0.487      207.292       33.037        0.025      336.370        7.624      850.361
12/24/2014  14:27:00     -109.152      -33.131        3.447       82.642       51.281       38.103     6829.653     2629.725     1451.854        1.197        0.546      114.070       42.966        0.142      336.375        7.635      850.324
12/24/2014  14:28:00     -152.452      -73.949       -7.649       70.429       49.310       30.661     4960.191     2431.516      940.111        1.855        0.417      169.440       34.086        0.040      336.321        7.542      850.300
12/24/2014  14:29:00     -146.673     -125.396      -13.416       52.142       42.815       27.672     2718.760     1833.090      765.719        2.137        0.266      192.969       28.038        0.021      336.300        7.506      850.306
12/24/2014  14:30:00     -125.149     -101.189       -5.202       66.261       50.870       28.246     4390.516     2587.784      797.854        1.685        0.389      160.939       31.126        0.037      336.359        7.607      850.303
12/24/2014  14:31:00     -132.152      -96.093        3.707       83.345       53.191       37.049     6946.415     2829.315     1372.659        1.893        0.557      163.396       26.500        0.026      336.355        7.599      850.310
12/24/2014  14:32:00     -122.829      -90.981       -4.426       50.618       50.815       28.884     2562.216     2582.151      834.304        1.468        0.299      152.855       22.849        0.022      336.397        7.670      850.320
12/24/2014  14:33:00     -154.251      -96.161        0.064       79.884       59.928       29.645     6381.482     3591.386      878.830        2.194        0.543      181.770       28.481        0.025      336.455        7.765      850.312
12/24/2014  14:34:00     -186.884      -71.011       -3.761       82.081       62.328       42.497     6737.282     3884.789     1805.959        2.620        0.621      199.921       41.294        0.043      336.464        7.780      850.323
12/24/2014  14:35:00     -220.224      -63.612        0.373       60.318       67.947       39.411     3638.241     4616.799     1553.192        3.117        0.490      229.227       40.222        0.031      336.431        7.722      850.308
12/24/2014  14:36:00     -187.739      -94.754       -1.859       67.073       69.849       33.779     4498.809     4878.838     1141.027        2.737        0.526      210.296       34.414        0.027      336.412        7.692      850.312
12/24/2014  14:37:00     -152.138      -61.173       -1.292       51.192       39.459       28.387     2620.630     1556.987      805.807        1.594        0.249      163.976       20.564        0.016      336.429        7.723      850.306
12/24/2014  14:38:00     -221.261      -66.485      -10.754      105.025       80.530       47.208    11030.232     6485.125     2228.624        3.661        0.987      231.034       51.027        0.049      336.447        7.752      850.274
12/24/2014  14:39:00     -216.341      -80.499        2.448      114.751       92.606       48.633    13167.764     8575.790     2365.197        3.869        1.205      230.833       53.177        0.053      336.407        7.683      850.230
12/24/2014  14:40:00     -300.878      -72.661      -18.317       91.916       83.216       48.321     8448.610     6924.954     2334.961        5.692        0.885      309.527       51.123        0.027      336.387        7.651      850.219
12/24/2014  14:41:00     -326.928      -60.813      -21.431       76.255       95.690       45.869     5814.833     9156.577     2103.988        6.405        0.854      332.536       29.563        0.008      336.374        7.628      850.211
12/24/2014  14:42:00     -279.060      -68.321      -10.528       94.025      125.245       51.840     8840.723    15686.380     2687.404        5.493        1.361      287.301       47.096        0.027      336.379        7.637      850.201
12/24/2014  14:43:00     -230.915      -45.064      -10.389       79.980       59.347       35.966     6396.740     3522.038     1293.556        3.333        0.561      235.271       28.973        0.015      336.361        7.607      850.159
12/24/2014  14:44:00     -171.556      -52.058        2.122       87.301       78.517       40.380     7621.528     6164.983     1630.555        2.378        0.771      179.280       44.281        0.061      336.420        7.706      850.169
12/24/2014  14:45:00     -335.814      -66.727      -16.462      167.947       95.631       65.782    28206.205     9145.285     4327.327        7.958        2.084      342.379       77.015        0.051      336.340        7.573      850.169
12/24/2014  14:46:00     -247.799      -80.632      -11.886      138.029      109.364       63.699    19052.070    11960.414     4057.581        5.155        1.754      260.587       68.555        0.069      336.352        7.592      850.136
12/24/2014  14:47:00     -248.632     -143.666      -16.661      114.599       90.824       58.854    13132.989     8248.949     3463.832        5.379        1.242      287.154       53.601        0.035      336.306        7.516      850.054
12/24/2014  14:48:00     -282.767     -138.638       -4.701      164.572      119.537       69.212    27083.894    14289.005     4790.241        7.267        2.308      314.925       72.116        0.052      336.281        7.473      849.995
12/24/2014  14:49:00     -290.956      -44.741        4.686      154.188      158.092       65.656    23773.906    24993.204     4310.670        6.987        2.654      294.376       59.419        0.041      336.344        7.578      850.014
12/24/2014  14:50:00     -192.992      -85.768       -0.881      117.952       74.897       50.157    13912.625     5609.534     2515.739        3.332        1.102      211.192       56.882        0.073      336.347        7.586      850.021
12/24/2014  14:51:00     -140.144      -90.704        7.064       90.089      111.411       58.407     8116.101    12412.514     3411.402        2.592        1.197      166.936       62.625        0.141      336.350        7.589      849.999
12/24/2014  14:52:00     -289.669     -126.443      -19.489      119.395      103.233       63.057    14255.118    10657.025     3976.183        6.458        1.444      316.063       68.543        0.047      336.310        7.522      849.974
12/24/2014  14:53:00     -341.285      -87.131      -21.589      183.827      117.480       72.264    33792.308    13801.594     5222.120        8.866        2.641      352.232       86.871        0.061      336.328        7.554      849.981
12/24/2014  14:54:00     -426.203      -25.462      -19.890      184.932      140.128       74.546    34199.741    19635.876     5557.057       12.103        2.970      426.963       79.488        0.035      336.325        7.547      850.044
12/24/2014  14:55:00     -310.397      -46.552       -7.220      132.789      101.434       60.895    17633.015    10288.901     3708.219        6.509        1.582      313.869       61.614        0.039      336.293        7.492      849.947
12/24/2014  14:56:00     -228.782      -78.185       -0.860      137.021      102.033       57.822    18774.715    10410.775     3343.366        4.549        1.626      241.773       66.323        0.075      336.308        7.519      849.943
12/24/2014  14:57:00     -267.795     -105.510      -14.318      156.430      111.108       64.083    24470.321    12345.034     4106.639        6.198        2.046      287.830       74.103        0.066      336.284        7.480      849.962
12/24/2014  14:58:00     -350.017     -139.721      -24.956      184.680      102.235       63.363    34106.831    10451.918     4014.824        9.561        2.429      376.874       87.931        0.054      336.237        7.401      849.942
12/24/2014  14:59:00     -159.028     -154.010       19.682      110.154      145.581       64.787    12133.887    21193.960     4197.323        4.345        1.876      221.380       59.076        0.071      336.311        7.524      849.979
12/24/2014  15:00:00     -121.215      -64.371        8.804       94.973       79.075       38.122     9019.855     6252.904     1453.278        1.782        0.836      137.247       36.858        0.072      336.320        7.541      849.946
12/24/2014  15:01:00     -226.807      -30.363       -4.877      121.545       85.370       59.317    14773.188     7288.032     3518.502        3.898        1.279      228.831       60.949        0.071      336.416        7.701      849.916
12/24/2014  15:02:00     -225.050     -112.734       -6.225      172.505      106.732       61.855    29758.104    11391.728     3826.024        5.418        2.249      251.707       64.592        0.066      336.299        7.505      849.945
12/24/2014  15:03:00     -228.037      -44.233       -2.950      118.092       90.336       63.519    13945.620     8160.680     4034.653        4.005        1.307      232.288       60.035        0.067      336.347        7.584      849.947
12/24/2014  15:04:00     -290.794      -49.316      -17.883      128.219       85.207       44.343    16440.145     7260.151     1966.305        5.648        1.283      294.946       43.328        0.022      336.327        7.551      849.935
12/24/2014  15:05:00     -335.921     -134.378       -8.630      141.965      135.120       61.663    20154.093    18257.508     3802.313        8.659        2.111      361.802       56.015        0.024      336.339        7.570      849.951
12/24/2014  15:06:00     -176.266     -129.168       -1.961       83.832       89.033       50.383     7027.729     7926.812     2538.417        3.262        0.875      218.527       48.394        0.049      336.362        7.610      850.004
12/24/2014  15:07:00     -189.385     -117.381       12.205      132.214      109.094       58.695    17480.538    11901.485     3445.087        4.130        1.641      222.812       69.830        0.098      336.416        7.701      849.950
12/24/2014  15:08:00     -197.544      -63.096       -0.036      212.865      104.244       84.634    45311.513    10866.892     7162.884        5.316        3.167      207.375      106.200        0.262      336.454        7.764      849.921
12/24/2014  15:09:00     -111.682      -14.211        6.868       99.610       79.115       60.571     9922.248     6259.223     3668.854        1.628        0.993      112.582       60.577        0.290      336.531        7.895      849.984
12/24/2014  15:10:00     -172.942      -91.673        1.570      133.131       86.411       57.159    17723.905     7466.792     3267.192        3.338        1.423      195.736       58.283        0.089      336.416        7.699      849.946
12/24/2014  15:11:00     -309.816      -20.256      -21.761      116.244       81.526       50.930    13512.664     6646.497     2593.856        5.981        1.138      310.478       51.361        0.027      336.454        7.763      849.952
12/24/2014  15:12:00     -333.079      -80.832      -24.982       95.468       76.469       38.819     9114.109     5847.478     1506.904        6.728        0.823      342.747       35.633        0.011      336.361        7.608      850.007
12/24/2014  15:13:00     -324.760      -24.501      -27.227       60.187       81.823       51.062     3622.497     6695.027     2607.344        5.987        0.646      325.683       41.203        0.016      336.296        7.499      850.060
12/24/2014  15:14:00     -272.232      -48.026       -6.124      118.165      134.082       54.742    13963.080    17978.030     2996.722        5.569        1.747      276.436       57.732        0.044      336.414        7.695      850.053
12/24/2014  15:15:00     -234.899     -139.230       -3.705      156.834      113.998       67.482    24596.779    12995.577     4553.866        5.835        2.107      273.061       72.631        0.071      336.378        7.636      850.019
12/24/2014  15:16:00     -459.266       30.584      -32.444      132.523       87.623       71.934    17562.241     7677.715     5174.436       12.166        1.521      460.284       66.159        0.021      336.332        7.560      849.970
12/24/2014  15:17:00     -331.525     -121.459      -10.424      119.973      101.516       57.549    14393.431    10305.490     3311.895        7.638        1.401      353.074       59.830        0.029      336.295        7.497      849.940
12/24/2014  15:18:00     -393.310      -82.875        2.553      177.483      141.937       76.877    31500.219    20146.072     5910.092       10.955        2.878      401.946       87.416        0.047      336.332        7.559      849.912
12/24/2014  15:19:00     -282.775     -102.143       -7.604      149.373      133.737       70.872    22312.404    17885.466     5022.790        6.783        2.261      300.657       79.935        0.071      336.420        7.705      849.893
12/24/2014  15:20:00     -197.976      -32.405       -0.236      150.254       98.838       57.413    22576.384     9768.975     3296.246        3.794        1.782      200.610       74.567        0.138      336.424        7.713      849.955
12/24/2014  15:21:00     -271.469     -141.045      -11.124      159.551      134.924       66.307    25456.399    18204.491     4396.574        7.088        2.403      305.923       77.695        0.065      336.434        7.729      849.975
12/24/2014  15:22:00     -447.748     -161.886      -32.697      211.793      242.291       85.192    44856.075    58705.153     7257.700       16.926        5.541      476.115       84.287        0.031      336.541        7.909      849.976
12/24/2014  15:23:00     -475.715     -148.595      -14.703      205.897      193.272       82.601    42393.755    37353.915     6822.884       16.757        4.329      498.383      100.751        0.041      336.580        7.973      849.981
12/24/2014  15:24:00     -367.948     -166.911       -8.480      190.711      160.465       86.661    36370.733    25749.030     7510.046       11.646        3.481      404.036       93.745        0.054      336.569        7.957      849.998
12/24/2014  15:25:00     -237.345      -74.153        7.180      125.489      131.461       59.189    15747.382    17282.029     3503.312        4.920        1.827      248.659       60.282        0.059      336.582        7.978      850.019
12/24/2014  15:26:00     -180.528      -72.874       18.264      129.888      108.315       59.273    16870.843    11732.192     3513.316        3.517        1.606      194.682       61.015        0.098      336.498        7.837      849.979
12/24/2014  15:27:00     -306.002      -95.623       -0.048      250.666      134.806       79.558    62833.268    18172.609     6329.452        9.504        4.367      320.594      108.786        0.115      336.538        7.903      849.985
12/24/2014  15:28:00     -227.292      -50.526       14.859      201.406      120.722       75.487    40564.350    14573.810     5698.282        5.762        3.042      232.840       83.625        0.129      336.480        7.807      850.035
12/24/2014  15:29:00     -169.031      -89.732       24.104      163.928      105.067       79.993    26872.453    11039.080     6398.911        4.075        2.216      191.372       88.387        0.213      336.494        7.830      850.065
12/24/2014  15:30:00     -303.439     -141.011      -18.693      217.146      167.369       92.175    47152.381    28012.535     8496.173        9.797        4.183      334.603      100.203        0.090      336.424        7.713      850.073
12/24/2014  15:31:00     -436.179     -262.767      -27.971      257.208      205.265      112.497    66155.763    42133.747    12655.585       19.049        6.047      509.214      124.424        0.060      336.379        7.637      850.048
12/24/2014  15:32:00     -310.303     -152.197       -4.742      183.319      126.985       76.956    33605.884    16125.188     5922.223        8.755        2.783      345.618       76.986        0.050      336.294        7.495      850.072
12/24/2014  15:33:00     -424.838     -228.531      -25.486      203.325      167.424       90.878    41341.085    28030.848     8258.876       15.548        3.882      482.404       91.696        0.036      336.297        7.501      850.044
12/24/2014  15:34:00     -446.529     -160.265      -17.306      168.363      127.752       80.038    28346.163    16320.650     6406.029       13.821        2.554      474.419       82.433        0.030      336.243        7.410      850.024
12/24/2014  15:35:00     -248.363      -22.300       -3.861      111.651      119.041       68.371    12465.979    14170.694     4674.647        4.675        1.566      249.363       66.880        0.072      336.289        7.488      850.050
12/24/2014  15:36:00     -275.747      -47.811        6.636      140.191      137.489       59.601    19653.475    18903.182     3552.278        6.023        2.105      279.862       67.708        0.059      336.229        7.388      850.066
12/24/2014  15:37:00     -268.069      -79.727       -0.900      140.721      122.619       67.233    19802.463    15035.487     4520.279        5.878        1.968      279.673       68.632        0.060      336.148        7.252      850.034
12/24/2014  15:38:00     -353.691     -134.815       -5.265      189.582      137.838       78.785    35941.243    18999.220     6207.123       10.221        3.057      378.513       86.370        0.052      336.157        7.266      850.023
12/24/2014  15:39:00     -424.319     -159.915      -51.456      187.626      199.040       88.119    35203.531    39617.103     7764.996       14.541        4.129      453.453       98.903        0.048      336.162        7.274      850.057
12/24/2014  15:40:00     -292.185      -44.991        3.603      160.509      148.485       77.818    25763.279    22047.866     6055.611        7.063        2.693      295.628       85.665        0.084      336.141        7.241      850.087
12/24/2014  15:41:00     -249.824     -189.811       -3.691      183.820      147.814       84.376    33789.740    21848.866     7119.279        8.059        3.138      313.752       94.819        0.091      336.124        7.211      850.070
12/24/2014  15:42:00     -331.010     -166.611      -23.323      146.291      129.439       69.123    21401.170    16754.385     4778.005        9.039        2.147      370.577       65.593        0.031      336.122        7.209      850.105
12/24/2014  15:43:00     -336.654      -38.101       -7.125      205.151      114.618       89.038    42086.839    13137.387     7927.822        8.898        3.158      338.803       98.999        0.085      336.157        7.267      850.086
12/24/2014  15:44:00     -426.002      -43.005       -7.623      246.963      165.601       91.212    60990.808    27423.591     8319.625       14.004        4.837      428.167      110.079        0.066      336.163        7.278      850.056
12/24/2014  15:45:00     -327.059      -67.641       -7.623      151.312      143.447       62.605    22895.463    20577.101     3919.437        7.949        2.370      333.981       62.828        0.035      336.141        7.240      850.116
12/24/2014  15:46:00     -171.676      -24.926       17.769      182.744      107.687       72.450    33395.546    11596.445     5249.033        4.032        2.512      173.476       92.282        0.283      336.174        7.296      850.110
12/24/2014  15:47:00     -161.124      -31.491        4.128      113.263       74.338       49.744    12828.443     5526.176     2474.469        2.390        1.041      164.172       55.537        0.114      336.166        7.284      850.123
12/24/2014  15:48:00     -369.626     -203.188      -21.984      137.334      109.996       62.841    18860.500    12099.116     3948.948       10.664        1.745      421.792       66.541        0.025      336.071        7.123      850.101
12/24/2014  15:49:00     -274.343       50.701       -5.553      168.946      196.362       94.930    28542.707    38558.130     9011.754        7.697        3.806      278.989       88.838        0.101      336.281        7.473      849.986
12/24/2014  15:50:00     -242.378     -124.159        2.469      136.009      103.607       61.150    18498.384    10734.356     3739.270        5.356        1.649      272.328       57.897        0.045      336.148        7.252      850.026
12/24/2014  15:51:00     -238.986     -138.287      -14.134      150.251      157.066       65.397    22575.502    24669.741     4276.741        6.397        2.576      276.111       39.201        0.020      336.150        7.255      850.003
12/24/2014  15:52:00     -295.301      -78.508      -22.839      147.900      105.102       71.283    21874.472    11046.375     5081.310        6.594        1.900      305.559       72.348        0.056      336.274        7.462      849.925
12/24/2014  15:53:00     -304.899     -139.247       -7.956      173.436      135.747       64.213    30080.092    18427.284     4123.291        8.251        2.632      335.191       63.760        0.036      336.256        7.433      849.902
12/24/2014  15:54:00     -274.384     -190.372       -5.337      215.557      163.761       99.823    46464.615    26817.513     9964.713        9.739        4.162      333.959      103.664        0.096      336.260        7.438      849.846
12/24/2014  15:55:00     -406.669     -236.775        0.193      192.984      133.518       90.296    37243.014    17827.044     8153.362       14.232        3.161      470.577       99.627        0.045      336.250        7.423      849.880
12/24/2014  15:56:00     -277.015     -157.117      -21.656      168.649      125.541       75.650    28442.490    15760.461     5722.968        7.590        2.496      318.470       75.932        0.057      336.261        7.439      849.928
12/24/2014  15:57:00     -368.138     -173.172      -16.121      184.719      158.747       71.115    34121.176    25200.483     5057.333       11.506        3.219      406.834       98.670        0.059      336.253        7.427      849.915
12/24/2014  15:58:00     -277.076     -149.496      -16.756      134.435      140.801       91.379    18072.899    19824.807     8350.134        7.282        2.312      314.834       82.572        0.069      336.229        7.386      849.857
12/24/2014  15:59:00     -250.725     -117.937      -15.348      157.622      119.657       60.284    24844.839    14317.760     3634.120        5.989        2.140      277.078       62.797        0.051      336.224        7.379      849.851
12/24/2014  16:00:00     -165.338     -156.127        4.741      142.924      171.601       86.732    20427.366    29447.073     7522.380        5.455        2.870      227.403       95.084        0.175      336.192        7.326      849.815
12/24/2014  16:01:00     -177.155     -104.940       -6.677      113.389      117.520       60.844    12856.955    13810.981     3702.022        3.640        1.518      205.904       64.482        0.098      336.245        7.414      849.791
12/24/2014  16:02:00     -215.306       -3.891       -7.455      151.222       97.056       73.151    22868.094     9419.853     5351.084        4.203        1.882      215.342       82.645        0.147      336.263        7.443      849.790
12/24/2014  16:03:00     -239.428       32.707       -1.601      154.588       92.861       59.959    23897.572     8623.108     3595.024        4.725        1.806      241.651       70.529        0.085      336.238        7.402      849.794
12/24/2014  16:04:00     -440.959      -63.739      -23.877      266.083      134.049       78.496    70800.063    17969.113     6161.662       14.698        4.747      445.541      107.784        0.059      336.193        7.327      849.829
12/24/2014  16:05:00     -416.742     -115.370      -11.074      168.128      127.705       64.282    28267.132    16308.472     4132.235       11.790        2.435      432.417       63.577        0.022      336.151        7.257      849.871
12/24/2014  16:06:00     -287.103      -95.013      -11.652      143.268      110.983       63.712    20525.681    12317.238     4059.168        6.424        1.845      302.416       68.930        0.052      336.180        7.307      849.879
12/24/2014  16:07:00     -358.649      -82.576      -14.407      178.970      107.537       65.174    32030.108    11564.218     4247.714        9.174        2.392      368.032       87.346        0.056      336.161        7.273      849.917
12/24/2014  16:08:00     -181.862     -139.974        4.106      152.259      138.029       84.824    23182.766    19051.873     7195.084        5.105        2.471      229.492       67.728        0.087      336.136        7.232      849.953
12/24/2014  16:09:00     -304.224      -11.956      -11.297      201.289      163.934       75.627    40517.096    26874.388     5719.492        8.295        3.656      304.459       90.837        0.089      336.153        7.259      849.923
12/24/2014  16:10:00     -333.264     -132.158      -24.720      159.016      122.036       74.430    25285.982    14892.776     5539.840        8.742        2.286      358.512       85.657        0.057      336.109        7.186      849.848
12/24/2014  16:11:00     -218.202     -130.425       -7.258      149.705      119.244       49.737    22411.462    14219.140     2473.809        5.188        1.955      254.210       58.135        0.052      336.123        7.211      849.835
12/24/2014  16:12:00     -325.437     -175.715       -2.049      161.066      163.781       72.598    25942.211    26824.254     5270.526        9.740        2.902      369.845       65.181        0.031      336.097        7.167      849.940
12/24/2014  16:13:00     -326.102      -77.227      -12.506      130.874      138.462       63.816    17128.055    19171.754     4072.469        7.641        2.019      335.122       65.176        0.038      336.084        7.146      850.018
12/24/2014  16:14:00     -374.899     -195.659      -15.767      188.428      186.324       72.141    35505.137    34716.774     5204.259       12.724        3.771      422.885       76.816        0.033      336.090        7.155      849.977
12/24/2014  16:15:00     -305.855      -40.477      -15.775      220.251      137.359       66.583    48510.379    18867.507     4433.345        8.361        3.591      308.521       90.122        0.085      336.120        7.205      850.025
12/24/2014  16:16:00     -493.186      -83.113      -20.728      169.563      150.530       86.288    28751.724    22659.200     7445.615       15.470        2.943      500.140       89.937        0.032      336.062        7.109      850.074
12/24/2014  16:17:00     -486.534     -243.328      -16.517      286.569      179.968       91.655    82121.686    32388.602     8400.706       20.953        6.146      543.989      113.947        0.044      335.938        6.902      850.023
12/24/2014  16:18:00     -631.543     -265.014      -14.911      347.777      219.353      122.467   120949.019    48115.900    14998.202       32.665        9.203      684.893      148.426        0.047      335.736        6.566      849.925
12/24/2014  16:19:00     -450.351     -350.243      -22.668      355.132      318.220      147.191   126118.520   101263.894    21665.198       28.747       12.452      570.514      175.630        0.095      335.716        6.532      849.947
12/24/2014  16:20:00     -366.461     -169.254       -4.845      265.773      188.939       95.304    70635.075    35697.921     9082.835       13.917        5.771      403.659      115.593        0.082      335.609        6.354      850.100
12/24/2014  16:21:00     -438.938     -226.988       -9.568      281.180      196.090      104.220    79062.134    38451.174    10861.877       18.630        6.419      494.156      116.779        0.056      335.406        6.013      850.170
12/24/2014  16:22:00     -382.611     -334.375      -14.301      260.391      196.155      120.933    67803.327    38476.838    14624.782       18.963        6.045      508.131      115.235        0.051      335.307        5.850      850.124
12/24/2014  16:23:00     -379.157      -59.136      -12.679      247.952      164.344       83.372    61480.017    27009.047     6950.957       12.141        4.772      383.741       93.187        0.059      335.375        5.964      850.153
12/24/2014  16:24:00     -468.952     -194.999      -23.854      218.858      190.724       92.333    47898.760    36375.554     8525.303       17.564        4.640      507.878       92.269        0.033      335.449        6.087      850.155
12/24/2014  16:25:00     -445.866     -237.812      -25.297      315.110      215.588      120.034    99294.169    46478.372    14408.066       20.805        8.009      505.323      124.921        0.061      335.578        6.301      850.242
12/24/2014  16:26:00     -379.217     -234.977       -7.079      238.861      226.336      132.866    57054.370    51227.969    17653.458       16.248        6.297      446.116      138.425        0.096      335.593        6.327      850.277
12/24/2014  16:27:00     -808.630     -246.924      -47.617      277.951      251.380      127.366    77256.712    63192.007    16222.098       43.687        7.834      845.490      139.853        0.027      335.610        6.355      850.321
12/24/2014  16:28:00     -559.320     -147.354      -25.926      339.662      218.934       98.325   115370.598    47931.942     9667.809       25.406        8.649      578.405      108.660        0.035      335.616        6.366      850.386
12/24/2014  16:29:00     -668.330     -154.812      -14.067      284.356      278.880      128.106    80858.224    77773.951    16411.191       32.290        8.752      686.026      119.943        0.031      335.464        6.113      850.430
12/24/2014  16:30:00     -578.178     -176.593        8.092      410.766      259.596      161.036   168728.860    67389.871    25932.546       31.374       13.103      604.546      216.307        0.128      335.339        5.903      850.463
12/24/2014  16:31:00     -416.745      -52.464        0.790      327.477      229.379      137.663   107241.006    52614.610    18951.157       17.758        8.940      420.035      165.737        0.156      335.345        5.913      850.547
12/24/2014  16:32:00     -832.623     -145.522      -40.416      471.378      288.196      162.395   222197.324    83056.804    26372.211       52.378       16.581      845.244      212.006        0.063      335.278        5.802      850.538
12/24/2014  16:33:00     -813.224      -66.689      -27.584      372.714      265.407      170.512   138915.779    70441.133    29074.374       45.244       11.922      815.953      194.897        0.057      335.241        5.740      850.574
12/24/2014  16:34:00     -486.648       -6.236      -29.213      259.061      186.436      118.462    67112.417    34758.379    14033.296       17.679        5.795      486.688      117.758        0.059      335.198        5.670      850.671
12/24/2014  16:35:00     -742.865        1.416      -62.584      275.734      267.479      118.535    76029.181    71544.790    14050.555       35.866        8.081      742.867      131.237        0.031      335.092        5.495      850.812
12/24/2014  16:36:00     -576.898     -187.905      -31.200      273.664      302.779      135.517    74891.807    91674.842    18364.948       27.698        9.247      606.729      151.142        0.062      334.966        5.287      850.857
12/24/2014  16:37:00     -564.671     -103.268      -15.223      255.604      239.578      123.123    65333.554    57397.691    15159.301       23.379        6.895      574.036      119.324        0.043      334.792        4.997      850.911
12/24/2014  16:38:00     -660.027        0.639      -65.431      207.902      160.368       90.471    43223.284    25718.049     8184.945       25.851        3.856      660.027       74.554        0.013      334.725        4.884      850.997
12/24/2014  16:39:00     -553.004     -116.340      -36.094      184.752      176.454       86.284    34133.416    31135.940     7445.011       19.667        3.636      565.109       87.463        0.024      334.675        4.800      851.168
12/24/2014  16:40:00     -432.722       -8.623      -30.399      320.535      234.057      131.348   102742.719    54782.661    17252.396       18.148        8.739      432.808      143.156        0.109      334.481        4.478      851.235
12/24/2014  16:41:00     -212.341      193.719      -37.006      180.772      180.207       92.072    32678.475    32474.643     8477.325        7.879        3.682      287.429      103.052        0.129      334.307        4.189      851.356
12/24/2014  16:42:00     -332.730       40.551      -49.128      181.237      207.753      105.683    32846.678    43161.498    11168.805       10.095        4.359      335.192       62.251        0.034      334.127        3.892      851.290
12/24/2014  16:43:00     -280.796       40.032      -23.933      224.206      200.125      120.822    50268.544    40050.020    14597.937        9.295        5.246      283.635      110.744        0.152      333.931        3.568      851.365
12/24/2014  16:44:00     -329.359       58.802      -47.475      142.090      159.974       88.743    20189.458    25591.787     7875.375        8.391        2.683      334.567       60.535        0.033      333.972        3.635      851.440
12/24/2014  16:45:00     -361.819      108.887      -45.793      162.146      220.464       95.204    26291.486    48604.288     9063.835       11.440        4.198      377.849       73.171        0.038      333.867        3.460      851.483
12/24/2014  16:46:00     -423.800       -9.296      -38.763      262.317      220.236       96.585    68810.307    48503.786     9328.611       15.389        6.332      423.902       90.200        0.045      333.778        3.312      851.517
12/24/2014  16:47:00     -435.110        9.713      -52.542      179.020      227.575      109.320    32048.192    51790.580    11950.790       14.396        4.789      435.218       63.997        0.022      333.795        3.340      851.493
12/24/2014  16:48:00     -373.446      122.629      -28.114      214.089      190.109      115.780    45834.191    36141.471    13405.024       12.532        4.769      393.064       97.076        0.061      333.808        3.362      851.540
12/24/2014  16:49:00     -383.134      154.723      -69.086      245.218      247.769      132.553    60131.968    61389.323    17570.358       15.727        6.955      413.196      132.859        0.103      333.752        3.269      851.522
12/24/2014  16:50:00     -510.761      246.963      -76.208      300.249      272.738      136.909    90149.650    74386.271    18744.171       25.544        9.164      567.334      144.090        0.065      333.629        3.067      851.524
12/24/2014  16:51:00     -308.292      148.255      -29.400      194.385      199.011      113.925    37785.443    39605.566    12979.017       10.411        4.519      342.087      103.538        0.092      333.648        3.098      851.501
12/24/2014  16:52:00     -383.089      109.449      -42.145      249.147      302.679      135.445    62074.467    91614.275    18345.296       16.624        8.602      398.417      129.011        0.105      333.574        2.974      851.491
12/24/2014  16:53:00     -450.378       -9.771      -56.154      304.129      318.219      122.964    92494.318   101263.332    15120.025       20.744       10.444      450.484      119.827        0.071      333.540        2.919      851.568
12/24/2014  16:54:00     -769.902      -87.234      -82.685      384.072      254.959      127.597   147511.206    65003.922    16280.882       41.795       11.440      774.828      135.590        0.031      333.533        2.907      851.611
12/24/2014  16:55:00     -943.827     -144.006      -65.636      367.786      291.072      154.849   135266.612    84722.748    23978.174       57.986       12.198      954.750      163.866        0.029      333.516        2.879      851.616
12/24/2014  16:56:00     -670.071      -88.051      -56.090      252.108      233.965      122.283    63558.660    54739.699    14953.095       29.655        6.663      675.832      121.436        0.032      333.458        2.782      851.731
12/24/2014  16:57:00     -410.554     -123.810       -2.861      224.979      203.267      105.673    50615.393    41317.383    11166.694       14.348        5.155      428.816      109.288        0.065      333.419        2.717      851.816
12/24/2014  16:58:00     -576.667      -57.264      -38.012      310.052      311.698      114.388    96132.395    97155.676    13084.526       27.178       10.319      579.503      110.361        0.036      333.352        2.607      851.976
12/24/2014  16:59:00     -624.787      -94.230      -57.777      349.095      257.362      111.212   121867.440    66235.104    12368.054       30.148       10.024      631.853      128.581        0.041      333.261        2.456      852.033
12/24/2014  17:00:00     -787.521     -279.177      -49.206      453.822      305.538      157.255   205954.462    93353.378    24729.070       51.223       16.202      835.541      157.039        0.035      333.220        2.389      851.981
12/24/2014  17:01:00     -544.220      -90.821      -51.743      307.475      218.196      120.887    94540.688    47609.377    14613.667       23.190        7.838      551.746      138.432        0.063      333.239        2.421      852.140
12/24/2014  17:02:00     -736.259     -114.094      -36.381      380.084      217.340      143.523   144463.897    47236.780    20598.848       38.432       10.615      745.047      179.047        0.058      333.320        2.554      852.161
12/24/2014  17:03:00     -555.447     -129.789      -12.002      331.878      228.448      126.426   110143.062    52188.490    15983.436       25.188        8.916      570.409      151.021        0.070      333.362        2.625      852.202
12/24/2014  17:04:00     -768.765       -4.006      -63.978      388.604      256.815      148.815   151012.881    65953.987    22146.040       41.706       11.956      768.775      178.740        0.054      333.368        2.634      852.244
12/24/2014  17:05:00     -893.573     -215.835      -47.147      322.695      283.711      146.946   104131.901    80491.813    21593.148       52.671       10.311      919.270      151.973        0.027      333.398        2.683      852.309
12/24/2014  17:06:00     -861.011     -102.728      -42.352      377.248      342.861      161.488   142316.351   117553.809    26078.299       51.976       14.297      867.117      180.789        0.043      333.420        2.720      852.315
12/24/2014  17:07:00     -585.761      -70.723      -36.437      248.126      202.417      102.999    61566.749    40972.818    10608.728       23.127        5.657      590.015      116.195        0.039      333.382        2.659      852.341
12/24/2014  17:08:00     -671.142     -127.741      -36.574      232.214      165.689       98.301    53923.518    27452.940     9663.180       27.955        4.552      683.191      108.198        0.025      333.320        2.556      852.397
12/24/2014  17:09:00     -384.128      -80.104        0.312      246.151      179.968      106.352    60590.468    32388.452    11310.819       12.911        5.214      392.392      127.418        0.105      333.330        2.571      852.364
12/24/2014  17:10:00     -414.977     -190.014      -32.878      316.667      177.276      106.576   100278.209    31426.631    11358.414       17.620        7.153      456.411      123.563        0.073      333.411        2.705      852.370
12/24/2014  17:11:00     -344.024     -158.237      -19.035      262.625      185.596      126.740    68971.942    34445.708    16063.032       13.159        5.974      378.670      136.558        0.130      333.498        2.849      852.306
12/24/2014  17:12:00     -340.191     -188.455      -30.902      221.006      170.292       99.895    48843.622    28999.505     9978.914       11.999        4.391      388.903      103.764        0.071      333.423        2.726      852.287
12/24/2014  17:13:00     -297.633     -277.718       19.382      219.703      196.411      115.350    48269.609    38577.292    13305.534       13.310        5.008      407.078      130.369        0.103      333.525        2.894      852.233
12/24/2014  17:14:00     -410.599     -234.347       -8.979      223.050      197.557      111.174    49751.480    39028.955    12359.585       16.235        5.057      472.769      116.547        0.061      333.607        3.029      852.158
12/24/2014  17:15:00     -319.186     -227.837       -7.167      178.406      163.141       84.002    31828.706    26615.017     7056.359       10.966        3.275      392.160       81.511        0.043      333.588        2.999      852.122
12/24/2014  17:16:00     -353.476     -185.947       -8.070      206.859      129.244       75.734    42790.503    16703.999     5735.607       11.240        3.262      399.401       78.168        0.038      333.578        2.982      852.060
12/24/2014  17:17:00     -533.181      -58.112      -41.509      350.512      192.437      113.006   122858.891    37032.143    12770.279       23.099        8.633      536.339      155.911        0.085      333.819        3.381      851.986
12/24/2014  17:18:00     -216.340     -142.434       15.457      161.384      140.109       82.001    26044.901    19630.476     6724.098        5.985        2.620      259.018       94.407        0.133      333.687        3.162      851.985
12/24/2014  17:19:00     -356.225     -194.073       -9.367      251.075      153.675       87.037    63038.636    23616.076     7575.356       12.942        4.712      405.660      101.976        0.063      333.670        3.135      851.964
12/24/2014  17:20:00     -325.951     -213.031       -5.327      181.361      148.320       74.036    32891.734    21998.700     5481.376       10.600        3.019      389.392       76.427        0.039      333.586        2.995      851.991
12/24/2014  17:21:00     -371.615     -291.472      -18.189      211.981      150.869       90.447    44935.794    22761.590     8180.669       14.962        3.794      472.285      108.114        0.052      333.493        2.841      852.035
12/24/2014  17:22:00     -330.195     -174.197       10.527      183.747      149.814       79.546    33763.038    22444.190     6327.628       10.100        3.127      373.328       89.548        0.058      333.498        2.849      852.072
12/24/2014  17:23:00     -387.465     -262.534       -0.939      223.788      138.160       85.567    50081.164    19088.276     7321.757       14.776        3.825      468.031       96.719        0.043      333.489        2.835      852.104
12/24/2014  17:24:00     -335.340     -226.020        1.565      175.066      130.045       78.014    30647.998    16911.738     6086.125       10.858        2.682      404.398       85.417        0.045      333.440        2.752      852.131
12/24/2014  17:25:00     -424.275     -279.166       -2.930      142.854      152.608       84.472    20407.307    23289.174     7135.556       15.438        2.542      507.880       74.200        0.021      333.369        2.637      852.114
12/24/2014  17:26:00     -341.851     -223.407      -33.599      149.207      118.155       76.519    22262.610    13960.704     5855.166       10.498        2.104      408.378       77.628        0.036      333.346        2.598      852.129
12/24/2014  17:27:00     -336.578     -191.245       -4.812      179.251      150.573       81.823    32130.770    22672.157     6695.067       10.568        3.075      387.116       91.046        0.055      333.315        2.547      852.157
12/24/2014  17:28:00     -204.090     -129.533       11.635      148.464      147.340       69.036    22041.543    21708.962     4765.925        5.353        2.426      241.726       81.840        0.115      333.282        2.492      852.215
12/24/2014  17:29:00     -313.858      -84.008       -3.368      147.103      117.564       70.196    21639.423    13821.191     4927.472        7.297        2.019      324.906       63.041        0.038      333.293        2.511      852.285
12/24/2014  17:30:00     -195.184     -148.899        1.668      145.985      130.177       70.603    21311.656    16946.130     4984.758        5.175        2.162      245.495       69.377        0.080      333.308        2.537      852.341
12/24/2014  17:31:00     -223.270     -145.463        3.338      158.401       93.258       59.363    25090.721     8697.069     3523.924        5.416        1.866      266.475       68.106        0.065      333.296        2.514      852.348
12/24/2014  17:32:00     -228.957     -159.110       -0.940      147.273       98.459       74.227    21689.220     9694.085     5509.616        5.731        1.845      278.814       81.669        0.086      333.291        2.507      852.396
12/24/2014  17:33:00     -177.966     -106.269       13.200      179.253      138.005       72.662    32131.719    19045.329     5279.775        4.979        2.823      207.280       84.749        0.167      333.350        2.606      852.470
12/24/2014  17:34:00     -287.614     -130.556        9.158      161.267      123.197       76.042    26006.905    15177.394     5782.424        7.340        2.348      315.858       89.159        0.080      333.355        2.613      852.517
12/24/2014  17:35:00     -289.411     -165.354       -7.598      109.590       81.384       62.390    12010.008     6623.399     3892.456        6.684        1.126      333.318       56.493        0.029      333.403        2.691      852.564
12/24/2014  17:36:00     -284.054      -37.207      -12.571      138.834       79.174       61.204    19274.872     6268.574     3745.910        5.575        1.464      286.480       62.384        0.047      333.432        2.739      852.618
12/24/2014  17:37:00     -109.478      -71.813        5.223       94.084       74.631       41.091     8851.783     5569.822     1688.452        1.664        0.806      130.930       42.962        0.108      333.492        2.840      852.709
12/24/2014  17:38:00     -172.068      -76.623      -17.048       88.620      103.273       46.099     7853.488    10665.377     2125.107        2.820        1.032      188.357       38.724        0.042      333.502        2.855      852.821
12/24/2014  17:39:00     -113.645        5.486        0.470       60.882       53.566       32.196     3706.617     2869.288     1036.567        1.028        0.381      113.777       28.008        0.061      333.487        2.833      852.948
12/24/2014  17:40:00     -121.939      -46.163       -1.645       63.303       61.564       32.770     4007.302     3790.093     1073.892        1.294        0.444      130.384       30.301        0.054      333.537        2.916      853.032
12/24/2014  17:41:00     -176.226       21.085       -7.154      118.226       52.510       37.719    13977.271     2757.266     1422.713        2.485        0.908      177.483       46.684        0.069      333.618        3.050      853.141
12/24/2014  17:42:00     -272.964      -70.700      -15.144      185.342      137.022       78.961    34351.784    18775.143     6234.866        6.954        2.968      281.971       77.190        0.075      333.867        3.460      853.341
12/24/2014  17:43:00     -688.092        7.716      -85.015      398.223      366.119      148.158   158581.889   134043.301    21950.851       39.760       15.729      688.135      159.122        0.053      333.985        3.656      853.557
12/24/2014  17:44:00     -679.216     -106.961     -122.042      409.697      426.879      173.793   167851.754   182225.539    30204.055       43.390       19.014      687.587      104.209        0.023      333.019        2.057      853.750
12/24/2014  17:45:00     -965.145        8.412      -90.698      323.369      258.405      127.131   104567.751    66773.224    16162.418       56.362        9.375      965.181      138.916        0.021      332.683        1.501      853.775
12/24/2014  17:46:00     -498.301     -152.759       -2.747      278.674      212.904      119.100    77659.275    45328.124    14184.728       20.438        6.859      521.191      117.835        0.051      332.651        1.450      853.750
12/24/2014  17:47:00     -599.640      -65.287      -27.484      284.748      224.062      115.205    81081.518    50203.865    13272.150       25.454        7.228      603.184      130.728        0.047      332.667        1.476      853.791
12/24/2014  17:48:00     -631.127       34.703      -33.385      246.145      211.863      107.858    60587.213    44886.047    11633.284       25.885        5.855      632.080      119.837        0.036      332.671        1.483      853.789
12/24/2014  17:49:00     -652.237      -62.961      -48.886      282.905      196.381      106.397    80035.384    38565.584    11320.255       28.082        6.496      655.269      118.753        0.033      332.635        1.423      853.744
12/24/2014  17:50:00     -822.669     -139.652      -72.431      227.575      215.444      112.654    51790.163    46416.062    12690.974       40.619        5.545      834.438      120.844        0.021      332.696        1.525      853.704
12/24/2014  17:51:00     -532.010      -90.994      -39.890      179.235      141.620       87.471    32125.180    20056.340     7651.119       17.636        2.992      539.736       92.683        0.029      332.679        1.496      853.695
12/24/2014  17:52:00     -530.328     -188.011      -28.179      183.646      163.620       83.389    33725.966    26771.660     6953.670       19.241        3.373      562.669       78.526        0.019      332.735        1.587      853.668
12/24/2014  17:53:00     -419.404      -97.815      -32.283      188.390      155.144       75.541    35490.629    24069.804     5706.502       12.587        3.263      430.659       63.977        0.022      332.833        1.749      853.694
12/24/2014  17:54:00     -552.630      -25.004      -54.503      237.791      210.326       85.403    56544.378    44236.856     7293.624       20.851        5.404      553.196       79.805        0.021      333.055        2.116      853.734
12/24/2014  17:55:00     -311.198       70.247      -30.280      206.252      131.506       93.432    42539.998    17293.703     8729.498        8.562        3.428      319.028       94.222        0.087      333.205        2.364      853.810
12/24/2014  17:56:00     -443.745      -50.660      -28.774      329.020      259.066      136.669   108254.309    67115.130    18678.414       19.714        9.702      446.627      135.365        0.092      333.287        2.499      853.892
12/24/2014  17:57:00     -382.020     -115.408      -39.824      358.531      287.891      135.339   128544.656    82881.512    18316.698       19.525       11.487      399.072      139.042        0.121      333.285        2.498      853.889
12/24/2014  17:58:00     -296.275      -15.418      -21.637      254.384      219.388      114.009    64711.401    48131.307    12998.145       10.714        6.292      296.676       98.875        0.111      333.298        2.518      853.962
12/24/2014  17:59:00     -361.339       82.277      -54.595      211.284      243.963      110.980    44640.720    59517.735    12316.591       12.837        5.824      370.588      112.551        0.092      333.266        2.467      854.067
12/24/2014  18:00:00     -502.010      119.399      -70.066      256.968      207.155      115.961    66032.430    42913.105    13446.971       19.676        6.120      516.014      130.240        0.064      333.161        2.291      854.100
12/24/2014  18:01:00     -285.886      136.100      -38.257      216.698      150.548       87.628    46958.100    22664.628     7678.695        8.949        3.865      316.629       85.043        0.072      333.181        2.325      854.138
12/24/2014  18:02:00     -219.862       98.578      -26.837      150.037      147.291      103.339    22511.023    21694.746    10678.890        5.682        2.744      240.950       88.181        0.134      333.136        2.251      854.152
12/24/2014  18:03:00     -347.007      131.144      -20.435      226.472      161.471      125.120    51289.757    26072.900    15655.121       11.551        4.651      370.961      130.107        0.123      333.073        2.148      854.209
12/24/2014  18:04:00     -387.386       80.159      -46.930      193.334      194.784       91.343    37377.963    37940.905     8343.551       12.116        4.183      395.592      105.785        0.072      333.058        2.123      854.223
12/24/2014  18:05:00     -235.514       78.623      -37.308      180.058      133.513       90.864    32420.750    17825.811     8256.346        6.076        2.925      248.291       90.649        0.133      333.016        2.052      854.250
12/24/2014  18:06:00     -253.236       50.837      -25.145      146.627      221.866       87.744    21499.584    49224.676     7699.074        7.287        3.921      258.288       81.170        0.099      332.996        2.018      854.259
12/24/2014  18:07:00     -214.787      168.920      -33.582      174.582      112.237       83.714    30478.721    12597.068     7008.079        6.293        2.504      273.254       86.939        0.101      332.989        2.007      854.283
12/24/2014  18:08:00     -163.014       28.732        4.970      126.818      146.405       74.474    16082.834    21434.306     5546.325        3.524        2.153      165.526       64.632        0.152      332.977        1.986      854.240
12/24/2014  18:09:00     -357.578      109.124      -43.291      211.688      269.217      120.550    44811.666    72477.564    14532.270       13.671        6.591      373.858      126.839        0.115      332.920        1.893      854.262
12/24/2014  18:10:00     -339.275      178.447      -61.146      198.157      171.891       86.341    39266.142    29546.486     7454.838       11.346        3.813      383.342       73.530        0.037      332.872        1.814      854.204
12/24/2014  18:11:00     -351.004       91.921      -38.080      152.024      116.991       70.903    23111.215    13686.903     5027.230        8.746        2.091      362.841       59.517        0.027      332.821        1.730      854.236
12/24/2014  18:12:00     -303.752      183.359      -50.911      165.329       93.513       78.432    27333.633     8744.613     6151.647        8.535        2.111      354.803       75.892        0.046      332.826        1.737      854.215
12/24/2014  18:13:00     -294.693       47.215      -54.370      153.984      166.554       80.261    23710.978    27740.169     6441.769        7.495        2.895      298.451       85.799        0.083      332.840        1.760      854.194
12/24/2014  18:14:00     -349.285       51.371      -31.956      135.030      138.012       72.810    18233.041    19047.266     5301.287        8.411        2.129      353.043       57.915        0.027      332.905        1.868      854.180
12/24/2014  18:15:00     -116.416       50.086      -11.862      136.333      127.166       71.333    18586.802    16171.285     5088.461        2.802        1.992      126.734       84.534        0.445      333.008        2.039      854.209
12/24/2014  18:16:00     -204.897       66.968      -32.017      132.123      120.970       58.488    17456.613    14633.776     3420.849        4.149        1.776      215.563       73.661        0.117      333.075        2.152      854.255
12/24/2014  18:17:00     -287.663        7.633      -27.425      140.069      129.220       59.325    19619.222    16697.740     3519.414        6.169        1.992      287.764       71.846        0.062      333.061        2.127      854.278
12/24/2014  18:18:00     -208.935       24.396       -5.411      188.922      107.418       80.197    35691.594    11538.661     6431.532        4.896        2.683      210.355       76.959        0.134      333.071        2.144      854.284
12/24/2014  18:19:00     -132.400       45.873      -10.410      115.827      111.581       75.715    13415.875    12450.391     5732.802        2.566        1.580      140.121       79.567        0.322      333.063        2.131      854.305
12/24/2014  18:20:00     -216.386       50.163      -18.464      168.971      103.649       70.815    28551.274    10743.030     5014.759        4.699        2.215      222.124       68.484        0.095      333.055        2.120      854.329
12/24/2014  18:21:00     -229.036      114.083      -43.626      129.353      148.912       80.406    16732.110    22174.833     6465.054        5.636        2.269      255.876       83.328        0.106      333.025        2.067      854.361
12/24/2014  18:22:00     -194.842       80.683      -35.182      138.454      103.685       56.878    19169.518    10750.610     3235.129        3.943        1.658      210.887       62.669        0.088      333.025        2.069      854.390
12/24/2014  18:23:00     -238.805      122.263      -26.936       93.404      113.624       61.338     8724.325    12910.383     3762.290        4.904        1.270      268.283       41.647        0.024      333.046        2.100      854.419
12/24/2014  18:24:00     -323.154      113.404      -49.899      141.001      207.056       95.327    19881.341    42872.015     9087.238        9.580        3.592      342.475       94.621        0.076      333.052        2.113      854.437
12/24/2014  18:25:00     -137.386       10.290        4.588      146.362      148.283       81.342    21421.867    21987.843     6616.554        3.450        2.501      137.771       81.212        0.347      333.072        2.146      854.448
12/24/2014  18:26:00     -245.705       11.240      -36.220      102.678      166.030       58.636    10542.860    27565.941     3438.151        5.167        2.077      245.962       39.923        0.026      333.047        2.102      854.466
12/24/2014  18:27:00     -294.892       52.535      -14.198      188.426      166.343       87.546    35504.394    27669.919     7664.275        8.037        3.542      299.535       81.001        0.073      333.072        2.145      854.487
12/24/2014  18:28:00     -152.609       19.725      -27.407      106.625       95.874       44.070    11368.855     9191.758     1942.151        2.346        1.125      153.879       43.057        0.078      333.096        2.186      854.534
12/24/2014  18:29:00     -130.658       38.276      -10.792      122.783      108.322       75.071    15075.622    11733.681     5635.709        2.554        1.622      136.150       79.985        0.345      333.095        2.186      854.509
12/24/2014  18:30:00     -181.391       67.576      -30.848      115.347      111.808       64.920    13304.944    12501.008     4214.656        3.421        1.501      193.569       72.952        0.142      333.043        2.096      854.529
12/24/2014  18:31:00     -251.656       -4.470      -37.542       84.455      105.770       53.668     7132.622    11187.380     2880.219        4.298        1.060      251.695       53.831        0.046      333.011        2.042      854.528
12/24/2014  18:32:00     -213.470       94.558      -37.291      183.891      157.987       74.693    33816.076    24959.797     5579.049        6.012        3.218      233.475       98.855        0.179      333.058        2.124      854.521
12/24/2014  18:33:00     -211.082       70.131      -33.996      106.710      148.190       59.635    11386.994    21960.233     3556.375        4.376        1.845      222.428       53.484        0.058      333.035        2.084      854.524
12/24/2014  18:34:00     -311.812      -19.023      -17.839      192.390      117.976       61.180    37013.885    13918.351     3742.945        7.628        2.734      312.392       81.317        0.068      333.017        2.054      854.516
12/24/2014  18:35:00     -190.432      -66.939       -5.258      170.869       96.494       64.044    29196.171     9311.105     4101.616        4.168        2.130      201.854       62.512        0.096      333.040        2.092      854.553
12/24/2014  18:36:00     -112.947      -12.390       14.787      154.382       90.056       71.954    23833.897     8110.016     5177.401        2.512        1.856      113.625       78.465        0.477      333.054        2.117      854.553
12/24/2014  18:37:00     -138.378       67.008       -4.301      114.032      151.279       67.454    13003.403    22885.321     4550.029        3.204        2.022      153.748       65.206        0.180      333.092        2.180      854.584
12/24/2014  18:38:00     -235.964      -70.550       -1.470      180.528      109.886       64.065    32590.448    12075.028     4104.347        5.470        2.438      246.285       73.950        0.090      333.084        2.165      854.566
12/24/2014  18:39:00     -267.669       43.861      -34.275      175.878      128.606       64.856    30933.035    16539.416     4206.290        6.320        2.584      271.239       65.578        0.058      333.098        2.188      854.611
12/24/2014  18:40:00     -115.430      -59.554        5.546      134.245       92.203       58.804    18021.809     8501.475     3457.910        2.344        1.499      129.888       62.653        0.233      333.124        2.233      854.580
12/24/2014  18:41:00     -284.743      -74.645      -19.400      160.282       96.427       61.994    25690.300     9298.102     3843.231        6.292        1.942      294.365       60.721        0.043      333.110        2.209      854.587
12/24/2014  18:42:00     -210.068       -4.169        5.967      156.282      203.360       83.513    24424.160    41355.248     6974.490        5.845        3.638      210.110       75.354        0.129      333.163        2.296      854.584
12/24/2014  18:43:00     -326.082     -117.019       -9.990      160.571      113.160       65.362    25783.082    12805.252     4272.193        8.148        2.143      346.443       72.782        0.044      333.163        2.294      854.575
12/24/2014  18:44:00     -224.038      -10.540      -20.337      136.200      118.068       63.497    18550.460    13940.075     4031.891        4.361        1.826      224.286       60.513        0.073      333.160        2.291      854.569
12/24/2014  18:45:00     -152.347      -39.163        1.391       91.869       88.101       56.087     8439.829     7761.829     3145.736        2.204        0.967      157.300       43.079        0.075      333.162        2.292      854.544
12/24/2014  18:46:00     -256.302      -40.190       -6.200      157.442       92.130       64.879    24788.120     8487.865     4209.241        5.241        1.874      259.433       73.204        0.080      333.150        2.275      854.529
12/24/2014  18:47:00     -274.700      -51.000      -15.150      183.765      108.480       73.954    33769.395    11767.904     5469.251        6.464        2.550      279.394       70.830        0.064      333.204        2.363      854.508
12/24/2014  18:48:00     -219.775      -35.697      -11.759      185.305      202.693       78.295    34337.975    41084.622     6130.152        6.562        4.078      222.655       77.573        0.121      333.268        2.468      854.518
12/24/2014  18:49:00     -132.953       50.412        3.674      107.912      104.830       71.345    11644.983    10989.315     5090.108        2.397        1.386      142.190       41.517        0.085      333.306        2.533      854.512
12/24/2014  18:50:00     -174.107       41.275      -16.460      178.290      168.078       82.141    31787.173    28250.236     6747.116        4.952        3.339      178.933       60.730        0.115      333.298        2.520      854.534
12/24/2014  18:51:00     -217.050      155.359      -13.778      147.140      172.541       87.599    21650.203    29770.420     7673.518        6.525        2.955      266.921       85.970        0.104      333.316        2.549      854.553
12/24/2014  18:52:00     -182.823      -60.040      -16.017       98.881      108.358       53.206     9777.457    11741.422     2830.870        3.081        1.217      192.429       45.970        0.057      333.338        2.586      854.567
12/24/2014  18:53:00     -166.272      -32.570       -4.632      103.483      100.700       60.926    10708.786    10140.393     3712.015        2.664        1.228      169.432       56.319        0.110      333.343        2.595      854.575
12/24/2014  18:54:00     -211.762      -12.559       -9.702      162.297      108.129       65.663    26340.239    11691.825     4311.587        4.371        2.117      212.134       48.926        0.053      333.331        2.573      854.561
12/24/2014  18:55:00     -233.248      -46.512      -21.512      137.712      123.319       64.155    18964.506    15207.695     4115.895        4.765        1.914      237.840       44.610        0.035      333.330        2.571      854.572
12/24/2014  18:56:00     -200.056      110.651      -36.032      107.317      179.182       77.960    11516.930    32106.221     6077.722        5.162        2.485      228.618       66.547        0.085      333.347        2.600      854.602
12/24/2014  18:57:00     -445.802      161.069      -70.960      167.942      177.769       75.035    28204.524    31601.963     5630.216       14.756        3.272      474.007       70.953        0.022      333.354        2.612      854.600
12/24/2014  18:58:00     -297.112      -55.603       -7.699      169.843      170.567       78.643    28846.526    29093.146     6184.665        7.776        3.206      302.271       65.959        0.048      333.379        2.653      854.575
12/24/2014  18:59:00     -209.476      116.365      -27.794      108.900      136.369       71.020    11859.251    18596.492     5043.872        4.684        1.775      239.627       70.419        0.086      333.415        2.711      854.618
12/24/2014  19:00:00     -270.721      -29.983      -34.283      169.950      172.389       75.220    28882.948    29717.872     5657.976        6.980        3.213      272.376       65.636        0.058      333.401        2.689      854.639
12/24/2014  19:01:00     -243.472       89.017      -33.775      129.101      148.704       70.652    16666.950    22112.824     4991.680        5.605        2.189      259.235       50.205        0.038      333.373        2.643      854.664
12/24/2014  19:02:00     -186.569      -29.426       -2.557      137.459       97.839       60.602    18894.952     9572.379     3672.575        3.390        1.607      188.875       48.458        0.066      333.358        2.621      854.651
12/24/2014  19:03:00     -322.305      -38.576      -33.793      152.149      107.901       68.656    23149.330    11642.582     4713.635        7.300        1.975      324.605       40.031        0.015      333.343        2.593      854.678
12/24/2014  19:04:00     -342.566      -61.070       -8.492      212.028      162.547       84.844    44955.977    26421.410     7198.556        9.985        3.929      347.967       48.484        0.019      333.366        2.631      854.648
12/24/2014  19:05:00     -215.990       77.522      -31.799      140.890      124.103       70.447    19850.029    15401.582     4962.714        4.694        2.011      229.481       67.903        0.088      333.377        2.649      854.702
12/24/2014  19:06:00     -108.576       37.442       -0.879       89.229       94.240       56.130     7961.784     8881.132     3150.573        1.659        1.000      114.851       51.688        0.203      333.389        2.670      854.706
12/24/2014  19:07:00     -234.990      -39.620        0.612      131.548      102.344       60.111    17304.989    10474.388     3613.385        4.409        1.570      238.306       47.037        0.039      333.341        2.590      854.706
12/24/2014  19:08:00     -198.793       92.027      -29.913      113.196       94.893       60.665    12813.340     9004.639     3680.230        3.719        1.275      219.061       47.220        0.046      333.375        2.644      854.749
12/24/2014  19:09:00     -141.955      110.154      -14.513      104.264      125.220       67.502    10871.039    15680.133     4556.521        3.180        1.555      179.680       54.844        0.093      333.390        2.669      854.748
12/24/2014  19:10:00     -164.210       64.358      -23.057      111.836      190.418       73.585    12507.355    36258.950     5414.768        4.290        2.709      176.372       58.312        0.109      333.380        2.655      854.763
12/24/2014  19:11:00     -272.867       77.152      -24.057      138.655       96.840       64.967    19225.184     9378.011     4220.771        5.690        1.641      283.564       64.747        0.052      333.410        2.703      854.788
12/24/2014  19:12:00     -222.862      211.717      -54.902      130.650      118.920       53.573    17069.386    14141.995     2870.039        6.579        1.704      307.395       50.059        0.027      333.438        2.749      854.817
12/24/2014  19:13:00     -220.093       85.461      -38.333      115.615      187.749       75.543    13366.752    35249.637     5706.785        5.576        2.716      236.103       58.402        0.061      333.416        2.714      854.819
12/24/2014  19:14:00     -275.750      150.436      -39.205      162.500      178.105       82.359    26406.314    31721.349     6782.954        8.255        3.246      314.116       69.857        0.049      333.424        2.728      854.816
12/24/2014  19:15:00      -74.769       25.669       -7.430      118.163      137.709       91.370    13962.606    18963.854     8348.431        2.378        2.064       79.052       88.245        1.246      333.409        2.702      854.837
12/24/2014  19:16:00     -248.533      186.134      -18.902      161.210      164.869       92.310    25988.566    27181.927     8521.151        7.922        3.085      310.506       86.326        0.077      333.411        2.707      854.828
12/24/2014  19:17:00     -197.919       60.303      -28.431      129.916      134.547       66.024    16878.271    18102.922     4359.219        4.147        1.967      206.902       63.210        0.093      333.464        2.793      854.857
12/24/2014  19:18:00     -125.511      120.214      -13.045       79.833      141.339       70.750     6373.324    19976.739     5005.559        3.086        1.568      173.794       51.015        0.086      333.458        2.783      854.873
12/24/2014  19:19:00     -218.133       35.158      -30.830      128.394       92.349       58.279    16485.019     8528.276     3396.419        3.908        1.420      220.948       20.532        0.009      333.448        2.766      854.894
12/24/2014  19:20:00     -239.019       44.568      -34.315      132.855      116.348       71.800    17650.520    13536.759     5155.209        4.831        1.817      243.139       60.394        0.062      333.430        2.738      854.902
12/24/2014  19:21:00     -200.634       50.840        3.794      166.609      154.498       93.630    27758.549    23869.747     8766.561        5.161        3.020      206.975       77.256        0.139      333.413        2.710      854.897
12/24/2014  19:22:00     -232.600      -14.667      -18.692      157.357      152.861       69.284    24761.315    23366.422     4800.232        5.379        2.646      233.062       67.389        0.084      333.417        2.717      854.893
12/24/2014  19:23:00     -217.299      144.526      -37.114      142.617      156.712       90.425    20339.722    24558.686     8176.709        6.127        2.654      260.973       85.703        0.108      333.396        2.681      854.934
12/24/2014  19:24:00     -249.751      105.768      -35.617      178.797      149.717       77.223    31968.189    22415.245     5963.385        6.758        3.017      271.224       90.871        0.112      333.423        2.725      854.934
12/24/2014  19:25:00     -245.508       13.249      -13.835      123.419      200.971       78.861    15232.290    40389.338     6219.028        6.123        3.092      245.865       63.332        0.066      333.368        2.636      854.949
12/24/2014  19:26:00     -134.941       84.140      -28.586       92.066      111.893       61.165     8476.097    12520.071     3741.212        2.542        1.237      159.024       53.514        0.113      333.421        2.723      854.984
12/24/2014  19:27:00     -114.125      138.385      -14.187       98.772      117.050       68.348     9755.881    13700.587     4671.420        3.025        1.406      179.374       77.166        0.185      333.409        2.703      855.032
12/24/2014  19:28:00     -144.452      204.111      -23.663      103.304      114.684       60.194    10671.772    13152.492     3623.287        4.526        1.372      250.055       63.107        0.064      333.414        2.710      855.077
12/24/2014  19:29:00     -148.427      361.605      -38.466      106.729      159.875       74.752    11390.998    25559.870     5587.801        9.840        2.127      390.882       70.668        0.033      333.368        2.635      855.113
12/24/2014  19:30:00     -135.445      194.734      -33.457       78.614      126.423       49.830     6180.106    15982.706     2483.017        4.101        1.232      237.207       45.910        0.037      333.376        2.647      855.147
12/24/2014  19:31:00     -111.591      204.076      -33.527      105.842      101.447       57.648    11202.504    10291.547     3323.315        4.002        1.241      232.593       54.340        0.055      333.346        2.598      855.165
12/24/2014  19:32:00      -86.607      168.120      -15.934       90.727       90.702       66.047     8231.306     8226.855     4362.173        2.842        1.041      189.117       53.616        0.080      333.344        2.596      855.174
12/24/2014  19:33:00     -182.091      112.108      -27.316      199.379      128.075       68.368    39751.924    16403.289     4674.236        5.364        3.041      213.835       84.184        0.155      333.335        2.582      855.120
12/24/2014  19:34:00     -198.140      211.194      -39.634      111.494      131.408       73.162    12430.822    17268.178     5352.656        6.024        1.753      289.590       79.256        0.075      333.327        2.567      855.099
12/24/2014  19:35:00     -214.476      205.296      -24.758      128.516      138.972       72.100    16516.246    19313.253     5198.391        6.489        2.051      296.894       62.333        0.044      333.323        2.560      855.068
12/24/2014  19:36:00     -225.422      226.260      -55.116      111.983      151.044       86.895    12540.116    22814.367     7550.800        7.397        2.145      319.388       63.819        0.040      333.353        2.610      855.073
12/24/2014  19:37:00     -126.210      148.485        0.715      131.853      150.946       73.223    17385.094    22784.585     5361.620        4.175        2.277      194.876       77.769        0.159      333.323        2.560      855.055
12/24/2014  19:38:00      -95.309       57.706       -4.924      109.890      136.844       63.028    12075.824    18726.392     3972.480        2.360        1.739      111.417       58.210        0.273      333.350        2.607      855.059
12/24/2014  19:39:00     -146.247      132.335      -33.233      144.467      194.418       79.163    20870.669    37798.463     6266.829        5.246        3.247      197.233       82.656        0.176      333.308        2.537      855.062
12/24/2014  19:40:00     -206.882       81.826      -25.747      104.880      125.456       62.494    10999.876    15739.103     3905.560        4.040        1.532      222.476       55.923        0.063      333.318        2.552      855.055
12/24/2014  19:41:00      -86.412       28.275      -13.557      116.332       99.613       64.246    13533.052     9922.781     4127.543        1.801        1.379       90.921       57.867        0.405      333.359        2.620      855.055
12/24/2014  19:42:00     -254.107      192.726      -46.300      179.964      184.762       94.631    32386.890    34136.846     8954.954        8.965        3.774      318.926      105.552        0.110      333.314        2.545      855.092
12/24/2014  19:43:00     -126.828      166.150      -26.004       87.378      106.452       66.816     7634.960    11332.023     4464.375        3.389        1.172      209.024       64.577        0.095      333.294        2.511      855.125
12/24/2014  19:44:00     -150.430      100.004      -25.238       95.337       74.950       61.923     9089.164     5617.521     3834.475        2.590        0.927      180.638       59.264        0.108      333.322        2.559      855.155
12/24/2014  19:45:00     -204.534      -20.211      -33.243      115.591      129.304       73.832    13361.215    16719.584     5451.221        3.943        1.777      205.530       48.400        0.055      333.257        2.450      855.166
12/24/2014  19:46:00     -166.610      186.725      -27.866      104.681      130.144       57.444    10958.015    16937.428     3299.866        4.729        1.560      250.250       34.257        0.019      333.290        2.504      855.222
12/24/2014  19:47:00     -172.876       71.172      -29.271       99.693       84.094       55.627     9938.695     7071.786     3094.310        2.795        1.005      186.954       41.710        0.050      333.261        2.459      855.219
12/24/2014  19:48:00     -111.705       12.519      -16.962       80.679       73.892       55.353     6509.092     5460.055     3063.935        1.397        0.752      112.405       40.696        0.131      333.253        2.445      855.210
12/24/2014  19:49:00     -134.299       12.934      -10.033      174.607      104.448       62.314    30487.633    10909.463     3883.065        3.178        2.264      134.920       64.246        0.227      333.233        2.411      855.258
12/24/2014  19:50:00      -96.292        9.167       -0.245      210.748      163.993       74.684    44414.765    26893.771     5577.676        4.311        3.844       96.728      104.961        1.177      333.204        2.365      855.260
12/24/2014  19:51:00      -18.776      105.074        7.470       41.498       93.146       41.933     1722.048     8676.211     1758.362        1.180        0.608      106.738       32.778        0.094      333.197        2.352      855.280
12/24/2014  19:52:00     -154.310      179.456      -19.068      114.909      153.085       75.080    13204.143    23435.150     5636.932        4.932        2.114      236.677       65.175        0.076      333.203        2.362      855.297
12/24/2014  19:53:00     -171.401      279.051      -47.740      111.554      147.270       69.942    12444.357    21688.586     4891.833        7.427        1.951      327.487       72.057        0.048      333.176        2.316      855.307
12/24/2014  19:54:00     -153.340      134.215      -11.111      110.994      164.184       60.972    12319.658    26956.493     3717.592        4.231        2.150      203.781       40.329        0.039      333.191        2.341      855.265
12/24/2014  19:55:00     -264.384      186.224      -30.378      156.891      151.337       90.513    24614.932    22902.814     8192.536        8.059        2.786      323.386       72.968        0.051      333.206        2.366      855.280
12/24/2014  19:56:00     -253.183      299.836      -50.948      190.817      209.010       93.698    36411.260    43685.368     8779.279       12.272        4.444      392.432       97.999        0.062      333.206        2.367      855.306
12/24/2014  19:57:00     -190.776       64.556      -29.329      118.753      133.086       68.532    14102.312    17711.866     4696.679        3.896        1.826      201.403       46.768        0.054      333.212        2.376      855.274
12/24/2014  19:58:00     -267.276       77.942      -21.016      137.207      135.738       69.300    18825.770    18424.886     4802.447        5.999        2.103      278.409       62.874        0.051      333.199        2.352      855.334
12/24/2014  19:59:00     -348.448      172.621      -62.396      180.399      222.196       94.972    32543.913    49370.846     9019.751       12.300        4.547      388.863       78.436        0.041      333.272        2.476      855.328
12/24/2014  20:00:00     -296.379      322.821      -51.414      134.915      209.779       90.117    18202.004    44007.233     8121.038       13.250        3.517      438.240       76.199        0.030      333.320        2.553      855.306
12/24/2014  20:01:00     -322.970       77.890      -50.203      259.068      168.129      106.233    67116.086    28267.391    11285.385       10.976        5.333      332.230      125.763        0.143      333.268        2.469      855.282
12/24/2014  20:02:00     -327.013      173.084      -56.499      237.959      174.642      122.447    56624.304    30499.979    14993.356       12.108        5.106      369.993      123.806        0.112      333.273        2.477      855.284
12/24/2014  20:03:00     -343.727       30.046      -36.830      209.438      131.521       90.989    43864.129    17297.872     8278.924        9.491        3.472      345.038       78.975        0.052      333.284        2.495      855.236
12/24/2014  20:04:00     -453.337       12.632      -57.080      247.774      190.171      126.578    61391.919    36164.847    16022.030       16.123        5.679      453.513      129.043        0.081      333.226        2.399      855.252
12/24/2014  20:05:00     -307.248      248.481      -56.565      255.393      170.340      109.957    65225.349    29015.849    12090.549       13.282        5.317      395.151      109.139        0.076      333.250        2.439      855.287
12/24/2014  20:06:00     -356.711      473.146      -78.118      171.473      239.583      110.881    29402.896    57399.888    12294.697       22.813        4.955      592.546      121.715        0.042      333.223        2.395      855.277
12/24/2014  20:07:00     -299.482      357.253      -67.822      156.692      184.604      101.166    24552.435    34078.806    10234.625       14.538        3.443      466.176      101.855        0.048      333.211        2.372      855.245
12/24/2014  20:08:00     -364.873      391.599      -60.968      169.758      186.491      115.814    28817.619    34779.042    13412.925       18.359        3.850      535.240      102.728        0.037      333.197        2.351      855.206
12/24/2014  20:09:00     -453.079      473.856      -88.131      240.735      193.364      117.192    57953.229    37389.510    13733.899       27.331        5.454      655.607      134.447        0.042      333.160        2.289      855.217
12/24/2014  20:10:00     -397.096      461.404      -98.432      183.322      220.388      109.268    33607.040    48570.995    11939.444       23.717        4.706      608.752      114.137        0.035      333.139        2.255      855.212
12/24/2014  20:11:00     -293.072      446.421      -71.287      180.223      219.517      100.822    32480.437    48187.890    10165.030       19.053        4.542      534.025      115.048        0.046      333.104        2.198      855.250
12/24/2014  20:12:00     -207.351      210.911      -34.121      138.328      175.015       87.958    19134.528    30630.303     7736.638        7.306        2.875      295.767       85.833        0.084      333.090        2.176      855.236
12/24/2014  20:13:00     -203.441      199.450      -30.100      112.429      127.412       77.286    12640.261    16233.846     5973.060        5.845        1.742      284.901       74.226        0.068      333.071        2.144      855.216
12/24/2014  20:14:00     -276.987      238.269      -50.813      117.521      201.262       73.863    13811.276    40506.515     5455.711        9.791        2.989      365.368       69.849        0.037      333.078        2.156      855.210
12/24/2014  20:15:00     -227.674       92.121      -16.916      116.299      126.279       83.424    13525.541    15946.324     6959.515        4.851        1.822      245.605       74.454        0.092      333.064        2.131      855.194
12/24/2014  20:16:00     -153.184      130.094      -15.524      130.343      114.381       66.826    16989.344    13082.931     4465.776        3.758        1.727      200.972       69.978        0.121      333.061        2.127      855.199
12/24/2014  20:17:00     -222.810      213.082      -52.443      144.286      187.121       84.687    20818.546    35014.391     7171.969        8.039        3.150      308.299       96.974        0.099      333.080        2.159      855.223
12/24/2014  20:18:00     -255.612      186.604      -15.556      158.168      124.012       92.748    25017.260    15378.881     8602.250        7.469        2.450      316.479       88.572        0.078      333.044        2.098      855.231
12/24/2014  20:19:00     -185.227       84.016      -29.081      123.638      155.035       93.583    15286.260    24035.802     8757.835        4.514        2.404      203.390       80.238        0.156      333.095        2.183      855.217
12/24/2014  20:20:00     -323.418      164.155      -68.861      228.528      168.238       81.660    52225.178    28303.954     6668.347       11.173        4.360      362.693       73.191        0.041      333.076        2.151      855.229
12/24/2014  20:21:00     -216.826      149.491      -24.987      187.648      147.504       82.979    35211.942    21757.347     6885.481        6.691        3.193      263.365       95.803        0.132      333.016        2.052      855.269
12/24/2014  20:22:00     -287.500      127.968      -45.598      179.243      118.396       80.751    32128.090    14017.695     6520.765        7.688        2.633      314.694       87.382        0.077      332.997        2.021      855.300
12/24/2014  20:23:00     -139.626      182.148      -27.697      107.870      171.596       70.184    11635.854    29445.091     4925.806        4.971        2.300      229.507       61.852        0.073      333.003        2.031      855.283
12/24/2014  20:24:00     -266.921       73.262      -43.922      119.860      133.744       79.725    14366.482    17887.325     6356.025        5.857        1.930      276.793       46.754        0.029      332.992        2.012      855.304
12/24/2014  20:25:00     -305.648      154.919      -30.994      210.117      183.955       97.178    44149.043    33839.433     9443.485       10.289        4.372      342.666      102.575        0.090      332.992        2.012      855.305
12/24/2014  20:26:00     -220.939      148.241      -45.618      131.056      137.268       57.603    17175.601    18842.485     3318.071        5.610        1.967      266.063       53.930        0.041      332.990        2.009      855.358
12/24/2014  20:27:00     -343.909      244.484      -69.102      171.413      184.759      103.601    29382.470    34135.974    10733.217       12.852        3.713      421.955      118.851        0.079      332.985        2.001      855.373
12/24/2014  20:28:00     -345.982      203.871      -54.575      170.422      200.570       90.082    29043.768    40228.520     8114.838       12.080        3.869      401.580       79.091        0.039      333.006        2.036      855.388
12/24/2014  20:29:00     -235.678      285.558      -37.471      152.180      157.867       91.374    23158.862    24922.117     8349.217        9.745        2.822      370.253       83.530        0.051      332.987        2.004      855.438
12/24/2014  20:30:00     -169.412      185.006      -44.584      126.984      184.090       83.365    16124.977    33888.948     6949.796        6.093        2.848      250.854       91.878        0.134      333.016        2.054      855.444
12/24/2014  20:31:00     -266.080      198.968      -31.191      204.282      107.952       70.677    41731.277    11653.602     4995.252        8.486        2.919      332.245       57.495        0.030      332.970        1.977      855.419
12/24/2014  20:32:00     -269.677      127.328      -40.395      109.370      109.171       52.547    11961.764    11918.202     2761.201        5.860        1.332      298.225       36.129        0.015      332.958        1.954      855.445
12/24/2014  20:33:00     -237.407      216.566      -36.302      172.767      161.351       78.801    29848.459    26034.239     6209.594        8.332        3.105      321.346       75.228        0.055      332.964        1.966      855.484
12/24/2014  20:34:00     -179.301      208.235      -23.129      103.185      127.665       66.256    10647.068    16298.477     4389.872        5.368        1.567      274.792       70.391        0.066      332.962        1.963      855.518
12/24/2014  20:35:00      -92.755       85.260       -7.695      111.136      140.571       64.058    12351.118    19760.317     4103.456        2.607        1.811      125.987       60.284        0.229      332.916        1.889      855.565
12/24/2014  20:36:00     -258.401      281.744      -53.432      153.020      153.808       85.078    23415.140    23656.924     7238.305       10.165        2.716      382.297       86.022        0.051      332.958        1.955      855.606
12/24/2014  20:37:00     -206.969      245.020      -41.503      137.660      100.188       81.683    18950.387    10037.637     6672.125        7.012        1.783      320.735       84.541        0.069      332.915        1.886      855.601
12/24/2014  20:38:00     -215.974      175.662      -36.501      185.282      130.000       77.922    34329.305    16899.965     6071.916        6.806        2.865      278.392       84.410        0.092      332.914        1.884      855.600
12/24/2014  20:39:00     -297.169      420.472      -70.296      182.935      172.626      104.933    33465.281    29799.597    11011.008       17.215        3.714      514.884      108.206        0.044      332.932        1.913      855.586
12/24/2014  20:40:00     -206.569      209.381      -31.982      125.656      161.829       78.059    15789.320    26188.524     6093.186        6.779        2.404      294.128       75.601        0.066      332.932        1.913      855.610
12/24/2014  20:41:00     -195.433      123.306      -25.032      150.777      156.856       81.703    22733.733    24603.689     6675.390        5.401        2.701      231.081       75.512        0.107      332.900        1.862      855.627
12/24/2014  20:42:00     -224.950      402.114      -67.826      129.644      184.976       83.007    16807.619    34216.033     6890.142       13.739        2.896      460.759       81.497        0.031      332.897        1.855      855.629
12/24/2014  20:43:00     -284.708      404.078      -45.195      237.473      248.350      127.462    56393.453    61677.662    16246.669       19.032        6.716      494.305      150.228        0.092      332.903        1.867      855.611
12/24/2014  20:44:00     -287.932      416.414      -60.431      199.957      207.032      107.808    39982.945    42862.393    11622.633       17.719        4.723      506.266      120.098        0.056      332.915        1.884      855.637
12/24/2014  20:45:00     -234.758      212.285      -26.608      163.710      264.061      111.764    26800.865    69728.425    12491.173       10.493        5.451      316.507      117.287        0.137      332.907        1.873      855.661
12/24/2014  20:46:00     -269.443      194.762      -59.759      173.512      140.517       89.975    30106.568    19745.109     8095.578        8.601        2.897      332.463       86.219        0.067      332.902        1.862      855.685
12/24/2014  20:47:00     -232.372      280.584      -37.016      161.009      269.650      116.710    25923.741    72711.099    13621.341       12.315        5.613      364.313      122.475        0.113      332.873        1.814      855.730
12/24/2014  20:48:00     -225.087      226.130      -50.850      126.705      126.687       79.127    16054.160    16049.474     6261.072        7.137        1.918      319.060       74.198        0.054      332.837        1.756      855.768
12/24/2014  20:49:00     -354.323      172.739      -60.682      190.429      192.205       96.736    36263.014    36942.893     9357.889       12.080        4.128      394.188       91.457        0.054      332.882        1.830      855.784
12/24/2014  20:50:00     -343.546      300.143      -67.774      241.722      237.599      100.526    58429.600    56453.238    10105.406       16.882        6.249      456.191      115.261        0.064      332.874        1.816      855.812
12/24/2014  20:51:00     -210.667      228.657      -18.348      150.829      229.565      108.404    22749.335    52699.879    11751.412        9.208        4.360      310.909       96.591        0.097      332.857        1.789      855.753
12/24/2014  20:52:00     -164.793      222.403      -28.184       94.475      122.563       57.347     8925.498    15021.806     3288.656        5.232        1.362      276.803       47.288        0.029      332.824        1.734      855.831
12/24/2014  20:53:00     -110.479      289.448      -32.501      100.347      186.080       74.110    10069.447    34625.681     5492.312        7.360        2.509      309.816       73.500        0.056      332.792        1.682      855.861
12/24/2014  20:54:00     -182.258      422.643      -36.748      129.376      213.685      101.621    16738.206    45661.414    10326.887       14.295        3.636      460.266       92.092        0.040      332.837        1.756      855.831
12/24/2014  20:55:00     -335.904      167.020      -55.106      235.909      121.121       87.046    55653.196    14670.280     7577.053       11.082        3.895      375.136      110.445        0.087      332.855        1.786      855.907
12/24/2014  20:56:00     -175.254      130.088      -18.069      133.911      117.121       72.493    17932.121    13717.437     5255.195        4.243        1.845      218.259       76.970        0.124      332.845        1.770      855.933
12/24/2014  20:57:00     -378.466      429.057      -81.017      208.342      199.182      108.984    43406.377    39673.506    11877.491       21.440        4.748      572.125      105.100        0.034      332.816        1.722      855.972
12/24/2014  20:58:00     -328.223      317.073      -53.381      199.219      235.976       94.902    39688.138    55684.441     9006.437       15.773        5.219      456.361      113.708        0.062      332.794        1.684      855.930
12/24/2014  20:59:00     -171.700      141.195      -13.900      169.965      259.582       90.324    28888.196    67382.828     8158.368        7.700        5.221      222.299       87.678        0.156      332.766        1.640      855.940
12/24/2014  21:00:00     -282.700      209.846      -30.435      296.215      151.952      116.364    87743.535    23089.277    13540.559       12.460        6.219      352.072      139.227        0.156      332.754        1.619      855.978
12/24/2014  21:01:00     -336.835      228.942      -43.161      206.228      277.174      111.144    42529.989    76825.334    12352.907       14.970        6.585      407.274      114.492        0.079      332.751        1.614      855.951
12/24/2014  21:02:00     -386.462      263.277      -72.568      201.451      166.214      106.012    40582.469    27627.178    11238.454       15.167        3.972      467.619      101.463        0.047      332.781        1.663      855.993
12/24/2014  21:03:00     -203.280      198.810      -46.041      146.490      275.772       98.813    21459.356    76050.387     9764.106        9.510        5.364      284.338      111.539        0.154      332.748        1.608      856.027
12/24/2014  21:04:00     -342.652      343.054      -45.080      234.328      199.189      120.949    54909.705    39676.142    14628.655       17.315        5.461      484.867      110.662        0.052      332.734        1.586      856.071
12/24/2014  21:05:00     -170.653      286.553      -48.987      123.471      188.143       87.317    15244.978    35397.628     7624.240        8.594        2.913      333.519       61.861        0.034      332.728        1.576      856.088
12/24/2014  21:06:00     -155.511      379.169      -46.813      110.324      195.036       71.196    12171.289    38038.991     5068.822       11.270        2.764      409.821       87.756        0.046      332.701        1.531      856.112
12/24/2014  21:07:00     -356.500      594.696      -92.643      171.780      278.322      129.051    29508.416    77463.234    16654.179       30.646        6.181      693.365      111.790        0.026      332.739        1.594      856.112
12/24/2014  21:08:00     -272.418      367.683      -57.963      129.440      230.022       82.847    16754.685    52909.898     6863.629       14.463        3.826      457.605       87.761        0.037      332.736        1.589      856.126
12/24/2014  21:09:00     -338.664      202.815      -42.584      163.872      244.031      101.923    26854.077    59551.039    10388.304       12.720        4.840      394.750       96.570        0.060      332.736        1.588      856.155
12/24/2014  21:10:00     -144.119      134.205       -5.209      122.560      135.646       66.103    15020.957    18399.738     4369.610        3.829        1.890      196.930       55.574        0.080      332.735        1.589      856.174
12/24/2014  21:11:00     -213.660      282.187      -45.048      123.162      185.938       80.188    15168.950    34572.949     6430.073        9.173        2.809      353.950       85.769        0.059      332.704        1.538      856.223
12/24/2014  21:12:00     -169.299      298.998      -28.844      140.913      260.915       90.707    19856.416    68076.700     8227.791       10.751        4.808      343.601      100.332        0.085      332.662        1.468      856.224
12/24/2014  21:13:00     -192.813      224.306      -33.619      121.203      190.882       78.853    14690.135    36435.854     6217.721        7.297        2.867      295.787       64.440        0.047      332.675        1.488      856.268
12/24/2014  21:14:00     -122.277       87.106      -15.991      109.549      158.363       75.268    12000.894    25078.858     5665.256        3.276        2.137      150.130       55.528        0.137      332.679        1.497      856.248
12/24/2014  21:15:00     -206.271      122.792       -7.556      160.050      193.595       91.627    25616.095    37478.835     8395.534        6.457        3.575      240.053       81.013        0.114      332.638        1.428      856.263
12/24/2014  21:16:00     -178.744      111.677      -34.332      114.313      124.577       62.303    13067.405    15519.516     3881.707        3.903        1.623      210.764       66.117        0.098      332.552        1.286      856.287
12/24/2014  21:17:00     -280.858      142.469      -51.662      211.879      119.582       85.170    44892.783    14299.952     7253.914        8.413        3.322      314.927       80.861        0.066      332.553        1.287      856.272
12/24/2014  21:18:00      -54.901      205.804        0.370      131.283      139.564       78.817    17235.179    19478.011     6212.154        4.414        2.146      213.001       84.754        0.158      332.543        1.272      856.260
12/24/2014  21:19:00     -138.635       83.499      -13.743      101.035      103.183       69.423    10208.004    10646.696     4819.609        2.602        1.284      161.839       57.592        0.127      332.594        1.355      856.265
12/24/2014  21:20:00     -166.758      117.856      -28.144      180.112      118.702       73.880    32440.330    14090.250     5458.311        4.723        2.599      204.202       79.915        0.153      332.596        1.358      856.318
12/24/2014  21:21:00     -314.736      171.546      -61.756      166.017      137.613       81.810    27561.577    18937.282     6692.884        9.274        2.660      358.451       74.507        0.043      332.599        1.362      856.330
12/24/2014  21:22:00     -303.354      144.109      -46.818      197.977      163.675      103.491    39194.977    26789.492    10710.478        9.582        3.835      335.843      102.082        0.092      332.584        1.338      856.336
12/24/2014  21:23:00     -368.910      146.390      -34.654      245.470      185.096      127.427    60255.735    34260.545    16237.762       13.472        5.538      396.894      112.402        0.080      332.586        1.341      856.354
12/24/2014  21:24:00     -457.778      108.169      -49.465      236.379      232.688      100.874    55875.126    54143.486    10175.480       17.193        6.010      470.385       78.559        0.028      332.594        1.355      856.321
12/24/2014  21:25:00     -191.933      198.292      -32.442      104.680      198.891       67.164    10957.828    39557.626     4511.010        6.611        2.751      275.968       56.701        0.042      332.595        1.357      856.334
12/24/2014  21:26:00     -209.614      181.333      -37.979      130.718      185.895       77.277    17087.080    34557.017     5971.737        6.793        2.881      277.164       99.199        0.128      332.575        1.323      856.408
12/24/2014  21:27:00     -208.338       74.842      -14.439      194.135      145.009       90.628    37688.508    21027.552     8213.476        5.806        3.346      221.373       93.072        0.177      332.542        1.271      856.387
12/24/2014  21:28:00     -143.048       94.473      -10.627      161.725      166.224       71.860    26154.848    27630.394     5163.788        4.421        2.947      171.429       59.793        0.122      332.564        1.306      856.389
12/24/2014  21:29:00     -228.426      215.052      -28.219      161.186      137.019       93.270    25980.971    18774.185     8699.382        7.633        2.673      313.729       90.080        0.082      332.581        1.333      856.424
12/24/2014  21:30:00     -228.717      253.213      -53.206      126.205      143.195       79.787    15927.792    20504.934     6365.907        8.102        2.140      341.216       71.356        0.044      332.619        1.397      856.399
12/24/2014  21:31:00     -251.310      323.396      -69.655      112.722      131.272       74.648    12706.142    17232.447     5572.282       10.405        1.776      409.563       78.949        0.037      332.627        1.411      856.434
12/24/2014  21:32:00     -177.240      160.897      -19.739      194.723      224.691      102.903    37916.895    50485.950    10589.121        7.832        4.950      239.378       99.377        0.172      332.613        1.388      856.475
12/24/2014  21:33:00     -143.913      193.310      -17.212      123.341      147.168       68.875    15212.996    21658.466     4743.710        4.999        2.081      240.997       56.273        0.055      332.606        1.374      856.546
12/24/2014  21:34:00      -99.872      366.802      -21.544      108.414      181.248       75.747    11753.536    32850.819     5737.553        9.765        2.517      380.156       77.781        0.042      332.543        1.270      856.568
12/24/2014  21:35:00     -148.190      265.390      -41.687       87.177      143.923       58.850     7599.803    20713.915     3463.364        6.295        1.589      303.961       57.727        0.036      332.557        1.294      856.614
12/24/2014  21:36:00      -90.097      216.182      -17.342      110.877      137.987       68.406    12293.623    19040.460     4679.437        4.558        1.801      234.206       59.798        0.065      332.546        1.276      856.681
12/24/2014  21:37:00      -65.293      229.121       -8.436      105.046      160.569       76.359    11034.634    25782.261     5830.763        4.973        2.132      238.243       73.261        0.095      332.512        1.221      856.702
12/24/2014  21:38:00     -246.315      217.828      -57.005      174.742      185.077      100.366    30534.839    34253.353    10073.426        9.310        3.743      328.816       96.111        0.085      332.571        1.318      856.746
12/24/2014  21:39:00     -261.126      317.317      -54.844      175.038      224.289      109.754    30638.192    50305.707    12045.907       13.242        4.649      410.946       99.738        0.059      332.591        1.350      856.755
12/24/2014  21:40:00     -186.299      168.308      -43.964      107.980      147.676       76.378    11659.754    21808.210     5833.557        5.213        1.965      251.068       69.516        0.077      332.593        1.353      856.752
12/24/2014  21:41:00     -100.296      213.037      -15.067       77.784       96.266       49.738     6050.286     9267.172     2473.874        3.673        0.890      235.465       53.516        0.052      332.548        1.279      856.822
12/24/2014  21:42:00      -61.443      209.563       11.020      151.631      147.477       92.581    22992.066    21749.340     8571.183        5.055        2.666      218.385       86.159        0.156      332.494        1.191      856.857
12/24/2014  21:43:00      -45.085      264.447      -27.749       85.201      142.363       63.588     7259.132    20267.143     4043.480        5.215        1.578      268.263       69.650        0.067      332.516        1.226      856.888
12/24/2014  21:44:00      -29.970      158.838       13.462       70.031       92.097       71.814     4904.300     8481.818     5157.218        2.242        0.927      161.640       71.656        0.197      332.516        1.227      856.925
12/24/2014  21:45:00      -38.909      294.819      -11.192      107.753      129.096       74.303    11610.737    16665.885     5521.001        6.117        1.690      297.375       64.408        0.047      332.467        1.145      856.955
12/24/2014  21:46:00      -89.396      172.335      -16.860       98.328       61.737       46.276     9668.360     3811.505     2141.425        2.680        0.781      194.141       35.686        0.034      332.510        1.217      857.008
12/24/2014  21:47:00        5.078       66.887       -0.467      131.391       80.123       57.916    17263.547     6419.638     3354.207        1.576        1.352       67.080       55.926        0.695      332.458        1.134      857.012
12/24/2014  21:48:00     -143.132      339.347      -30.241      137.170      157.499       67.716    18815.629    24805.974     4585.442        9.237        2.410      368.298       51.853        0.020      332.505        1.208      857.099
12/24/2014  21:49:00       65.431      206.098      -16.396       95.588       98.227       61.747     9137.027     9648.560     3812.655        3.481        1.130      216.236       56.764        0.069      332.406        1.044      857.135
12/24/2014  21:50:00      -49.397      381.672        4.206      128.392      281.523      114.435    16484.498    79255.216    13095.422       12.846        5.442      384.855      147.536        0.147      332.460        1.135      857.198
12/24/2014  21:51:00       11.182      290.845      -32.682      119.666      237.781       66.771    14319.995    56539.919     4458.368        8.054        3.766      291.060       93.525        0.103      332.431        1.088      857.203
12/24/2014  21:52:00       42.602      122.246       13.977       85.519      132.160       67.418     7313.484    17466.267     4545.200        2.313        1.466      129.456       72.112        0.310      332.457        1.130      857.203
12/24/2014  21:53:00       80.547      146.620      -19.097       85.314       69.538       49.667     7278.537     4835.496     2466.812        2.146        0.729      167.288       46.360        0.077      332.405        1.045      857.298
12/24/2014  21:54:00       96.855       87.715       13.483       72.989       64.732       58.352     5327.424     4190.199     3404.907        1.509        0.646      130.671       27.572        0.045      332.391        1.021      857.286
12/24/2014  21:55:00      139.131       82.206       33.812      122.184       73.623       53.573    14928.943     5420.392     2870.031        2.523        1.161      161.602       37.377        0.053      332.464        1.143      857.267
12/24/2014  21:56:00      105.205       78.042       -6.683       57.566       62.775       41.949     3313.812     3940.686     1759.730        1.311        0.451      130.991       28.634        0.048      332.443        1.110      857.348
12/24/2014  21:57:00       82.761      106.449       -3.754       83.676       79.266       43.441     7001.727     6283.133     1887.107        1.668        0.759      134.836       38.175        0.080      332.405        1.044      857.405
12/24/2014  21:58:00       52.346      224.938      -19.286       64.125      102.049       58.465     4111.969    10414.069     3418.131        3.582        0.897      230.949       58.668        0.065      332.434        1.093      857.458
12/24/2014  21:59:00       24.369      198.840      -35.096       79.124       83.435       42.470     6260.539     6961.434     1803.731        2.819        0.751      200.327       45.055        0.051      332.441        1.104      857.484
12/24/2014  22:00:00       90.824      140.401        6.348       75.161       87.353       62.141     5649.119     7630.538     3861.513        2.257        0.857      167.217       52.679        0.099      332.422        1.072      857.479
12/24/2014  22:01:00      106.931       42.198       19.838       94.756       52.776       46.756     8978.783     2785.256     2186.163        1.378        0.698      114.956       36.184        0.099      332.433        1.091      857.498
12/24/2014  22:02:00      -49.824      207.652      -20.137       77.236      104.756       50.811     5965.366    10973.814     2581.730        3.276        0.976      213.546       61.638        0.083      332.466        1.143      857.533
12/24/2014  22:03:00      -40.919       95.965        1.341       69.083       73.407       45.941     4772.458     5388.634     2110.535        1.158        0.614      104.325       50.113        0.231      332.538        1.264      857.543
12/24/2014  22:04:00       48.545       65.261       -3.173       45.884       53.348       38.778     2105.298     2845.970     1503.701        0.654        0.323       81.336       35.211        0.187      332.532        1.255      857.524
12/24/2014  22:05:00       58.312      110.128       11.563       79.334       61.593       55.056     6293.878     3793.661     3031.133        1.439        0.656      124.613       56.191        0.203      332.500        1.201      857.521
12/24/2014  22:06:00       16.057      112.845        4.715       76.902       71.395       57.060     5913.922     5097.296     3255.805        1.364        0.713      113.982       40.407        0.126      332.535        1.260      857.511
12/24/2014  22:07:00      -21.814      376.553      -51.076       87.689       91.195       48.892     7689.345     8316.522     2390.387        8.163        0.920      377.184       43.987        0.014      332.586        1.342      857.552
12/24/2014  22:08:00      -20.754      163.456       -9.827       75.232       88.589       58.046     5659.852     7847.924     3369.372        2.206        0.844      164.768       61.162        0.138      332.621        1.400      857.584
12/24/2014  22:09:00       -7.702      235.982      -28.719      112.657      122.987       70.639    12691.678    15125.775     4989.938        4.468        1.640      236.108       75.587        0.102      332.546        1.276      857.613
12/24/2014  22:10:00      -25.744      166.624      -17.363       65.433       81.566       50.805     4281.483     6652.937     2581.158        2.112        0.676      168.601       45.599        0.073      332.570        1.316      857.622
12/24/2014  22:11:00      -45.651      219.863      -25.240       82.200      105.923       45.700     6756.920    11219.748     2088.531        3.556        1.003      224.552       52.382        0.054      332.612        1.383      857.631
12/24/2014  22:12:00     -101.075      132.904      -23.364       87.433      131.722       52.834     7644.517    17350.780     2791.446        2.810        1.389      166.972       47.609        0.081      332.614        1.388      857.643
12/24/2014  22:13:00      -53.096      137.489       -5.678       82.095      133.356       58.509     6739.638    17783.829     3423.298        2.485        1.397      147.386       73.304        0.247      332.555        1.291      857.655
12/24/2014  22:14:00      -42.306      207.513      -17.621       67.275      100.342       52.983     4525.966    10068.498     2807.251        3.128        0.870      211.782       49.162        0.054      332.566        1.307      857.688
12/24/2014  22:15:00      -62.206      274.283      -35.358       79.975       83.339       45.041     6395.968     6945.422     2028.728        4.786        0.769      281.248       39.187        0.019      332.594        1.353      857.691
12/24/2014  22:16:00      -39.977      236.452      -23.814      103.507      122.581       63.984    10713.754    15026.003     4093.953        4.395        1.492      239.808       69.698        0.084      332.515        1.225      857.674
12/24/2014  22:17:00      -18.110      215.346      -16.907       49.127       98.805       38.056     2413.437     9762.417     1448.267        3.030        0.681      216.106       45.059        0.043      332.475        1.159      857.695
12/24/2014  22:18:00      -41.840       87.306       -2.075       44.449       52.510       33.868     1975.735     2757.348     1147.063        0.763        0.294       96.814       22.892        0.056      332.652        1.454      857.735
12/24/2014  22:19:00      -60.507       38.127      -17.349       40.533       50.552       22.381     1642.900     2555.507      500.896        0.506        0.235       71.518       19.727        0.076      332.616        1.394      857.782
12/24/2014  22:20:00     -167.915       82.957      -36.917      129.297       85.584       52.379    16717.704     7324.668     2743.544        3.161        1.339      187.290       51.981        0.077      332.523        1.237      857.810
12/24/2014  22:21:00     -149.695       78.539      -17.632       70.990       43.219       36.059     5039.582     1867.864     1300.258        1.855        0.410      169.047       29.451        0.030      332.481        1.170      857.843
12/24/2014  22:22:00     -103.147      -27.206       -7.262       92.451       54.126       33.656     8547.123     2929.677     1132.730        1.202        0.630      106.675       38.804        0.132      332.471        1.154      857.844
12/24/2014  22:23:00      -59.891      -64.937       -1.048       61.181       42.553       29.231     3743.086     1810.784      854.473        0.711        0.320       88.339        6.948        0.006      332.462        1.141      857.835
12/24/2014  22:24:00     -216.914       37.094      -30.361      109.373       73.357       43.264    11962.451     5381.315     1871.795        3.428        0.961      220.063       41.408        0.035      332.430        1.085      857.857
12/24/2014  22:25:00     -208.770       78.167      -28.206       99.946      101.045       48.496     9989.295    10210.130     2351.823        3.652        1.128      222.924       39.834        0.032      332.414        1.060      857.866
12/24/2014  22:26:00     -199.825       59.560      -32.050       85.415      122.632       54.431     7295.778    15038.606     2962.690        3.490        1.265      208.512       60.128        0.083      332.391        1.021      857.849
12/24/2014  22:27:00     -217.805      -68.568      -12.549      138.741       96.113       67.815    19249.151     9237.674     4598.902        4.269        1.654      228.344       65.905        0.083      332.330        0.919      857.846
12/24/2014  22:28:00     -229.696       38.638      -23.123      183.911      149.424       81.672    33823.371    22327.556     6670.286        5.879        3.141      232.923      100.981        0.188      332.317        0.899      857.847
12/24/2014  22:29:00     -254.325      -27.035      -36.563       98.836       79.493       51.849     9768.479     6319.068     2688.269        4.276        0.939      255.758       48.341        0.036      332.344        0.943      857.865
12/24/2014  22:30:00     -248.801       50.454      -46.067      109.077      162.221       63.112    11897.701    26315.711     3983.128        5.437        2.110      253.866       64.229        0.064      332.334        0.925      857.864
12/24/2014  22:31:00     -144.832      167.131      -28.568       75.418      158.797       61.445     5687.922    25216.597     3775.435        4.220        1.734      221.154       69.025        0.097      332.291        0.856      857.887
12/24/2014  22:32:00     -120.829       93.061      -11.605       85.344       84.084       46.637     7283.679     7070.055     2174.983        1.996        0.826      152.513       54.354        0.127      332.246        0.783      857.891
12/24/2014  22:33:00     -264.667      102.182      -26.072      114.769      107.101       57.382    13171.973    11470.583     3292.738        5.455        1.397      283.707       45.847        0.026      332.279        0.837      857.910
12/24/2014  22:34:00     -132.803       68.527        1.745       97.489       95.295       53.086     9504.198     9081.078     2818.155        2.187        1.070      149.441       20.059        0.018      332.259        0.804      857.932
12/24/2014  22:35:00      -75.235       53.282       -4.936       77.345       99.058       59.109     5982.268     9812.534     3493.821        1.390        0.964       92.192       45.366        0.242      332.257        0.800      857.970
12/24/2014  22:36:00     -175.968       -3.060        2.948      108.017       99.473       65.328    11667.708     9894.914     4267.688        2.840        1.292      175.995       58.983        0.112      332.230        0.756      857.979
12/24/2014  22:37:00     -186.468      -21.822      -40.849      119.552       82.615       43.452    14292.735     6825.203     1888.075        2.996        1.150      187.740       42.472        0.051      332.231        0.759      858.004
12/24/2014  22:38:00      -87.416       47.946      -23.021      131.584      164.429       63.623    17314.356    27036.880     4047.889        2.943        2.420       99.702       72.036        0.522      332.188        0.688      857.985
12/24/2014  22:39:00     -148.914       40.383       -8.879      105.519       87.702       50.689    11134.199     7691.653     2569.329        2.264        1.070      154.292       54.089        0.123      332.142        0.611      858.011
12/24/2014  22:40:00      -74.353       42.946      -20.896       87.535       63.231       51.669     7662.460     3998.157     2669.683        1.107        0.717       85.865       49.431        0.331      332.080        0.509      858.028
12/24/2014  22:41:00     -258.445       82.023      -37.675      166.692      116.231       59.796    27786.280    13509.598     3575.552        5.990        2.244      271.149       76.966        0.081      332.147        0.619      858.048
12/24/2014  22:42:00     -296.874       99.645      -50.043      143.120      129.334       75.239    20483.328    16727.207     5660.967        7.171        2.144      313.151       61.623        0.039      332.138        0.602      858.066
12/24/2014  22:43:00     -180.229       14.679      -30.128      117.201      101.783       44.472    13735.998    10359.725     1977.743        2.983        1.304      180.826       54.694        0.091      332.116        0.566      858.053
12/24/2014  22:44:00     -228.061        7.440      -30.742      111.047       77.778       52.265    12331.447     6049.359     2731.579        3.706        1.056      228.183       54.748        0.058      332.094        0.529      858.044
12/24/2014  22:45:00     -214.345       60.344      -31.385       96.136       83.942       47.610     9242.174     7046.338     2266.696        3.456        0.928      222.678       40.300        0.033      332.098        0.536      858.033
12/24/2014  22:46:00      -79.523       31.158       -2.846       81.927       73.880       41.446     6712.082     5458.205     1717.761        1.059        0.694       85.410       38.240        0.200      332.085        0.517      857.990
12/24/2014  22:47:00     -111.935       54.493      -14.597       87.205       73.347       46.475     7604.729     5379.775     2159.960        1.543        0.757      124.495       48.057        0.149      332.093        0.529      857.959
12/24/2014  22:48:00     -106.999      232.432       -9.568      163.285      138.610       84.321    26661.932    19212.631     7109.984        5.926        2.649      255.877       92.552        0.131      332.093        0.528      857.890
12/24/2014  22:49:00     -181.942      266.682      -44.074       85.644       95.907       53.232     7334.911     9198.234     2833.623        6.276        0.968      322.834       48.275        0.022      332.086        0.516      857.911
12/24/2014  22:50:00     -144.770      179.068      -32.773       83.838      102.230       50.519     7028.767    10450.939     2552.198        3.706        1.002      230.269       39.428        0.029      332.059        0.474      857.912
12/24/2014  22:51:00     -115.980       90.561      -16.367       72.142       69.911       34.877     5204.467     4887.605     1216.435        1.661        0.565      147.148       28.912        0.039      332.059        0.474      857.938
12/24/2014  22:52:00     -148.363      262.907      -21.932      161.820      198.626       95.476    26185.603    39452.478     9115.676        8.317        3.738      301.880       93.143        0.095      332.058        0.471      857.970
12/24/2014  22:53:00     -172.824      205.441      -17.304      142.537      163.517       71.827    20316.677    26737.878     5159.142        6.228        2.611      268.466       78.575        0.086      332.076        0.502      857.946
12/24/2014  22:54:00     -209.953      259.541      -38.486      143.281      101.072       78.468    20529.318    10215.502     6157.235        7.491        1.845      333.829       73.844        0.049      332.081        0.508      857.939
12/24/2014  22:55:00     -176.687      145.418      -17.141       86.426      153.636       79.230     7469.523    23604.087     6277.409        4.500        1.868      228.834       71.950        0.099      332.077        0.502      857.917
12/24/2014  22:56:00     -151.546      178.803      -18.770      100.795      108.584       71.795    10159.628    11790.489     5154.539        4.119        1.355      234.386       59.502        0.064      332.103        0.546      857.925
12/24/2014  22:57:00     -156.623       88.898      -31.638       78.643       73.540       43.867     6184.738     5408.090     1924.271        2.347        0.676      180.094       51.510        0.082      332.081        0.510      857.944
12/24/2014  22:58:00     -159.416       31.383      -17.681      143.190       72.368       55.115    20503.302     5237.170     3037.709        2.774        1.439      162.476       63.506        0.153      332.052        0.464      857.936
12/24/2014  22:59:00     -109.446       50.971        7.850      122.504      108.211       65.465    15007.260    11709.588     4285.622        2.281        1.550      120.733       70.327        0.339      332.043        0.447      857.901
12/24/2014  23:00:00      -96.225      103.561      -10.071       84.546      101.868       58.029     7148.052    10377.019     3367.405        2.048        1.045      141.366       57.249        0.164      332.005        0.385      857.917
12/24/2014  23:01:00      -78.130      149.759      -14.805      104.953      176.811       81.729    11015.114    31262.145     6679.662        3.884        2.448      168.914       74.488        0.194      332.003        0.380      857.935
12/24/2014  23:02:00     -107.399      121.275      -20.799      140.154      103.671       84.620    19643.275    10747.642     7160.470        3.211        1.878      161.994       86.302        0.284      332.017        0.404      857.964
12/24/2014  23:03:00     -110.840       98.885      -19.767       87.725      118.030       52.663     7695.679    13931.060     2773.440        2.342        1.220      148.539       46.131        0.096      332.006        0.387      857.981
12/24/2014  23:04:00      -86.503       78.422      -26.061       62.811      122.166       46.489     3945.192    14924.492     2161.242        1.767        1.052      116.760       50.986        0.191      331.991        0.361      857.967
12/24/2014  23:05:00     -117.413       55.029      -11.716      154.688      121.005       50.839    23928.322    14642.101     2584.645        2.904        2.058      129.669       42.839        0.109      331.986        0.353      857.953
12/24/2014  23:06:00      -92.827       38.227       -2.220       57.272       72.034       44.924     3280.136     5188.834     2018.155        1.028        0.524      100.390       30.356        0.091      331.956        0.304      857.972
12/24/2014  23:07:00     -136.251      227.362      -39.138      114.380      115.613       58.524    13082.712    13366.277     3425.069        5.083        1.494      265.062       60.119        0.051      331.935        0.267      857.969
12/24/2014  23:08:00     -201.046      268.135      -48.172      114.127      130.201       56.693    13025.009    16952.257     3214.077        7.391        1.660      335.136       49.678        0.022      331.976        0.335      857.980
12/24/2014  23:09:00     -213.080      287.544      -55.445      113.075      113.835       68.620    12786.031    12958.486     4708.753        8.080        1.523      357.889       69.158        0.037      331.962        0.312      857.954
12/24/2014  23:10:00     -200.987      181.083      -55.697       98.740       81.497       54.070     9749.681     6641.702     2923.582        4.780        0.966      270.531       46.800        0.030      331.964        0.315      857.965
12/24/2014  23:11:00     -141.400      144.139      -22.086      115.027       94.293       48.030    13231.279     8891.084     2306.899        3.284        1.221      201.916       45.443        0.051      331.936        0.270      857.983
12/24/2014  23:12:00      -71.108      132.193       17.060      103.201       95.762       65.894    10650.415     9170.288     4342.064        2.349        1.208      150.104       66.964        0.199      331.935        0.269      858.005
12/24/2014  23:13:00     -162.639       77.005      -17.574      128.048      111.672       67.718    16396.360    12470.679     4585.687        3.306        1.673      179.947       80.756        0.201      331.961        0.311      858.003
12/24/2014  23:14:00     -104.821       67.963      -16.058       98.987       85.422       47.603     9798.410     7296.841     2266.013        1.761        0.968      124.926       40.530        0.105      331.964        0.317      857.985
12/24/2014  23:15:00     -104.677      151.655       -8.364       72.054      157.981       54.996     5191.712    24957.899     3024.594        3.359        1.659      184.273       56.563        0.094      331.914        0.234      857.996
12/24/2014  23:16:00     -256.625       89.189      -13.628      219.086       87.791       78.662    47998.833     7707.185     6187.695        6.793        3.095      271.682      104.040        0.147      331.910        0.228      857.977
12/24/2014  23:17:00     -211.475       83.582      -24.441      130.215      103.666       63.342    16955.926    10746.639     4012.192        4.200        1.586      227.393       66.114        0.085      331.907        0.222      857.980
12/24/2014  23:18:00      -76.172       93.864        6.416      133.375      149.902       80.028    17788.840    22470.493     6404.484        3.065        2.333      120.883       58.939        0.238      331.911        0.230      857.992
12/24/2014  23:19:00     -173.197      148.851       -9.290      124.794      138.703       64.749    15573.551    19238.537     4192.411        4.561        1.950      228.372       77.791        0.116      331.916        0.238      858.024
12/24/2014  23:20:00     -194.327      164.448      -43.743      129.978      130.866       63.019    16894.229    17125.914     3971.349        5.235        1.900      254.570       57.816        0.052      331.975        0.333      858.039
12/24/2014  23:21:00     -140.650      155.931      -27.888      110.256       95.062       46.556    12156.421     9036.841     2167.448        3.411        1.168      209.993       50.547        0.058      331.984        0.350      858.052
12/24/2014  23:22:00      -77.017      139.403      -18.326       52.024       71.666       42.063     2706.466     5135.994     1769.292        1.765        0.481      159.263       41.953        0.069      331.969        0.326      858.038
12/24/2014  23:23:00     -124.154       13.952       -7.388       84.082       66.821       42.553     7069.792     4465.051     1810.788        1.450        0.667      124.935       32.038        0.066      331.972        0.331      858.039
12/24/2014  23:24:00      -61.965      100.703        0.545       92.255      107.753       57.581     8510.993    11610.715     3315.556        1.870        1.172      118.241       43.282        0.134      331.927        0.257      858.051
12/24/2014  23:25:00     -128.170      144.020      -21.076      120.983       87.317       51.648    14636.766     7624.189     2667.514        3.127        1.246      192.794       40.228        0.044      331.950        0.293      858.091
12/24/2014  23:26:00     -139.187       86.822      -20.343      123.891      114.637       48.297    15348.891    13141.602     2332.587        2.907        1.541      164.046       57.403        0.122      331.972        0.329      858.120
12/24/2014  23:27:00     -138.762      203.388      -26.784      147.234      165.947       86.236    21677.922    27538.389     7436.691        5.898        2.833      246.215       87.950        0.128      331.976        0.336      858.152
12/24/2014  23:28:00     -165.046      276.388      -32.220       85.856      127.513       58.444     7371.193    16259.485     3415.701        6.585        1.352      321.917       38.111        0.014      331.961        0.310      858.160
12/24/2014  23:29:00     -228.863      320.513      -58.270      121.937      152.038       67.551    14868.552    23115.448     4563.187       10.052        2.127      393.837       57.974        0.022      331.983        0.345      858.181
12/24/2014  23:30:00     -187.923      190.255      -34.736      102.772      174.750       69.430    10562.146    30537.666     4820.593        5.931        2.296      267.417       75.075        0.079      331.967        0.320      858.172
12/24/2014  23:31:00     -183.553       79.669      -27.105      105.719      100.427       75.888    11176.421    10085.588     5758.978        3.389        1.351      200.097       53.091        0.070      331.993        0.364      858.189
12/24/2014  23:32:00     -140.700      192.941      -24.743       99.201      104.371       61.476     9840.854    10893.351     3779.245        4.107        1.226      238.794       66.359        0.077      332.000        0.376      858.239
12/24/2014  23:33:00     -162.689      108.890      -23.042      107.143      129.618       57.902    11479.675    16800.869     3352.699        3.524        1.582      195.767       41.408        0.045      331.993        0.364      858.269
12/24/2014  23:34:00     -183.842      270.918      -33.717       85.139      120.090       62.970     7248.668    14421.554     3965.229        6.698        1.282      327.406       60.401        0.034      331.953        0.298      858.289
12/24/2014  23:35:00     -148.471      173.757      -36.142      120.324      115.965       67.554    14477.955    13447.902     4563.478        4.301        1.624      228.550       57.633        0.064      331.958        0.307      858.320
12/24/2014  23:36:00     -173.721      129.209      -33.314       80.212       75.061       44.405     6434.008     5634.091     1971.829        3.101        0.702      216.504       46.995        0.047      331.944        0.281      858.331
12/24/2014  23:37:00     -153.633      132.447      -14.070      117.092      104.902       67.695    13710.593    11004.339     4582.641        3.531        1.465      202.843       83.861        0.171      331.931        0.262      858.325
12/24/2014  23:38:00     -143.320      143.873      -29.224       95.038      172.511       55.351     9032.183    29759.992     3063.782        4.197        2.093      203.076       25.638        0.016      331.926        0.253      858.320
12/24/2014  23:39:00      -99.450       82.833      -10.987       69.911       59.868       50.467     4887.584     3584.136     2546.875        1.394        0.551      129.428       44.500        0.118      331.909        0.228      858.327
12/24/2014  23:40:00      -74.601       77.898       -7.479       69.728       88.738       38.179     4862.034     7874.400     1457.638        1.294        0.710      107.858       39.268        0.133      331.931        0.264      858.333
12/24/2014  23:41:00     -180.439      107.820      -24.896      146.273       86.993       58.125    21395.815     7567.838     3378.558        3.857        1.617      210.199       72.537        0.119      331.917        0.240      858.364
12/24/2014  23:42:00     -126.586      176.855      -29.803       80.627       68.713       55.336     6500.654     4721.434     3062.057        3.123        0.714      217.490       43.281        0.040      331.868        0.158      858.374
12/24/2014  23:43:00     -172.603      123.886      -30.501       83.452       73.049       44.511     6964.244     5336.220     1981.228        3.017        0.714      212.460       42.230        0.040      331.851        0.129      858.405
12/24/2014  23:44:00     -134.930      120.078      -17.089      103.431       79.067       58.430    10697.962     6251.523     3414.077        2.664        1.018      180.623       63.863        0.125      331.844        0.120      858.417
12/24/2014  23:45:00      -44.503       70.456       -3.343       64.970       89.877       40.372     4221.066     8077.926     1629.899        1.044        0.696       83.334       19.146        0.053      331.936        0.273      858.421
12/24/2014  23:46:00      -68.678      198.762      -17.653       88.303       83.538       54.957     7797.350     6978.604     3020.264        3.116        0.890      210.293       36.326        0.030      331.851        0.130      858.457
12/24/2014  23:47:00     -313.950      226.480      -68.554      193.400      144.753       83.882    37403.383    20953.414     7036.143       10.996        3.270      387.114       90.361        0.054      331.877        0.173      858.513
12/24/2014  23:48:00     -228.625      336.531      -50.907      134.415      143.096       79.044    18067.455    20476.329     6247.892       10.644        2.240      406.845       72.860        0.032      331.870        0.160      858.508
12/24/2014  23:49:00     -151.696      183.437      -33.408       75.240      133.222       41.807     5661.065    17748.121     1747.814        4.146        1.258      238.035       44.524        0.035      331.882        0.182      858.543
12/24/2014  23:50:00     -116.172       95.764      -15.155       72.402       91.878       55.085     5242.066     8441.535     3034.311        1.980        0.836      150.555       46.353        0.095      331.876        0.175      858.553
12/24/2014  23:51:00     -205.262      294.151      -23.755      167.785      179.246       88.532    28151.844    32129.070     7837.924        9.866        3.406      358.688      112.208        0.098      331.867        0.155      858.575
12/24/2014  23:52:00     -237.843      313.090      -44.675      173.855      196.368       83.203    30225.443    38560.578     6922.818       11.613        3.785      393.185       88.182        0.050      331.894        0.200      858.570
12/24/2014  23:53:00     -163.654      258.585      -40.916      119.013      157.303       72.810    14164.091    24744.350     5301.242        6.976        2.210      306.021       70.088        0.052      331.896        0.203      858.593
12/24/2014  23:54:00     -201.881      282.280      -33.083      161.951      141.806       75.420    26228.111    20108.853     5688.218        8.677        2.601      347.041       67.965        0.038      331.913        0.231      858.590
12/24/2014  23:55:00     -136.672      151.955      -18.847       76.565       94.421       58.927     5862.196     8915.244     3472.442        3.018        0.912      204.376       41.373        0.041      331.896        0.204      858.600
12/24/2014  23:56:00     -146.841       81.101      -10.501      148.845      104.125       55.100    22154.902    10841.923     3036.028        3.213        1.802      167.749       66.763        0.158      331.912        0.232      858.616
12/24/2014  23:57:00     -224.092      247.452      -48.903      108.070      151.003       66.862    11679.020    22801.792     4470.491        7.639        1.948      333.841       56.798        0.029      331.938        0.273      858.612
12/24/2014  23:58:00     -230.945      210.040      -49.662       82.489       69.842       54.648     6804.508     4877.893     2986.418        5.729        0.733      312.173       43.919        0.020      331.910        0.224      858.618
12/24/2014  23:59:00     -336.543      284.150      -67.128      156.006      152.165       81.111    24337.724    23154.096     6578.961       12.628        2.704      440.457       79.443        0.033      331.957        0.303      858.621
